ECMWFNIL_sfc_temp_000.txt.gz
Temp
55 55 55 55 54 55 54 53 51 53 53 52 52 52 52 53 51 51 51 50 51 51 51 50 51 51 51 50 51 52 51 50 51 50 50 51 50 50 51 50 51 51
55 56 57 56 55 55 54 54 53 54 53 52 53 52 51 52 51 52 51 51 52 50 50 50 51 50 50 50 50 50 49 49 50 52 50 49 49 49 50 49 50 50
55 54 55 54 55 54 53 53 53 53 54 53 52 52 52 52 51 50 50 51 50 50 50 50 50 50 50 50 50 50 50 49 49 49 51 49 49 49 49 49 50 50
55 55 56 55 55 54 53 53 52 52 51 52 52 52 53 53 51 50 50 54 50 49 49 50 50 50 49 49 49 49 48 48 48 48 49 49 50 50 49 50 50 49
55 55 55 55 55 54 53 53 53 52 52 52 51 51 53 52 50 50 50 49 50 49 49 49 48 49 48 48 48 48 49 48 48 48 48 48 48 50 50 50 49 49
55 55 55 56 55 54 53 53 54 53 52 51 51 52 51 51 51 50 50 49 49 49 48 48 48 47 47 47 47 47 48 48 47 47 48 48 48 48 49 49 48 48
56 55 54 55 54 54 54 54 53 54 53 53 51 51 51 50 50 50 50 50 49 50 49 48 47 46 47 47 48 47 46 47 46 47 48 47 48 47 48 48 48 48
56 56 55 54 54 53 54 53 53 53 52 51 52 51 51 51 50 50 49 49 49 48 46 46 46 47 46 48 48 46 46 47 46 46 46 46 46 47 47 48 48 47
57 55 55 54 54 53 54 53 53 52 52 52 52 50 50 51 50 50 49 48 48 46 46 46 47 46 46 47 46 46 46 46 46 45 46 46 46 46 47 47 47 47
54 53 53 53 54 54 54 53 53 52 52 52 51 50 50 49 50 49 49 48 47 46 46 46 46 46 45 45 46 46 46 46 45 45 45 45 46 46 46 46 46 46
54 54 53 53 54 53 53 53 52 52 52 52 50 50 50 49 49 48 48 48 47 47 46 46 47 46 46 45 43 44 45 44 44 45 45 45 46 46 47 47 47 47
55 53 53 53 54 53 53 52 52 52 51 51 51 50 48 49 48 48 49 47 46 46 47 46 45 45 45 45 44 44 43 43 44 45 45 45 45 46 46 47 47 47
54 53 53 53 53 52 52 52 52 52 51 51 51 51 49 48 48 47 47 47 46 46 47 46 45 43 43 42 42 42 43 44 44 44 44 44 45 46 46 46 47 47
53 53 54 54 54 53 53 52 52 51 51 51 50 50 49 48 47 47 46 47 46 47 46 45 44 42 41 41 42 42 43 43 43 44 44 44 44 45 45 46 46 47
52 52 53 54 54 53 52 52 52 52 51 50 50 50 50 49 48 47 46 45 44 44 44 44 44 43 43 43 43 43 42 43 43 43 42 43 43 44 45 45 46 46
52 52 52 52 52 52 52 51 51 51 51 50 50 50 49 47 47 48 47 45 43 43 43 44 43 44 46 42 44 44 42 41 41 42 42 42 42 43 43 44 45 45
52 52 52 51 52 52 51 52 52 50 50 49 49 48 48 48 47 46 45 45 44 44 42 42 42 45 42 40 40 41 42 41 41 41 41 41 42 42 42 43 44 45
51 51 51 52 52 53 53 54 52 51 50 50 48 47 46 46 45 45 45 44 44 43 42 43 43 44 39 40 40 40 42 42 40 40 41 41 41 41 42 42 43 43
51 51 51 52 52 52 51 50 50 49 47 47 46 46 46 45 44 44 44 43 43 42 42 43 43 42 39 40 39 39 39 40 40 40 40 41 40 41 41 41 42 42
51 51 51 50 49 49 49 48 48 47 47 46 45 45 44 44 43 44 43 43 43 42 42 41 41 42 39 39 39 39 38 39 40 39 39 40 40 40 41 41 41 42
50 50 49 49 49 49 48 48 48 47 47 45 44 44 43 43 42 42 43 43 43 41 41 41 41 41 39 39 38 39 38 39 38 39 39 39 39 40 41 41 41 41
49 48 49 49 48 48 49 49 47 46 44 44 44 43 43 43 42 43 43 42 41 40 40 40 40 40 39 39 39 38 38 41 39 38 38 39 39 40 40 41 41 41
49 49 48 48 48 49 49 48 46 46 45 45 45 44 43 43 43 43 43 42 41 40 39 39 39 40 39 39 39 38 39 39 38 38 38 37 38 39 40 40 41 41
48 49 49 48 48 48 46 45 46 46 45 45 44 42 42 43 43 42 41 41 41 40 39 39 39 40 39 39 39 39 40 39 38 37 37 37 37 38 39 39 40 42
49 50 50 49 48 47 47 45 45 44 44 45 44 44 44 43 42 41 39 39 40 41 42 40 39 40 40 38 39 39 40 39 38 37 36 36 37 37 38 38 39 41
50 50 50 49 47 47 47 46 44 43 44 45 45 46 44 41 40 40 39 39 39 39 40 41 39 39 40 39 39 39 39 40 39 37 36 37 37 38 38 39 39 39

ECMWFNIL_sfc_temp_003.txt.gz
Temp
67 67 67 67 67 68 68 66 66 66 67 68 67 67 67 67 66 65 65 64 64 64 63 63 63 63 63 63 63 63 63 61 61 62 61 61 60 59 59 59 58 58
66 66 67 67 67 67 67 67 66 66 66 66 68 68 67 66 65 65 64 64 64 64 64 64 64 63 63 63 63 62 62 61 60 62 60 60 60 60 58 58 58 58
66 65 65 65 66 66 65 65 66 66 67 66 67 66 65 66 64 65 65 65 64 63 63 63 63 63 63 63 63 62 61 60 60 61 61 60 60 59 59 59 59 57
65 65 66 66 66 66 66 65 64 65 65 65 65 65 65 64 65 63 64 64 64 63 63 63 63 63 63 63 62 62 61 61 61 61 60 60 60 60 59 59 58 59
65 65 66 66 66 66 66 65 65 65 65 65 65 64 64 64 63 63 64 64 64 64 63 63 63 63 63 63 63 62 61 60 60 61 60 59 59 58 58 58 57 57
66 67 67 66 66 65 65 65 66 65 65 64 64 65 65 65 64 64 64 63 64 63 63 63 62 62 63 62 62 61 61 61 60 60 59 59 59 59 59 58 57 57
66 65 65 66 66 65 65 65 66 65 65 66 66 64 65 64 64 65 65 64 64 64 64 62 61 61 61 62 61 60 60 60 60 60 59 59 58 58 58 57 58 57
66 66 66 66 65 65 64 66 66 65 65 65 64 65 65 65 66 64 65 65 65 64 63 63 62 62 61 62 61 59 58 59 58 59 58 58 57 57 57 57 56 57
67 66 65 64 64 65 64 65 65 65 65 64 65 64 64 65 65 64 64 65 64 63 63 62 62 61 61 61 60 60 59 58 58 58 57 56 56 56 58 57 56 56
67 66 65 64 64 64 64 65 66 65 65 64 65 65 64 64 64 65 64 64 63 62 62 62 61 61 61 61 60 60 59 58 58 57 57 57 56 57 57 57 56 55
66 66 64 64 64 65 64 65 65 65 64 65 65 64 64 63 63 64 64 64 61 62 62 62 61 61 60 59 59 59 58 57 57 57 56 56 56 56 55 56 56 55
65 65 64 64 64 64 65 65 65 65 64 64 65 64 63 63 63 63 64 64 63 63 62 62 62 61 60 59 59 58 57 57 56 56 56 56 56 56 56 56 55 56
65 65 65 65 64 65 65 65 65 64 64 64 64 64 63 62 63 63 63 63 63 62 62 61 60 60 59 58 58 58 57 57 56 56 55 55 55 55 56 56 56 56
65 66 66 65 65 65 65 65 64 63 63 64 63 63 63 63 63 62 61 62 62 62 61 60 59 59 59 58 58 57 57 56 55 54 55 54 54 55 54 55 55 55
64 65 65 65 64 64 64 64 63 63 63 63 62 62 60 62 62 61 60 61 61 60 60 59 58 57 58 58 57 56 56 55 54 54 53 53 53 54 54 54 55 55
63 64 64 64 64 63 63 63 63 63 62 62 62 62 61 59 59 60 60 59 58 59 58 57 56 56 50 46 50 56 56 55 54 54 54 53 53 53 53 54 54 54
63 63 63 63 63 63 63 63 63 62 61 59 57 55 56 56 55 58 58 59 58 56 55 54 55 53 42 41 42 44 53 54 54 53 53 53 53 52 52 53 53 54
62 63 62 62 63 63 63 63 61 60 59 57 54 54 55 56 56 57 56 56 55 55 53 52 52 46 40 40 40 41 45 54 54 53 53 53 53 53 53 53 53 52
62 62 62 62 62 63 62 60 60 59 58 57 55 53 52 52 53 54 54 54 55 55 53 52 52 43 41 41 40 40 40 46 55 53 53 53 53 52 52 52 52 51
60 61 61 62 62 61 60 60 59 59 58 57 55 54 53 51 50 51 52 53 54 55 54 54 53 44 41 41 41 39 38 42 54 52 52 52 52 52 52 52 51 51
59 60 60 61 62 60 59 59 59 58 57 56 56 55 55 53 52 51 50 51 52 54 53 53 53 43 40 40 40 39 38 41 53 51 52 52 52 52 52 51 51 51
58 59 59 60 60 59 58 58 57 57 56 55 55 56 56 54 53 52 50 50 52 52 52 52 52 41 40 40 40 39 38 49 53 52 52 52 52 52 52 53 52 51
58 58 58 59 59 58 57 57 55 55 54 55 54 54 54 53 52 52 53 52 51 51 52 53 53 45 39 40 40 39 41 52 53 53 53 51 51 52 52 52 52 52
58 58 58 58 58 57 57 56 56 57 55 54 53 51 51 52 52 52 53 52 51 51 54 53 54 48 40 40 39 39 43 51 53 53 52 51 51 52 52 52 51 46
58 58 58 58 58 58 57 55 54 52 52 52 50 50 51 52 51 51 51 52 52 50 48 51 53 49 41 40 39 39 43 51 52 53 51 51 51 51 51 51 51 48
57 57 58 59 59 59 58 56 54 52 50 50 51 53 52 52 51 52 50 50 50 50 49 51 53 53 49 39 40 40 40 49 53 51 50 50 51 50 49 50 50 50

ECMWFNIL_sfc_temp_006.txt.gz
Temp
76 77 76 76 76 77 75 75 75 74 74 74 74 73 73 72 72 71 71 71 70 70 70 69 69 69 69 69 69 70 70 68 68 68 67 67 66 65 64 64 64 66
75 76 77 77 77 77 76 76 75 75 74 74 75 75 74 73 72 72 71 70 70 70 70 69 69 69 69 70 69 69 68 67 66 68 66 65 66 65 64 63 64 65
75 74 74 75 76 75 75 75 75 75 75 75 75 74 73 73 71 72 71 71 70 70 69 69 69 69 69 69 69 69 68 67 66 67 67 66 66 66 65 65 65 63
74 74 75 75 76 75 75 74 74 75 75 74 74 74 74 72 72 71 71 71 70 70 69 69 69 69 70 69 68 68 67 67 67 67 66 66 66 66 65 65 65 65
74 74 75 75 76 76 75 74 74 75 74 74 74 74 73 72 71 71 71 70 70 70 70 69 69 69 69 69 69 67 67 66 66 67 66 65 65 64 64 65 64 63
75 76 77 76 76 75 74 75 75 75 75 74 73 75 74 73 73 72 71 71 71 70 69 70 69 69 69 69 68 68 68 67 66 66 66 65 65 66 66 64 63 63
73 74 74 76 75 75 74 74 75 75 75 75 76 74 74 73 73 73 73 72 72 71 71 70 69 68 69 69 68 67 67 66 67 67 66 66 65 63 64 63 64 64
73 74 74 75 74 74 73 75 75 75 75 75 74 74 75 74 74 73 73 72 72 72 71 71 70 70 69 69 68 66 65 65 65 66 66 65 64 64 64 63 62 63
74 74 74 73 73 73 73 74 74 74 76 74 74 74 75 75 75 74 73 74 73 72 72 71 70 70 68 68 67 66 66 65 65 65 64 63 63 63 65 65 63 62
73 74 73 73 72 73 73 73 74 74 75 74 75 75 74 75 76 75 74 73 72 72 72 70 70 68 68 68 67 67 66 65 65 65 64 64 63 64 65 64 63 62
72 73 72 72 72 72 72 73 73 74 74 75 75 74 75 74 75 75 74 73 71 72 71 70 70 69 68 68 67 67 66 65 65 65 64 64 63 63 60 62 62 62
69 69 70 72 72 70 69 72 72 73 74 74 76 75 75 74 74 74 74 74 73 73 72 71 71 69 69 68 68 67 66 65 65 64 64 64 63 62 63 63 61 62
69 69 70 72 72 72 71 72 73 73 74 74 75 75 74 73 74 74 73 74 73 72 71 70 70 69 68 67 67 67 65 65 63 63 62 62 62 63 63 62 62 62
68 69 69 70 72 74 74 73 74 74 74 74 74 73 73 74 73 71 72 73 73 72 71 70 69 69 68 68 67 66 65 64 64 62 62 62 61 62 61 61 61 61
67 68 69 71 71 72 72 73 73 74 73 74 73 73 72 74 71 69 68 71 71 70 70 69 67 66 67 67 66 65 65 63 63 63 62 61 61 61 61 61 61 61
71 70 71 72 71 71 71 72 73 72 72 72 72 73 73 73 70 70 69 68 67 68 68 65 65 67 59 54 56 65 64 64 62 62 62 61 61 60 60 60 60 61
71 71 71 71 71 72 71 71 72 72 71 70 70 71 70 68 68 67 66 64 66 67 65 63 63 61 45 46 47 51 62 62 62 61 61 61 60 59 59 60 60 61
70 71 71 71 71 72 72 72 71 71 70 69 69 68 66 66 65 65 65 66 66 66 63 61 61 47 43 44 45 46 52 62 62 61 60 60 60 60 60 60 60 59
71 71 71 71 71 71 71 71 70 69 69 68 67 66 66 65 66 66 65 66 65 64 60 59 55 43 43 43 43 44 45 53 64 62 61 60 60 60 60 60 59 59
70 70 70 70 70 70 69 70 69 68 68 69 69 68 66 65 65 65 65 65 64 63 61 59 56 44 42 42 42 41 41 47 63 60 60 60 60 60 59 59 58 58
69 69 68 69 70 70 69 69 68 67 67 68 68 66 65 65 65 65 65 65 64 63 62 60 56 42 41 41 41 41 40 44 61 59 59 59 59 59 59 58 59 57
67 67 67 68 68 69 68 68 67 67 66 67 67 67 67 67 66 66 64 64 63 63 62 60 55 40 41 41 40 40 39 55 60 59 58 59 59 59 60 60 60 59
66 66 66 66 67 67 68 67 67 66 66 67 66 66 66 66 65 65 64 63 62 62 60 59 53 43 40 40 40 39 44 58 59 60 60 59 59 59 59 59 59 59
66 67 66 66 67 66 67 67 67 67 67 67 66 65 65 65 65 64 64 63 61 60 59 57 56 46 40 40 40 39 46 58 60 60 59 59 59 59 60 60 59 51
65 65 65 65 66 66 67 66 66 66 67 67 66 66 65 66 65 63 61 59 59 57 51 57 58 50 39 41 39 39 46 56 59 60 58 58 58 59 59 59 59 55
64 64 64 64 65 66 67 67 67 67 66 66 65 66 64 64 61 61 59 59 58 57 56 59 60 59 50 39 40 39 39 53 58 57 56 56 57 58 57 58 58 58

ECMWFNIL_sfc_temp_009.txt.gz
Temp
77 77 76 76 77 76 75 75 76 75 75 75 74 74 74 73 73 73 73 72 72 72 72 72 72 71 72 72 72 73 72 70 70 70 70 69 68 67 67 67 66 66
77 77 77 77 77 77 76 77 76 75 75 75 75 75 74 73 73 73 72 72 72 72 72 71 72 72 72 72 71 71 71 70 69 71 68 69 69 68 66 66 67 67
77 77 77 77 76 77 76 76 76 75 76 76 76 75 74 73 72 73 72 72 72 71 71 71 71 72 72 72 71 71 70 69 69 70 70 69 69 68 67 68 67 67
77 77 77 78 78 77 77 76 76 76 76 75 75 75 75 73 73 72 72 72 72 71 71 71 71 72 72 72 71 71 70 71 70 70 69 69 69 69 68 68 67 68
77 77 77 78 78 78 77 76 76 76 76 76 76 75 74 73 72 73 72 72 72 72 71 71 71 71 71 71 71 70 70 70 69 70 70 68 68 68 67 68 67 66
78 79 78 78 78 77 77 76 77 77 77 76 75 76 75 74 74 73 72 72 72 72 71 71 71 71 71 71 70 70 70 70 69 69 69 68 68 69 69 68 66 66
76 76 75 75 75 77 77 76 76 76 77 76 77 75 75 74 74 74 74 73 73 73 72 71 71 70 71 70 70 69 70 70 69 70 69 69 68 67 68 67 68 68
75 75 75 73 72 72 75 75 72 74 76 77 75 75 76 75 75 74 75 74 74 74 73 73 72 72 71 71 71 69 69 69 68 69 69 69 67 67 67 67 65 66
74 74 75 74 72 71 69 71 74 74 75 75 77 76 76 76 75 75 75 75 75 74 74 73 73 72 71 71 70 70 69 68 68 69 68 67 66 67 69 68 65 65
71 71 72 74 73 72 71 71 69 74 74 73 76 77 77 76 77 77 75 75 74 74 74 74 73 72 71 72 71 70 70 69 69 68 68 68 67 68 69 67 66 65
69 71 70 68 66 67 72 75 73 75 73 74 72 75 75 76 77 77 76 75 73 74 74 74 73 73 72 71 71 70 70 69 69 69 68 68 68 67 65 66 66 65
70 69 68 67 65 64 64 65 71 72 74 73 73 74 73 73 74 75 76 75 76 75 75 75 74 73 73 72 72 70 70 69 69 69 68 68 67 67 67 66 65 65
68 67 67 68 67 65 65 68 70 70 73 74 74 74 75 74 71 72 75 75 76 76 75 75 74 73 72 71 72 71 70 69 68 68 67 67 67 67 67 66 65 65
67 68 70 70 71 72 73 72 71 71 71 73 73 71 72 75 73 71 72 74 75 76 76 75 74 73 73 72 72 70 69 68 68 66 66 66 65 66 65 65 65 65
68 67 67 66 66 68 69 69 70 72 72 73 72 72 72 75 75 73 69 68 75 75 75 74 73 72 72 71 70 70 69 67 67 67 66 65 64 64 64 64 64 64
73 73 72 71 71 70 71 71 71 71 72 73 73 73 73 73 73 71 70 69 74 75 74 72 72 72 64 58 60 68 67 67 66 66 66 65 64 63 63 63 63 64
73 73 73 73 73 72 72 72 73 72 72 73 73 73 72 72 71 71 68 72 72 72 71 71 71 67 49 50 50 55 65 66 65 64 65 65 64 63 62 62 63 64
73 73 72 72 72 73 73 74 73 73 72 73 72 72 72 72 71 71 71 70 66 68 67 68 67 50 46 47 49 50 55 64 65 64 63 64 64 63 63 63 63 63
73 72 72 72 72 72 73 73 73 72 72 72 72 72 71 70 70 70 70 69 66 66 66 65 61 45 46 47 46 47 47 56 66 64 63 63 64 63 63 64 63 62
72 73 72 72 72 72 73 73 72 72 72 72 72 71 69 68 68 67 68 67 66 66 66 64 58 47 45 45 45 45 44 51 66 65 63 64 63 63 62 62 61 61
72 71 71 71 71 71 71 71 71 71 71 71 71 71 70 69 68 67 66 67 67 66 64 58 59 44 44 44 44 44 42 47 64 63 62 62 63 62 62 61 61 61
70 70 70 70 70 70 70 70 70 70 70 70 70 71 71 71 70 69 67 67 67 66 62 57 55 41 42 43 43 43 41 57 61 60 61 62 62 62 62 62 62 61
70 69 69 69 69 69 69 69 69 70 70 71 69 69 69 69 69 69 69 68 67 65 60 56 53 44 41 42 42 40 47 59 60 61 62 61 61 61 62 62 62 62
70 70 69 68 69 68 68 68 69 70 70 71 69 69 68 69 70 70 69 68 65 63 60 54 54 46 41 41 41 41 49 60 62 62 61 62 62 62 62 62 62 56
70 69 68 68 67 68 68 67 68 69 70 70 70 70 69 70 70 69 68 67 66 61 54 55 55 47 40 41 40 41 50 60 61 62 61 60 61 61 62 62 62 58
69 68 68 67 67 67 68 67 68 69 69 69 69 70 70 70 69 68 66 64 63 60 58 58 54 50 45 40 41 40 43 55 56 56 57 58 59 60 60 60 61 61

ECMWFNIL_sfc_temp_012.txt.gz
Temp
71 71 70 70 70 70 69 69 69 69 68 68 66 67 67 66 67 67 67 67 66 66 66 66 65 66 67 66 65 66 65 64 64 64 63 62 61 61 62 61 61 61
71 71 71 71 70 70 70 70 69 69 69 68 68 67 67 67 67 67 66 66 66 66 66 66 66 66 66 65 65 64 64 63 63 67 63 63 62 62 61 61 61 62
71 71 70 70 69 70 70 70 70 69 70 69 69 68 68 67 66 67 66 66 66 65 65 66 66 67 66 65 65 65 64 63 63 64 63 63 62 61 62 62 62 62
71 71 71 71 71 71 70 70 70 70 70 70 69 69 69 68 67 66 66 67 65 65 65 65 65 66 66 65 65 64 64 64 64 63 62 63 63 62 61 62 61 61
72 72 72 72 72 72 71 71 70 70 69 69 70 69 68 67 66 67 66 66 66 65 65 65 65 65 65 64 65 63 64 63 63 63 62 62 62 62 62 61 61 61
73 74 74 73 72 71 71 71 71 70 70 69 69 70 68 68 67 67 67 66 66 66 66 65 65 65 65 64 64 64 63 63 63 63 64 62 62 62 65 62 61 60
72 72 72 72 72 70 70 70 70 70 70 70 70 69 69 68 68 68 68 67 68 67 67 65 65 64 64 64 63 63 63 63 64 64 64 63 62 62 64 63 63 62
71 71 71 71 70 69 70 70 70 69 71 71 69 69 70 70 70 69 68 68 68 68 67 67 66 66 65 64 64 63 62 64 63 63 62 63 61 62 61 63 61 61
70 69 70 70 69 69 69 68 67 68 70 70 71 70 70 70 70 69 69 69 69 68 68 67 67 67 65 65 64 64 64 63 63 62 61 61 61 61 63 63 60 59
62 63 67 70 69 69 69 67 67 67 69 68 67 66 68 68 70 71 70 69 68 69 69 68 67 67 66 66 66 65 64 63 63 62 62 61 61 62 63 62 60 59
61 62 61 66 66 66 64 64 65 65 64 64 62 62 63 64 68 71 70 70 68 69 69 69 68 68 67 66 65 65 65 64 63 63 62 62 62 62 63 61 60 59
63 64 65 65 66 65 64 62 61 61 61 61 63 62 61 63 65 69 71 70 70 70 70 70 69 68 68 67 67 65 64 63 63 62 62 62 62 62 61 60 60 60
62 62 64 64 63 63 63 62 61 61 62 62 61 61 61 62 65 68 69 70 71 71 70 70 70 70 68 66 67 67 65 64 63 62 62 61 62 62 62 60 60 60
64 64 65 65 65 64 64 63 62 61 61 62 61 60 60 60 61 61 60 60 63 67 70 69 69 69 69 68 68 66 64 63 63 61 61 61 61 61 61 60 59 60
64 65 65 65 66 67 66 65 64 63 62 61 60 60 61 61 62 62 61 62 64 65 66 65 66 66 68 67 67 66 65 63 63 63 61 61 60 59 59 59 59 59
67 66 66 66 66 66 66 66 66 66 66 64 63 62 63 63 63 61 62 61 63 64 61 59 59 61 59 58 60 66 64 65 63 61 61 60 59 58 58 58 58 57
69 69 69 68 68 67 67 68 68 68 67 68 67 66 66 65 65 63 62 62 64 61 61 60 60 60 54 51 51 55 64 62 61 60 60 59 58 57 57 57 57 59
68 69 69 68 68 69 69 70 69 69 68 67 66 66 67 67 66 65 64 64 63 62 60 58 59 54 48 48 50 51 55 62 61 60 59 58 58 58 58 57 57 57
69 68 68 68 68 68 68 68 68 67 67 66 66 67 66 66 66 66 65 65 62 61 59 59 58 45 45 47 48 49 51 56 61 61 60 58 58 57 57 57 57 56
69 69 68 68 68 68 67 65 65 65 66 67 67 67 65 64 65 64 64 64 63 62 60 60 58 47 44 45 46 46 48 53 62 60 59 59 58 58 57 58 57 56
69 68 66 66 66 66 65 64 64 64 65 65 65 65 64 63 63 62 62 63 62 62 60 57 57 45 44 44 45 45 47 51 60 60 60 59 59 59 58 58 57 57
68 66 66 66 66 65 64 64 63 63 63 64 64 64 64 64 64 63 62 62 63 62 59 56 54 43 43 43 44 44 47 56 58 57 58 58 58 59 58 57 56 55
67 67 65 65 65 64 64 63 63 63 62 64 63 63 63 63 62 63 63 62 62 62 57 54 49 43 42 43 43 45 50 56 57 57 56 56 56 57 56 56 57 57
67 67 65 64 64 63 63 63 63 63 62 63 62 62 62 62 63 63 63 63 62 60 56 53 49 44 42 43 44 46 50 56 56 55 55 56 56 56 57 57 58 56
66 66 65 64 63 62 62 62 62 61 62 62 62 63 62 63 64 62 62 63 59 56 52 52 48 44 42 43 43 44 50 54 55 55 55 55 55 55 56 56 57 55
65 64 63 63 63 62 62 62 63 62 61 61 61 64 63 63 63 63 61 56 54 55 53 51 48 46 44 42 43 41 41 49 51 51 52 53 53 54 55 55 55 50

ECMWFNIL_sfc_temp_015.txt.gz
Temp
64 63 62 62 61 62 61 61 61 61 60 60 59 58 58 59 58 58 59 59 58 57 58 58 57 59 60 59 58 60 58 56 56 56 56 55 54 54 56 55 54 53
63 63 63 62 61 61 61 62 62 62 61 60 60 59 60 60 58 59 59 58 58 57 57 58 58 57 58 59 58 58 57 57 57 60 56 55 55 54 54 54 54 53
62 63 63 62 62 61 62 61 62 62 62 61 61 61 61 60 59 59 59 58 57 57 57 57 58 57 57 57 57 57 57 55 55 56 55 55 54 53 54 53 53 54
62 62 63 63 62 62 61 62 61 62 62 61 61 62 63 62 60 59 60 61 57 57 56 57 57 57 57 57 57 56 56 56 56 55 55 55 55 54 54 54 53 54
63 62 62 62 63 64 62 62 62 61 62 62 62 62 62 61 59 60 60 58 58 57 57 57 57 57 57 56 56 56 55 56 56 55 55 54 55 55 56 55 54 54
64 64 63 64 62 64 62 62 63 61 62 62 62 62 62 61 60 60 59 58 58 58 57 56 57 57 56 56 55 56 55 57 56 55 55 54 56 56 59 55 54 55
60 60 62 62 62 64 62 61 63 62 62 63 62 61 62 62 61 61 60 60 58 59 59 56 56 56 56 56 55 56 55 55 56 55 55 54 55 55 57 55 55 55
60 59 60 60 60 61 62 60 61 60 61 62 62 62 63 63 62 61 61 61 59 59 58 58 57 56 55 56 55 55 55 57 57 55 54 55 54 54 56 57 54 54
60 58 59 59 60 60 60 61 60 60 60 60 59 60 61 63 62 61 61 61 60 59 59 58 58 57 56 56 55 54 56 54 56 55 53 53 54 54 55 55 55 55
58 58 58 58 57 58 61 60 61 60 59 59 58 58 60 59 60 61 61 61 61 59 59 59 59 59 58 58 58 56 56 55 55 54 53 53 55 54 55 54 54 53
58 58 58 58 59 58 59 60 60 60 59 59 57 57 58 58 59 60 60 60 60 60 60 60 60 60 59 59 58 57 57 56 56 55 54 54 55 55 56 56 54 54
57 58 58 59 59 59 60 60 60 60 59 58 59 58 56 57 58 60 61 59 58 57 59 60 61 61 61 60 60 59 58 57 57 56 56 55 55 55 54 55 53 53
55 57 58 59 59 60 59 58 58 57 58 58 58 59 57 57 58 58 57 58 58 58 59 60 61 61 61 61 61 60 59 58 58 57 56 56 56 55 54 54 53 52
57 58 59 59 58 58 58 58 57 58 58 58 57 57 57 58 57 58 56 58 59 59 60 59 58 58 59 60 62 62 60 58 58 58 57 56 55 54 54 53 53 52
57 57 57 57 58 58 58 57 57 56 56 57 56 57 57 57 57 57 57 57 58 58 58 58 57 58 59 59 60 61 60 59 58 58 57 56 54 54 53 53 52 52
57 55 56 56 56 56 57 57 57 56 56 56 56 57 56 55 55 55 55 55 56 57 57 57 57 58 57 54 55 60 59 61 58 58 57 55 55 53 52 53 53 51
56 56 56 55 56 57 57 58 58 58 57 57 57 57 57 56 56 56 55 56 56 56 56 57 58 58 51 48 48 50 58 59 58 57 57 56 55 54 53 53 51 51
56 57 55 56 55 56 56 56 56 57 57 58 58 57 57 57 56 57 57 55 56 55 56 57 57 54 48 47 48 47 50 58 58 58 57 56 55 55 53 53 53 52
56 57 55 54 56 57 56 55 55 57 57 55 56 57 57 57 57 56 56 56 55 55 56 56 55 51 46 47 46 46 46 54 57 58 57 55 55 54 54 54 53 53
58 54 54 53 55 56 56 55 55 57 58 57 57 56 54 55 56 56 57 56 57 57 56 54 53 50 45 45 45 45 44 51 56 56 55 54 56 56 56 54 52 52
55 53 53 53 52 51 51 52 53 51 53 52 56 57 56 54 53 53 55 55 55 55 54 52 55 49 43 44 43 44 45 49 55 55 55 53 52 53 52 52 52 52
53 51 52 52 52 52 53 53 51 51 53 52 52 52 53 55 53 52 52 52 53 54 51 50 49 42 42 42 43 44 47 53 55 54 53 52 52 51 51 50 51 52
52 52 52 53 53 53 54 53 53 53 51 50 51 49 51 50 53 52 51 53 51 51 51 50 45 41 41 43 44 45 47 52 52 51 50 50 50 51 51 52 54 53
52 53 52 53 52 53 52 51 52 52 52 51 54 51 50 50 50 51 51 51 51 51 51 50 43 41 42 42 43 45 47 50 50 50 49 48 50 50 50 52 53 53
55 53 51 51 52 52 52 52 51 51 50 51 50 50 49 49 50 53 50 45 47 51 51 47 42 42 41 42 43 44 46 48 48 48 47 48 50 51 52 50 43 43
54 55 53 53 53 50 49 50 49 52 52 51 49 49 49 49 48 46 44 45 44 46 47 45 43 41 42 42 43 43 44 47 48 46 46 46 47 48 49 47 44 42

ECMWFNIL_sfc_temp_021.txt.gz
Temp
60 59 59 58 58 57 55 53 52 52 52 51 51 51 51 52 52 52 51 51 52 52 52 52 52 53 54 52 52 53 53 52 51 50 51 51 49 51 51 49 48 50
60 60 60 59 57 57 55 54 53 53 52 51 51 52 51 52 52 52 52 52 52 51 51 52 52 52 52 52 51 52 51 52 52 53 52 51 49 50 49 48 48 47
59 59 59 58 58 57 56 54 53 53 53 53 52 52 52 52 51 52 52 51 52 51 51 51 51 51 51 50 50 52 52 50 51 49 52 50 49 50 48 48 48 49
59 60 59 59 59 58 56 55 53 53 53 53 53 53 53 54 52 51 52 56 51 51 50 51 52 50 51 51 51 50 51 51 49 49 50 49 49 49 48 49 49 48
59 59 59 59 59 59 58 57 55 54 53 54 53 53 54 53 53 52 52 52 53 51 51 52 51 52 51 51 51 51 50 51 48 49 50 49 49 50 50 51 48 48
58 59 60 60 59 59 58 58 58 56 54 53 54 54 52 52 51 52 52 51 52 53 52 52 52 52 51 51 51 52 52 52 49 49 50 49 50 49 51 49 48 48
58 58 58 59 57 57 58 58 58 58 58 57 55 54 53 53 53 52 52 51 51 52 51 51 51 51 51 51 51 50 50 51 49 50 51 48 49 50 49 48 48 48
58 59 59 59 58 57 58 59 59 58 58 56 55 56 54 55 54 53 52 52 51 52 52 52 52 52 50 51 51 50 49 51 51 49 50 49 48 49 48 49 47 47
59 59 58 58 58 57 59 59 57 57 58 57 56 55 54 54 55 55 55 53 52 52 52 52 52 51 50 50 51 50 50 49 51 50 50 49 49 49 48 47 47 48
57 57 57 57 57 57 58 58 57 57 58 58 58 56 55 54 54 55 55 55 54 53 53 53 52 52 52 51 51 50 51 51 50 50 50 50 51 49 48 49 49 47
55 56 57 57 58 57 58 58 57 57 58 59 58 57 57 56 56 55 55 56 56 56 55 54 54 53 53 52 52 51 52 51 51 50 49 49 50 50 52 51 50 50
54 54 56 57 57 57 57 57 58 59 59 58 57 57 56 57 57 56 57 57 57 57 57 56 54 54 54 54 54 53 52 51 51 51 51 50 50 50 51 51 51 50
54 54 53 53 54 55 56 56 57 57 58 57 55 56 56 55 55 55 55 55 55 55 55 55 54 54 54 55 55 53 52 52 52 51 51 51 51 52 52 51 51 50
54 53 52 52 53 54 55 56 55 54 54 54 55 56 56 56 55 56 55 55 56 56 56 56 56 55 55 56 55 54 53 52 53 53 52 52 52 53 52 52 51 51
53 52 53 54 55 56 55 55 55 55 54 54 55 54 54 54 54 54 54 55 55 55 56 56 55 56 57 57 56 55 54 54 54 54 54 53 52 52 52 52 51 51
53 52 53 54 54 55 56 55 55 54 53 54 55 56 55 54 54 55 55 55 55 55 55 55 55 56 56 53 53 56 55 56 55 55 54 53 53 52 51 51 52 51
52 53 53 54 55 55 55 55 54 54 54 54 54 54 53 54 54 55 54 54 55 55 55 54 54 56 51 47 46 48 55 54 54 54 54 54 54 53 52 52 52 53
52 53 53 54 54 54 54 53 53 53 53 53 51 51 51 53 52 53 54 53 53 53 53 53 53 51 47 46 45 44 47 53 54 54 54 54 54 54 54 54 53 52
49 50 51 50 51 52 50 49 51 51 50 50 51 52 50 51 53 51 52 51 52 53 52 53 52 49 46 45 44 44 43 47 53 53 53 53 53 53 53 52 51 50
48 49 48 48 47 47 47 47 47 50 48 48 48 48 51 51 50 51 51 50 51 51 51 50 50 48 45 44 44 43 42 43 50 51 51 51 52 52 52 51 51 52
47 47 47 45 45 45 45 44 45 44 46 44 46 46 47 47 47 47 48 48 48 48 47 48 50 47 43 42 41 41 41 42 46 48 49 49 49 49 49 49 50 52
45 44 44 44 44 43 44 44 44 45 46 45 43 42 41 42 42 43 44 44 44 43 44 46 45 43 40 40 40 41 41 43 45 46 45 45 45 45 46 48 49 50
44 46 45 44 44 45 44 43 44 46 44 42 42 40 42 43 43 45 44 44 43 44 44 45 43 41 41 41 41 41 42 43 43 44 44 43 42 43 44 45 46 48
45 46 47 45 44 47 45 44 43 42 41 43 45 42 42 41 41 41 39 39 41 42 43 43 42 41 42 40 40 40 44 44 44 44 43 43 41 40 40 42 45 50
43 45 46 45 46 45 44 44 44 46 43 40 40 41 40 39 41 42 38 37 37 40 47 43 38 39 42 39 39 41 44 44 45 44 42 40 40 38 38 39 40 44
44 45 43 43 44 44 43 43 42 43 44 43 39 40 40 38 38 38 38 36 36 36 38 37 37 37 39 41 41 42 44 45 45 45 42 39 38 40 39 38 39 40

ECMWFNIL_sfc_temp_024.txt.gz
Temp
58 58 57 57 57 58 54 53 51 51 50 49 51 51 50 52 52 51 51 52 52 51 52 52 53 53 54 53 53 54 53 52 52 52 52 52 52 53 53 52 52 53
59 59 59 59 58 57 55 53 51 52 51 50 50 50 51 51 51 52 51 51 52 51 51 51 52 52 52 52 52 53 52 52 53 54 52 52 51 51 51 51 51 51
58 59 59 59 59 56 54 53 52 52 53 51 51 51 53 53 51 50 50 51 51 50 51 51 51 51 51 51 52 53 52 52 52 52 53 51 51 51 50 50 51 52
59 59 58 58 58 56 55 54 53 53 52 53 52 53 53 55 52 51 51 54 50 50 50 51 51 51 51 50 51 51 51 51 51 52 52 51 51 51 50 51 51 51
58 57 57 58 57 57 56 56 55 54 53 53 52 52 54 53 52 52 52 51 51 51 51 51 50 51 51 51 51 51 52 51 50 52 52 51 51 52 52 53 52 51
56 57 58 59 58 57 57 57 57 56 55 53 53 54 52 51 51 52 52 52 51 51 51 51 52 51 51 51 51 51 51 51 51 51 52 52 51 52 53 51 52 52
56 56 57 57 56 56 57 56 55 56 56 57 55 54 52 52 52 52 51 51 51 53 51 52 52 51 51 51 51 51 51 51 50 52 52 51 52 51 51 51 52 52
56 57 57 57 57 56 56 56 57 57 56 56 56 54 53 53 52 52 52 51 52 52 51 51 51 51 51 51 51 51 51 52 50 51 51 51 51 51 51 52 51 52
56 56 56 56 56 56 56 58 57 56 56 56 55 54 54 54 54 53 53 52 52 52 52 51 52 52 51 52 51 52 52 51 51 51 51 51 52 51 51 50 51 52
55 55 56 56 56 56 57 57 57 55 55 56 56 56 56 56 56 55 54 53 53 53 52 53 52 52 52 52 53 52 53 52 52 52 51 51 52 51 51 51 51 51
54 55 55 55 56 56 56 56 56 54 54 56 55 56 57 56 56 56 55 54 54 55 55 53 53 53 53 53 53 52 53 53 52 52 52 52 52 52 52 52 51 53
54 54 54 55 56 56 56 57 56 55 55 55 56 57 56 56 56 55 56 55 55 55 55 54 53 53 54 54 54 53 53 53 53 53 53 53 53 52 53 52 53 52
53 54 54 55 55 55 55 56 56 56 56 56 56 57 56 55 55 55 55 55 54 54 55 55 55 54 54 54 54 54 53 54 53 53 53 53 53 53 53 53 53 53
53 53 54 53 54 54 54 54 54 55 55 55 56 56 56 56 56 56 55 55 55 55 56 56 56 55 55 55 55 55 54 53 53 53 54 53 53 53 53 53 53 53
52 52 52 52 53 53 53 53 53 53 54 54 55 54 55 55 55 55 55 54 55 55 56 55 55 55 56 56 55 55 55 54 54 54 54 54 54 54 53 53 53 53
52 52 52 52 52 53 53 53 53 53 53 53 55 54 54 53 55 56 55 55 54 54 55 55 55 55 55 52 52 56 55 56 54 55 55 54 54 53 53 52 53 53
51 52 51 52 52 52 52 53 53 54 53 53 54 54 54 54 53 54 53 53 54 54 54 53 55 56 50 47 46 47 55 55 55 54 54 54 53 53 53 53 53 54
51 51 51 52 52 53 52 53 52 52 52 52 52 51 52 53 52 54 53 53 53 53 53 53 53 51 47 46 45 44 47 54 54 54 54 54 54 54 54 54 54 53
51 51 52 51 52 53 52 51 52 52 51 51 51 52 53 54 54 52 51 52 52 52 52 53 53 49 46 45 44 43 42 46 53 53 53 54 53 54 54 54 54 53
50 50 50 50 50 50 50 50 50 51 50 51 51 51 52 51 50 50 51 51 51 52 52 51 52 48 44 43 42 41 40 43 51 51 51 52 53 53 54 53 53 54
49 49 49 48 47 47 47 48 49 47 48 48 49 50 50 50 49 49 49 49 49 50 50 50 51 46 43 41 40 40 40 41 48 49 50 50 50 50 51 52 52 52
45 45 47 46 46 45 46 45 44 45 45 45 45 45 45 47 47 48 47 48 47 47 47 49 46 40 39 39 39 38 39 45 46 47 47 48 48 48 49 49 50 51
45 45 44 44 43 44 44 43 44 44 44 44 45 44 45 45 45 44 43 43 43 44 45 44 42 40 39 40 39 38 42 45 46 45 45 44 43 43 44 47 48 49
45 46 46 45 45 46 45 45 44 45 46 45 47 44 45 45 43 41 39 40 42 41 42 41 42 40 41 39 40 38 43 46 46 45 43 42 42 41 42 44 48 49
46 46 47 47 47 47 47 47 47 48 45 43 44 45 45 43 43 41 38 38 38 41 45 41 40 41 41 39 39 39 44 45 46 45 43 41 41 40 40 41 42 44
47 47 47 48 47 45 46 46 45 44 44 44 43 46 44 41 41 40 39 37 37 38 40 39 40 40 40 40 40 39 42 45 46 46 43 41 41 42 41 41 42 43

ECMWFNIL_sfc_temp_027.txt.gz
Temp
68 68 66 67 67 66 65 65 65 65 64 66 68 67 67 65 66 65 65 66 65 66 65 65 65 65 65 65 65 68 68 65 65 66 66 66 66 65 65 66 66 67
67 67 68 68 67 64 65 65 65 67 66 66 67 67 66 66 65 66 66 65 66 65 65 65 65 65 65 66 65 66 67 65 64 66 65 65 65 65 64 64 65 66
66 65 66 66 65 64 64 65 65 66 67 66 66 67 66 66 66 66 66 66 66 65 65 65 65 65 65 65 65 66 66 65 64 65 66 65 65 65 65 65 66 66
66 66 66 66 65 64 64 64 64 65 65 65 66 66 67 66 67 66 66 66 67 66 65 66 65 66 66 66 66 66 65 65 65 65 65 65 65 66 65 66 65 66
66 66 66 66 65 65 64 64 63 64 64 64 64 65 66 66 67 67 67 66 67 67 66 66 66 66 66 66 67 66 66 66 65 67 66 65 65 65 65 66 65 64
66 67 67 67 66 65 65 66 66 65 64 63 64 67 67 67 68 68 67 66 67 67 66 67 66 66 67 67 67 66 66 67 66 67 67 66 66 66 67 66 66 65
64 64 65 67 66 66 67 67 66 65 65 66 66 65 67 66 66 67 68 68 68 68 68 67 67 66 67 67 67 66 66 66 67 68 67 67 66 65 66 67 67 67
65 66 66 67 66 65 66 67 67 66 65 65 64 64 65 67 69 67 68 68 68 68 68 68 68 68 67 68 68 66 65 65 66 67 67 66 66 66 66 66 66 67
65 66 66 66 66 66 66 67 66 66 66 65 65 64 64 66 68 67 67 67 67 67 68 67 67 67 66 67 67 67 67 66 65 66 66 66 66 66 68 67 66 66
65 65 65 65 66 67 66 67 67 66 66 67 67 66 63 63 66 68 67 67 67 67 67 67 67 66 66 67 67 67 67 67 66 66 66 67 67 67 68 66 67 65
64 65 65 65 65 67 66 67 66 65 64 66 66 65 64 62 63 66 67 68 66 67 67 67 67 67 67 66 65 66 66 66 66 67 66 67 67 67 64 67 66 66
64 64 64 65 66 66 66 67 66 65 64 64 66 66 66 66 65 66 67 66 68 69 69 68 68 68 68 68 67 66 65 65 66 65 66 66 66 66 67 67 66 67
64 64 65 65 65 66 66 67 66 65 66 66 66 67 67 66 66 66 66 66 67 68 68 68 67 67 67 66 67 67 66 66 64 65 64 65 65 66 66 67 67 67
64 64 65 65 65 66 66 66 66 65 66 67 67 66 66 67 66 66 65 66 67 67 67 67 67 67 67 67 67 67 66 65 65 65 65 65 65 65 65 65 65 66
63 64 64 65 64 65 64 65 65 66 66 66 65 66 65 66 65 64 64 66 66 64 65 66 65 65 66 66 66 65 65 64 64 65 64 65 65 66 65 65 65 65
64 63 64 64 64 64 65 65 66 65 65 65 65 66 66 66 65 63 63 65 64 64 65 64 63 63 59 52 56 63 63 64 63 63 65 65 65 65 65 64 65 64
64 63 63 63 64 64 64 65 65 65 65 66 65 64 64 63 63 62 62 63 65 64 64 64 63 62 50 46 45 48 60 62 61 61 64 64 64 64 65 65 65 66
63 63 63 63 63 64 64 65 64 63 63 64 63 62 63 64 63 65 63 62 62 62 62 63 63 54 46 45 44 44 48 59 62 63 63 64 64 65 65 65 65 65
64 63 63 63 64 64 64 63 63 62 62 61 60 60 60 62 64 63 62 60 60 60 60 61 61 51 45 45 43 43 41 50 63 63 62 63 64 64 64 65 65 64
62 63 63 63 62 63 63 63 62 62 61 62 61 60 59 60 60 58 59 60 61 62 62 62 61 49 44 44 43 41 40 45 63 63 63 64 64 64 64 64 64 63
61 61 61 62 62 62 62 62 62 61 61 61 58 59 59 60 60 60 59 60 61 61 62 61 61 42 41 40 40 40 39 42 59 62 63 63 63 64 63 63 64 62
62 60 60 60 60 60 61 61 61 60 60 59 59 60 61 61 60 60 59 59 59 59 59 60 55 39 39 39 39 39 39 53 60 61 63 63 61 60 61 62 62 62
58 58 59 59 60 60 61 61 61 60 61 61 60 60 60 60 60 59 59 58 54 54 57 57 55 43 38 40 39 37 45 61 61 63 62 60 58 59 60 60 60 61
57 55 55 56 57 59 61 60 60 61 60 59 61 60 60 61 60 59 58 57 55 54 56 59 59 46 39 40 38 38 49 62 64 63 60 59 57 57 59 59 54 48
60 59 57 56 55 55 55 57 59 60 59 59 62 63 61 60 60 59 56 56 55 54 47 55 58 49 39 39 37 38 49 63 64 63 59 58 58 56 57 58 55 50
61 59 58 57 57 56 55 57 59 59 58 58 60 63 61 60 59 59 57 55 53 54 53 55 57 55 48 38 40 38 43 61 64 62 59 57 58 58 57 56 56 54

ECMWFNIL_sfc_temp_030.txt.gz
Temp
76 76 76 76 76 76 75 74 75 74 74 75 74 74 74 73 74 73 73 73 73 73 73 73 73 73 74 74 74 76 76 73 74 74 74 74 73 73 72 73 73 74
75 76 77 76 76 75 75 74 74 74 74 74 75 75 74 74 74 74 73 73 73 73 73 73 74 74 74 75 74 74 74 73 72 75 72 72 73 72 71 71 72 74
75 75 75 75 74 73 73 73 74 74 74 74 74 74 74 74 73 74 74 74 73 73 73 73 73 73 73 74 74 74 73 72 72 73 73 72 72 72 72 73 72 72
75 75 75 74 73 72 73 73 74 74 74 73 74 74 74 74 74 73 73 74 73 73 73 73 73 74 75 74 73 74 73 73 73 73 72 72 72 73 72 73 73 74
73 74 74 74 74 74 73 73 73 74 73 74 74 74 74 73 73 74 74 74 74 74 73 73 73 73 73 73 74 73 72 73 72 73 73 72 72 72 72 72 71 71
73 75 75 73 73 73 72 73 74 74 73 72 73 75 74 74 75 74 74 74 74 74 73 74 73 73 74 73 73 73 73 73 73 73 73 72 72 73 74 73 72 72
72 73 72 73 72 72 73 74 74 74 74 73 74 74 74 74 75 75 75 75 75 75 75 74 73 73 73 73 74 73 73 73 73 74 74 73 73 71 74 73 74 73
72 73 73 74 72 72 74 75 74 74 74 74 73 74 75 75 76 75 76 76 76 76 75 76 75 75 74 74 74 72 72 72 73 74 74 73 72 73 73 73 72 73
73 73 72 72 71 72 74 75 75 74 75 74 74 74 75 76 75 75 76 76 76 75 76 76 75 75 74 74 73 73 73 72 72 73 72 71 71 72 74 74 72 72
72 73 72 72 72 73 73 75 75 74 75 74 75 75 75 75 76 76 76 76 75 76 76 75 75 74 74 75 75 74 74 73 73 72 73 73 73 74 75 73 72 71
71 71 71 71 72 73 73 74 75 75 75 76 75 75 75 75 75 76 75 76 74 76 76 75 75 75 74 74 74 74 74 73 73 74 73 73 73 73 70 73 72 71
71 71 70 70 71 73 73 74 74 75 75 75 76 76 75 74 75 75 76 76 77 77 77 77 77 76 76 75 75 74 73 73 73 73 73 74 73 73 73 73 72 72
69 70 70 71 71 73 74 75 75 74 75 75 76 76 75 74 75 75 74 76 77 77 76 76 76 76 75 75 75 75 73 73 72 72 72 72 73 73 74 73 73 73
69 69 71 71 72 73 73 73 74 74 74 76 75 75 75 75 75 74 74 74 75 76 76 76 75 75 76 75 76 74 73 73 72 71 72 72 71 73 73 73 73 73
69 70 71 72 72 72 73 73 73 73 74 75 74 74 74 76 75 74 73 74 74 73 74 74 74 74 75 74 74 73 74 72 72 72 71 71 72 72 72 72 73 73
70 70 72 72 72 72 72 72 73 73 73 73 74 74 72 73 74 74 74 73 73 73 72 71 72 73 64 55 59 72 72 73 70 70 71 71 71 71 71 72 72 72
70 70 71 71 71 72 72 72 73 72 72 73 73 73 72 71 71 72 72 73 73 72 71 71 70 69 48 49 48 51 67 71 71 70 69 69 70 70 70 70 71 73
71 71 70 70 71 71 71 72 71 71 71 72 72 70 70 70 68 71 72 72 72 73 71 71 72 55 45 45 44 45 52 68 70 70 69 69 70 70 71 71 71 71
71 71 71 71 71 71 70 70 71 69 70 70 69 69 69 68 69 69 69 70 70 70 70 69 72 48 44 42 43 43 43 54 71 70 69 69 69 69 69 70 70 69
72 72 71 71 70 70 70 71 70 70 69 68 68 66 66 67 67 67 69 69 69 69 68 69 71 49 42 42 43 42 41 48 67 66 67 68 69 69 69 69 69 69
72 72 71 71 71 71 70 70 69 69 69 68 67 65 64 64 65 65 66 68 69 70 69 68 69 43 42 41 41 41 39 44 63 65 64 65 70 70 70 70 70 69
70 70 70 71 71 71 70 70 69 69 68 68 67 65 65 65 65 68 67 67 68 68 68 68 63 39 42 40 41 41 39 58 66 66 66 70 69 69 69 70 70 70
70 69 69 69 69 69 70 69 69 69 68 69 67 67 67 67 68 68 69 68 68 68 67 66 66 46 39 39 40 39 46 66 68 69 71 69 68 68 69 68 68 69
70 70 70 69 69 69 69 69 69 70 70 70 68 68 67 68 69 68 68 67 66 65 68 66 67 49 38 40 39 39 49 68 71 71 70 68 68 68 69 66 59 46
69 69 69 69 69 69 68 68 68 69 71 70 70 70 68 67 66 66 65 67 67 67 56 63 66 51 37 40 38 40 47 67 71 73 69 68 68 67 67 66 63 56
68 68 68 68 69 68 68 68 70 70 69 69 70 71 70 69 67 66 66 67 67 67 66 68 67 64 51 37 40 39 40 60 72 71 69 67 68 68 66 65 64 61

ECMWFNIL_sfc_temp_036.txt.gz
Temp
72 71 71 71 72 73 72 72 72 71 72 72 70 70 70 69 70 69 69 69 69 69 69 69 70 70 71 69 69 71 70 69 69 69 69 68 67 67 68 69 67 67
72 72 71 72 72 72 72 71 71 71 71 71 70 69 69 69 69 69 68 69 69 69 69 69 70 70 69 69 68 68 68 68 68 72 68 67 67 67 66 66 66 67
72 71 71 71 70 71 71 72 71 70 72 71 70 69 69 69 68 69 68 68 68 69 69 69 68 68 69 68 68 67 67 66 66 67 67 67 66 65 67 68 66 66
72 72 72 72 71 71 71 71 71 71 71 70 69 70 70 70 69 68 68 69 68 68 68 69 68 68 69 69 67 67 67 66 67 66 66 66 66 67 66 67 67 67
71 72 72 72 71 71 71 71 70 71 70 70 70 69 69 68 68 68 67 67 67 68 67 68 68 69 68 67 67 66 66 66 66 66 65 65 66 66 68 67 66 66
72 73 73 72 71 70 70 70 71 71 70 69 69 70 69 69 69 69 68 67 68 68 68 67 68 68 68 67 67 66 66 67 67 67 67 66 67 68 71 68 65 65
71 71 71 71 71 71 70 70 70 70 70 70 70 69 69 69 69 69 70 68 69 69 69 67 67 67 68 67 67 66 66 67 67 68 68 67 66 66 69 68 68 66
70 71 71 71 70 70 70 70 70 70 70 70 69 70 70 71 71 69 69 69 69 70 69 69 69 68 68 67 67 66 68 70 68 67 66 67 66 67 66 69 66 65
70 70 70 69 69 69 69 70 70 70 71 69 70 69 71 70 70 69 70 70 70 69 69 69 69 69 67 67 67 67 68 68 67 66 66 65 65 66 68 67 66 64
71 70 69 69 68 69 69 70 71 70 70 70 71 70 71 70 70 71 70 69 69 69 69 69 69 68 68 69 69 68 68 68 66 66 68 68 67 67 69 66 65 64
69 70 69 69 68 69 69 70 71 70 70 71 70 70 71 70 70 71 70 70 69 71 70 69 69 69 69 68 68 68 68 67 67 68 68 69 69 67 68 66 65 65
67 67 69 69 70 69 70 71 70 71 70 70 71 70 70 71 70 70 71 71 72 72 71 71 71 69 70 69 69 68 67 67 67 67 68 69 69 69 68 67 66 65
64 63 62 67 69 70 70 71 71 71 71 72 71 71 70 70 70 70 70 71 72 71 71 71 71 71 69 69 70 70 68 68 67 66 67 68 67 69 68 68 67 68
64 64 65 67 69 70 70 69 70 71 71 72 72 71 70 70 70 70 69 70 70 70 71 70 70 70 70 70 70 69 68 67 67 66 66 67 66 67 67 67 67 68
66 67 69 68 69 70 68 68 66 67 67 65 67 71 71 71 71 71 70 70 71 70 71 70 70 70 71 69 68 68 69 67 67 68 66 66 66 67 67 67 67 68
69 67 69 69 68 68 67 66 65 65 64 64 65 67 68 69 70 71 70 69 69 70 70 70 69 70 68 63 64 68 68 71 68 67 67 66 65 65 66 67 66 63
69 68 68 68 68 68 66 66 65 64 64 64 65 66 66 67 68 69 69 69 69 69 69 70 71 68 52 54 54 55 67 66 66 66 67 66 66 65 65 63 62 60
69 70 68 67 67 67 67 66 65 65 66 65 65 64 65 65 64 67 68 67 67 67 67 68 65 50 47 51 51 49 48 62 66 66 66 66 65 65 61 59 58 57
70 70 69 68 68 68 67 66 66 65 64 63 62 62 63 63 63 65 66 68 68 67 66 66 61 55 49 47 50 49 43 52 67 66 65 64 65 61 58 58 57 57
71 70 68 68 68 67 66 64 63 62 62 62 61 62 62 63 64 64 65 65 65 65 66 64 60 55 49 47 47 45 43 49 64 65 64 65 61 58 59 58 58 57
71 70 69 70 70 69 68 68 64 62 62 60 59 61 63 63 63 63 64 64 65 66 65 65 61 51 48 45 44 44 43 46 61 63 63 63 57 57 57 58 58 58
68 68 68 68 69 69 68 69 68 66 66 65 65 65 65 65 64 64 64 64 65 66 65 63 60 47 46 44 44 43 43 54 60 61 61 62 61 59 59 59 60 60
67 66 66 67 67 67 67 67 67 67 66 66 65 64 63 64 64 64 65 65 65 65 64 64 61 49 43 43 43 42 46 59 60 61 62 62 61 60 61 62 61 62
66 66 65 65 65 66 66 65 65 66 66 67 65 64 64 65 65 65 65 65 64 64 65 64 63 53 44 44 43 41 49 60 61 61 61 62 61 62 61 59 53 51
64 64 64 63 64 64 64 64 64 65 65 66 66 66 65 66 66 66 65 65 65 65 62 63 59 49 41 42 42 41 47 59 62 62 61 60 61 59 60 58 54 49
63 63 62 62 63 63 63 63 64 64 64 64 64 67 66 66 66 66 64 63 64 64 62 59 58 58 48 40 41 40 43 57 62 61 59 57 60 60 60 58 55 52

ECMWFNIL_sfc_temp_039.txt.gz
Temp
67 67 66 65 64 65 65 64 63 64 63 63 63 62 62 63 63 62 63 63 62 62 63 62 61 62 64 63 63 64 62 61 61 61 62 61 60 61 62 61 59 60
67 66 66 66 64 65 64 64 63 63 63 63 63 62 63 62 62 63 61 62 63 62 62 61 60 62 62 63 63 62 61 61 61 65 62 61 60 61 61 61 60 60
66 66 66 65 65 64 64 64 64 64 64 64 63 63 63 62 62 61 60 60 60 60 60 61 60 60 61 61 61 61 60 59 59 59 60 60 58 59 57 59 60 60
65 66 65 65 65 65 64 65 64 64 64 63 63 64 64 64 60 59 61 63 60 61 59 60 59 60 61 61 61 59 60 59 59 58 58 59 61 61 61 61 61 61
65 65 64 65 65 65 65 65 64 64 64 63 63 63 63 60 60 61 61 60 59 58 59 59 59 59 59 60 60 59 58 58 58 59 59 58 59 61 61 62 60 59
65 65 66 65 65 65 64 64 64 64 64 63 63 62 61 61 60 60 60 59 59 59 60 59 58 59 60 59 59 58 57 60 58 58 59 58 60 62 65 60 58 58
64 65 65 65 65 65 64 63 63 64 64 64 63 62 62 60 60 60 60 60 59 59 59 58 58 59 59 57 57 57 58 59 58 59 59 59 59 59 60 60 60 58
64 65 65 65 65 64 64 63 63 63 63 63 62 63 62 61 61 61 59 60 60 59 58 58 58 59 57 58 59 58 58 61 60 60 59 57 57 59 59 61 58 59
62 64 64 65 64 62 63 63 62 63 64 63 62 63 62 62 62 61 61 61 60 60 60 58 60 58 57 60 58 57 58 59 60 59 58 59 60 59 60 58 58 57
61 61 64 65 63 62 62 62 62 62 63 63 63 63 62 61 63 63 61 60 61 61 60 60 58 59 60 59 59 57 59 60 58 59 60 60 60 60 60 59 57 57
60 60 60 62 64 63 63 63 63 63 62 63 62 63 60 62 64 62 61 61 61 61 60 60 60 61 61 60 59 57 59 59 58 58 58 59 60 61 62 60 58 57
59 60 61 61 64 64 63 63 64 64 63 62 63 63 59 62 63 61 62 62 62 62 61 61 61 61 61 60 60 58 59 59 58 57 58 59 60 60 60 60 59 57
58 59 59 59 60 61 63 63 64 64 64 63 63 62 60 61 62 61 60 62 62 62 62 62 62 61 60 60 60 59 60 59 59 58 57 59 58 60 60 59 59 59
59 58 59 60 59 60 62 63 63 64 64 62 62 61 62 62 64 61 62 61 63 62 62 63 62 61 61 61 62 60 60 58 59 58 57 58 58 57 59 58 57 57
59 59 59 59 58 59 61 61 59 59 59 58 59 59 63 62 61 61 61 60 60 60 61 62 63 63 63 63 62 61 61 60 58 60 58 57 58 57 57 57 56 55
60 60 59 60 59 59 60 59 59 58 57 56 58 59 58 59 61 60 61 62 61 61 61 62 63 63 63 60 59 63 60 63 60 60 59 57 58 56 56 55 55 55
59 59 59 59 59 59 59 59 59 59 57 58 58 57 58 58 58 60 61 62 61 61 60 61 62 65 56 51 53 56 61 59 60 59 58 58 57 56 56 57 55 55
59 59 59 59 60 59 59 59 58 57 58 59 57 57 56 57 57 57 58 59 60 60 58 58 57 48 47 48 45 44 52 59 60 60 60 58 57 56 56 56 56 56
59 58 58 59 58 59 58 58 57 57 57 58 56 55 55 56 56 57 57 59 59 59 58 58 57 44 46 46 43 42 45 56 60 59 60 57 57 57 57 56 56 55
60 59 58 59 58 58 57 56 57 56 56 54 54 54 54 54 55 56 56 57 58 58 56 57 57 48 45 46 44 42 43 52 58 58 58 57 57 57 56 56 56 55
58 58 57 58 58 57 57 56 56 55 56 54 53 54 53 53 54 55 56 57 57 58 55 56 59 52 47 45 45 42 40 46 56 58 57 56 56 56 56 56 56 55
56 56 56 57 57 57 57 57 55 54 54 53 53 52 52 53 53 54 56 57 57 56 57 54 57 50 47 46 45 43 42 49 53 55 55 55 54 55 56 56 56 56
55 55 55 56 55 55 55 55 54 55 55 53 54 52 53 53 54 55 56 57 56 56 56 54 55 50 44 44 44 43 44 51 52 55 55 54 54 55 56 56 56 56
55 55 54 54 54 54 54 54 54 54 55 55 54 54 54 55 56 55 56 57 57 57 57 56 54 51 44 42 43 43 46 52 53 54 54 52 54 55 54 55 56 56
53 53 53 53 53 53 53 53 53 54 54 54 53 53 55 55 55 55 57 58 58 58 58 57 54 52 45 44 45 44 45 51 53 54 54 53 54 52 53 51 50 50
53 53 53 53 53 53 53 53 53 54 54 54 55 56 54 53 53 56 56 57 57 57 57 56 54 52 50 44 43 43 42 49 54 53 53 52 53 53 51 50 49 46

ECMWFNIL_sfc_temp_042.txt.gz
Temp
62 62 62 62 61 61 61 60 60 61 60 59 60 59 60 59 59 59 58 58 59 60 59 59 60 60 61 60 60 61 60 59 58 58 58 58 57 58 59 57 56 58
62 63 63 63 61 61 61 61 61 61 60 60 60 59 59 59 59 59 58 58 59 58 58 58 58 59 60 59 59 59 58 59 59 60 58 57 56 57 57 56 56 56
62 63 63 62 62 61 60 60 61 60 60 59 59 59 60 59 58 58 58 58 58 57 58 57 58 58 59 58 58 59 59 57 56 56 58 57 56 57 55 56 56 57
61 62 62 60 60 60 60 60 60 60 60 60 59 60 61 60 58 57 59 59 57 56 56 57 58 57 58 57 57 56 56 56 55 57 57 57 57 58 57 58 57 57
61 61 61 61 61 61 62 61 60 60 61 60 59 58 60 57 56 56 56 56 57 55 56 57 56 57 56 57 57 56 56 56 55 58 58 57 56 59 57 59 58 57
61 62 62 62 62 62 62 62 61 61 60 59 59 59 56 56 56 56 56 55 56 56 56 55 56 56 57 56 56 55 56 58 55 56 58 57 56 57 61 58 57 57
59 61 61 62 62 63 62 62 61 62 61 60 58 57 57 57 57 56 55 55 55 56 56 55 56 55 55 55 55 55 54 54 55 56 57 55 56 56 56 56 57 56
59 59 60 62 62 62 62 61 61 61 60 60 59 57 58 58 57 56 55 55 55 55 54 55 55 54 53 54 55 54 54 56 55 55 54 54 54 54 54 56 54 55
59 59 60 60 62 61 61 61 61 61 61 61 59 58 57 57 57 56 56 55 56 55 54 54 54 54 53 54 53 54 54 55 55 53 53 54 55 54 55 54 54 54
59 59 59 60 60 60 61 60 61 61 61 61 60 58 58 58 57 56 56 56 56 55 55 54 54 55 54 54 55 54 55 55 53 53 53 53 54 54 54 54 54 54
59 59 58 59 59 59 59 60 61 61 61 62 60 58 57 56 58 57 55 56 57 56 56 54 54 55 55 54 54 54 55 54 53 53 53 54 54 54 57 53 53 53
58 58 59 58 58 58 59 61 62 61 61 61 61 59 57 58 58 56 58 57 56 55 55 55 55 55 56 55 54 54 55 56 55 55 54 55 54 55 54 53 53 53
57 57 57 57 57 58 59 59 60 60 61 61 61 60 60 60 59 58 57 58 58 56 56 56 57 56 56 54 54 55 56 56 55 54 54 54 54 55 54 53 53 53
56 56 57 57 57 58 58 58 61 60 60 60 60 59 59 61 60 59 58 58 59 58 58 57 56 55 55 54 55 55 55 54 54 53 54 54 54 54 54 54 54 54
56 57 57 57 58 58 58 57 57 57 57 57 57 57 58 59 59 58 58 56 56 57 57 56 58 58 58 55 55 55 54 54 53 54 55 54 53 53 54 53 52 52
57 57 57 57 58 57 57 56 57 56 56 56 57 57 56 55 56 58 56 58 58 56 56 58 58 59 60 57 57 58 55 59 56 54 54 54 54 53 52 52 54 53
57 57 57 57 57 56 56 57 57 56 56 57 56 56 56 55 55 54 55 56 56 57 56 58 59 60 54 49 50 53 59 56 57 55 53 55 54 54 54 53 52 52
56 56 56 56 56 56 56 56 56 55 54 54 55 55 54 54 55 54 54 54 54 54 55 58 59 57 50 48 49 49 54 59 58 59 56 56 56 55 55 54 54 52
55 56 56 55 55 55 55 55 55 55 54 54 53 54 55 54 53 53 53 54 54 55 53 54 56 48 46 47 46 46 49 56 59 59 57 56 57 57 56 55 54 53
54 54 53 54 54 54 54 54 53 53 53 52 52 54 54 54 53 53 53 53 53 55 52 54 53 47 44 44 42 42 44 50 59 58 57 57 57 57 56 56 55 55
52 52 52 53 54 54 54 54 53 53 54 53 52 53 54 54 53 52 53 54 53 53 53 52 56 48 43 44 45 43 43 49 57 57 56 56 56 56 56 57 56 56
51 50 50 50 51 51 51 52 52 52 52 51 51 50 50 50 50 49 51 51 52 52 52 53 54 46 42 43 42 41 41 50 53 55 55 55 56 54 53 54 55 56
52 51 50 50 50 50 50 50 51 51 49 50 50 50 49 49 49 50 51 51 51 51 52 54 54 50 43 42 42 39 44 50 51 52 52 54 55 54 55 57 56 56
49 49 48 48 48 48 47 47 48 48 49 50 49 50 50 51 51 51 51 51 51 53 53 53 54 52 46 41 41 41 47 52 51 52 52 52 52 53 53 54 56 56
48 48 48 48 47 47 47 47 47 48 48 48 48 48 49 50 50 50 51 51 51 53 55 55 53 52 46 43 41 41 46 51 51 51 51 51 52 52 51 52 53 54
48 48 47 47 47 47 47 47 47 48 47 48 48 49 49 49 49 50 50 51 50 50 52 53 54 53 51 44 43 41 44 51 51 51 51 51 51 51 52 52 51 51

ECMWFNIL_sfc_temp_045.txt.gz
Temp
62 62 62 61 60 60 58 58 57 58 57 57 58 57 57 57 56 57 56 56 57 56 57 57 57 57 59 57 57 57 57 56 56 57 58 57 56 57 57 56 55 57
61 61 62 61 60 60 59 59 58 59 58 57 58 57 56 56 56 57 56 56 56 55 55 56 57 56 56 56 56 57 55 55 56 57 56 56 57 57 57 56 57 55
61 61 61 61 60 59 60 59 59 58 58 57 56 57 58 56 56 55 55 55 55 55 56 56 56 56 56 55 55 56 55 54 54 53 55 55 55 56 55 56 56 56
61 62 62 60 59 58 57 58 57 58 57 57 56 56 57 57 55 55 56 57 54 54 54 55 55 55 55 54 55 54 53 53 53 53 54 53 53 55 54 55 55 55
60 60 59 59 58 58 58 58 58 57 58 57 56 56 57 55 54 54 53 53 53 53 54 54 54 54 54 54 55 54 53 54 54 54 54 53 53 55 54 56 55 55
59 59 58 58 58 58 58 58 58 58 58 56 56 56 54 54 54 54 53 52 52 52 53 53 54 54 54 53 53 53 53 55 53 54 55 54 54 55 57 55 54 54
59 59 58 57 57 57 58 57 58 58 58 58 56 55 54 54 54 52 52 52 52 54 53 53 53 53 53 52 53 52 52 52 52 54 54 53 53 53 54 54 55 55
58 58 57 58 58 58 58 58 58 58 58 58 58 55 54 55 54 53 52 53 52 52 53 52 53 52 52 52 52 52 53 53 53 52 52 52 52 52 52 54 54 55
59 59 59 58 58 59 60 59 58 58 58 59 56 54 54 55 54 53 53 52 52 51 52 52 52 51 51 51 51 52 52 52 51 51 51 52 52 51 52 51 54 53
59 58 58 58 58 58 59 59 59 59 59 58 57 55 55 54 53 53 53 52 53 51 52 52 52 52 51 51 51 51 51 51 50 50 51 51 51 51 52 52 52 52
57 57 57 57 57 57 58 59 59 59 58 59 57 56 55 53 54 53 52 52 55 52 52 52 51 51 51 51 51 51 51 50 51 50 50 50 51 51 55 50 52 53
57 58 57 57 57 58 58 58 60 59 59 58 57 57 55 56 55 54 54 53 53 51 51 51 51 50 51 51 51 51 51 50 51 51 51 51 51 52 51 50 51 51
57 57 57 56 57 57 58 58 58 59 59 59 57 57 56 55 55 54 54 54 54 53 53 52 52 51 51 51 51 50 51 51 52 52 52 51 51 52 51 51 50 51
55 56 57 57 57 57 57 57 57 57 58 59 57 56 56 56 56 55 54 54 54 55 54 53 53 52 51 51 51 51 51 51 51 51 52 52 52 51 51 50 50 50
56 56 56 56 57 57 57 56 56 56 56 56 56 55 57 57 57 57 56 56 56 56 56 55 55 55 55 53 52 51 50 51 50 52 51 52 52 52 52 51 51 51
56 57 57 56 56 55 55 56 56 57 56 55 55 54 54 54 55 53 54 54 55 54 54 55 55 55 57 54 54 55 52 54 52 51 51 51 52 52 52 51 51 50
56 56 56 56 55 55 55 55 55 55 56 55 54 54 54 54 53 51 52 52 53 52 53 55 55 57 53 48 48 51 55 53 53 51 50 51 52 52 53 51 51 51
56 56 55 55 55 55 55 54 54 54 54 54 54 54 54 54 54 52 52 51 51 52 52 54 54 55 50 48 46 46 51 56 54 54 52 51 52 52 53 51 51 51
54 54 53 53 54 54 54 54 54 54 54 54 53 52 52 53 52 52 51 51 52 51 51 52 53 52 48 48 46 45 45 50 54 54 54 53 53 53 52 52 51 50
52 51 51 51 51 51 51 52 52 52 51 51 52 52 52 52 52 52 52 51 51 51 50 49 51 50 47 46 46 45 44 45 53 53 54 54 54 54 54 53 53 53
50 48 48 49 49 50 50 50 49 48 49 49 50 50 50 50 50 50 51 51 51 50 50 52 53 48 45 44 44 43 43 44 51 53 53 53 54 53 53 54 54 54
48 47 47 47 47 47 47 47 47 47 46 47 47 47 48 47 47 48 49 50 50 50 51 52 53 46 42 41 44 43 42 46 50 53 53 54 54 53 53 53 54 54
47 47 46 46 46 46 46 45 45 46 46 46 46 46 45 45 46 46 48 48 49 49 50 51 52 49 43 41 41 41 42 48 49 52 52 52 53 53 54 54 53 54
46 46 46 46 46 45 45 45 45 45 45 45 44 45 45 45 45 45 46 47 48 49 50 50 51 50 46 44 41 40 43 51 51 52 50 49 50 51 51 52 53 54
45 45 45 44 44 43 43 43 43 44 44 44 44 43 43 43 45 44 45 46 46 47 51 50 49 49 46 44 43 41 43 50 51 51 50 50 50 50 49 50 52 54
45 45 44 43 42 41 41 42 43 42 43 43 43 43 43 43 43 44 43 44 44 45 45 46 47 48 48 44 43 43 41 46 50 50 51 50 49 50 49 48 50 50

ECMWFNIL_sfc_temp_048.txt.gz
Temp
61 61 60 59 59 59 58 57 57 58 57 57 58 58 58 58 57 57 56 57 58 57 58 58 58 59 59 59 59 60 59 59 59 58 59 59 59 58 58 58 58 59
59 60 60 59 58 59 58 59 58 58 57 57 58 57 57 57 57 57 56 57 58 56 57 57 57 57 58 58 58 58 57 58 58 58 59 58 58 57 58 58 59 58
59 59 59 59 59 58 58 58 58 57 58 57 57 57 58 57 56 55 55 55 56 56 56 57 57 56 56 57 57 58 57 56 57 57 58 58 57 58 58 58 58 58
60 60 61 60 59 58 58 58 57 57 57 57 57 57 58 58 55 55 57 58 55 55 55 56 56 56 56 56 56 55 55 55 55 55 57 56 56 57 56 58 58 58
60 60 59 59 58 58 58 58 57 57 57 57 56 57 58 56 55 55 54 53 54 54 55 55 55 55 55 55 56 55 55 55 54 55 56 55 55 56 56 58 58 57
58 59 58 58 58 58 58 58 58 58 57 56 57 57 55 55 55 54 54 53 53 54 54 54 55 54 54 54 54 54 54 55 54 55 55 55 55 56 57 57 57 57
57 57 57 57 57 57 58 57 57 57 57 57 56 56 55 55 55 54 53 53 54 55 54 55 55 54 54 54 55 54 53 54 54 55 55 54 55 55 55 56 57 57
57 57 57 58 57 57 57 57 57 57 57 57 57 55 55 55 54 54 53 53 54 53 53 53 54 54 53 54 55 54 54 55 54 54 54 54 54 55 55 55 56 57
57 57 57 57 57 57 57 57 57 57 58 58 56 55 54 55 54 53 53 53 53 52 53 53 53 53 52 53 53 54 55 53 53 53 54 55 55 54 55 54 56 56
57 57 57 57 56 56 57 57 57 57 58 57 56 55 55 54 53 53 53 53 53 53 53 53 52 52 52 52 53 53 55 54 53 53 53 53 54 54 54 55 55 56
56 57 57 56 56 56 56 57 57 57 57 57 56 55 54 54 54 53 53 54 55 54 53 53 52 52 53 53 52 52 53 54 53 53 53 53 53 53 55 54 55 57
56 57 57 57 57 57 57 57 57 57 56 56 56 55 54 54 54 54 55 54 54 53 53 53 52 52 53 53 53 52 52 52 53 53 53 53 53 53 54 53 55 54
56 56 56 57 56 56 57 57 57 57 58 57 56 55 55 55 53 54 54 53 53 52 53 53 53 52 52 52 52 52 53 53 53 52 53 53 53 53 53 53 53 54
55 56 57 57 58 58 57 57 57 57 56 57 57 56 56 55 54 54 54 54 53 53 53 53 53 52 51 52 52 52 53 53 53 53 54 54 54 54 53 53 52 53
55 56 56 56 57 57 56 56 56 55 56 55 55 55 55 55 55 55 55 54 54 54 54 54 53 53 53 53 53 53 53 54 53 54 54 55 55 55 54 53 53 53
56 56 56 56 56 56 56 56 56 56 55 55 55 54 54 53 53 53 54 54 55 54 54 54 54 54 56 53 53 55 53 54 53 54 54 55 56 54 55 54 53 52
55 55 55 55 54 55 55 56 56 56 55 55 54 54 53 54 53 53 51 51 53 54 54 54 54 56 51 47 47 50 54 53 54 53 53 53 54 55 56 55 53 53
52 53 53 53 54 54 54 54 54 54 54 54 53 53 53 53 53 52 53 53 52 52 51 53 54 52 48 46 46 45 50 54 54 55 54 54 54 54 55 54 54 53
51 50 50 50 50 50 50 51 51 50 51 51 51 51 52 52 51 52 52 52 53 52 52 52 52 47 44 46 45 45 44 49 55 54 55 54 54 54 54 54 53 53
51 50 49 49 49 49 48 49 49 48 48 48 49 49 49 49 50 50 50 51 51 51 52 52 53 46 41 41 42 43 44 45 53 54 54 55 54 54 54 54 54 55
49 49 48 48 47 47 47 46 47 47 47 47 46 46 46 46 47 47 49 49 50 50 51 52 52 42 41 41 41 41 43 44 50 52 54 54 54 53 54 54 54 55
48 47 47 47 46 46 45 45 45 45 45 45 45 45 45 45 46 47 46 47 48 49 49 49 50 42 41 41 41 39 40 48 49 51 53 54 54 53 53 54 55 54
46 46 45 45 45 45 44 44 43 44 44 45 44 44 44 45 44 45 45 46 47 47 47 47 48 44 40 40 41 40 44 48 49 50 51 52 53 54 54 55 55 55
44 44 44 44 44 43 43 43 44 44 44 44 44 44 42 44 45 44 44 45 45 45 47 45 46 46 42 40 40 40 44 49 50 51 51 51 52 53 53 53 53 53
44 44 43 43 42 42 42 42 42 43 43 43 43 43 43 43 44 43 43 44 44 44 48 45 45 45 42 40 40 39 43 48 49 51 51 51 51 52 52 51 54 54
44 44 43 42 42 42 42 42 43 43 42 42 42 42 42 42 42 42 42 42 42 43 43 44 44 44 44 40 41 40 39 45 48 49 50 51 52 52 52 51 49 51

ECMWFNIL_sfc_temp_051.txt.gz
Temp
65 67 68 69 71 71 70 70 71 72 72 72 73 73 74 73 71 71 70 70 70 70 70 70 71 71 71 71 71 72 73 71 70 71 70 69 69 69 69 69 69 71
66 67 68 69 69 70 71 71 70 72 71 71 73 72 72 72 70 71 70 70 70 70 71 71 71 71 71 72 70 71 71 71 71 71 70 68 69 69 69 69 69 70
66 66 67 68 68 68 69 70 70 71 71 70 70 71 70 70 70 69 69 70 71 70 70 71 71 71 71 71 71 71 71 70 71 71 71 71 70 70 70 70 70 69
65 66 67 68 68 68 69 69 69 70 70 69 70 70 70 69 70 69 69 69 70 70 70 70 71 71 72 71 71 71 70 71 71 70 70 70 70 70 69 71 70 70
65 66 67 67 68 68 69 69 69 69 70 70 69 69 70 69 69 70 70 69 70 70 70 69 70 70 70 71 71 71 70 70 68 70 71 70 69 69 69 70 70 69
66 67 67 67 67 68 69 70 70 70 69 68 69 70 70 70 71 71 70 70 70 70 69 70 70 69 70 70 70 70 70 71 69 69 71 70 70 70 70 69 70 70
64 65 65 66 67 68 69 69 69 70 70 70 70 69 69 70 70 71 71 71 71 71 71 70 69 69 70 70 71 69 69 69 69 70 71 70 69 67 69 69 70 70
64 65 66 67 67 67 68 68 68 69 68 69 68 68 70 71 71 70 70 71 71 71 70 71 70 70 70 71 71 70 68 68 69 70 70 69 68 69 69 68 69 70
63 64 65 65 66 67 67 67 67 67 68 68 68 68 69 71 70 70 70 71 71 70 70 70 71 71 70 70 70 71 71 69 68 70 69 69 68 68 70 70 69 69
64 64 64 65 65 65 65 65 66 66 68 68 69 70 69 68 70 71 70 70 70 70 71 71 70 70 70 71 71 71 71 71 70 70 70 70 70 70 70 70 70 69
64 64 64 64 64 64 64 65 65 66 67 68 68 69 69 69 69 70 70 71 70 71 71 71 71 71 71 70 69 70 70 70 71 71 70 71 70 69 67 70 69 70
63 63 63 64 64 64 65 65 66 66 66 65 67 67 67 69 69 70 71 72 72 72 72 72 72 71 72 71 71 70 70 69 70 70 71 71 70 70 70 70 70 70
63 63 62 62 63 64 65 66 66 66 67 66 67 67 67 67 68 70 69 71 71 71 71 71 71 71 71 70 71 71 71 70 70 70 70 69 69 70 69 69 70 70
63 63 62 62 62 63 64 65 66 65 66 67 68 67 67 68 68 68 68 69 70 71 70 70 70 70 71 71 71 70 70 70 70 70 71 70 69 69 68 69 68 69
62 62 61 60 60 61 62 63 64 64 64 63 64 64 65 66 66 67 68 69 69 68 69 68 69 69 71 70 71 69 70 70 69 71 70 71 70 70 69 69 69 69
61 61 60 59 59 59 59 60 60 59 59 60 61 61 61 61 61 62 65 67 69 69 68 66 66 66 57 50 53 68 70 71 69 69 70 71 71 70 70 69 69 69
61 61 60 58 58 58 58 59 61 62 61 59 58 59 59 59 58 59 61 63 66 67 66 65 63 57 43 46 46 45 62 68 69 69 69 70 70 70 70 70 69 69
59 58 57 57 57 58 59 59 59 58 58 58 59 58 58 59 58 59 60 62 63 64 62 60 55 43 40 41 44 44 51 65 67 69 68 69 70 70 71 70 70 69
56 56 55 55 56 55 56 57 57 56 55 55 55 56 56 57 58 58 59 60 62 62 60 57 52 41 41 40 39 42 42 53 69 67 68 69 69 69 70 70 70 69
52 53 53 53 54 55 55 56 55 54 54 55 56 57 56 56 57 57 58 59 60 60 59 56 52 42 40 40 40 39 39 47 66 65 66 67 67 67 67 68 68 69
52 51 50 50 51 53 54 53 53 53 53 54 55 55 55 55 56 56 57 58 59 60 59 55 50 40 39 39 40 40 40 48 64 62 65 66 66 66 66 66 67 66
52 51 50 49 49 49 49 51 51 51 51 53 54 54 54 54 54 55 55 56 57 58 58 56 52 40 40 39 39 40 43 61 63 64 64 65 65 65 66 66 66 66
52 51 50 50 50 49 49 50 51 51 50 52 53 52 51 51 52 53 55 55 56 56 56 56 54 44 39 40 40 39 49 62 62 65 65 64 65 64 65 65 65 66
51 51 49 50 51 50 49 49 50 51 51 50 49 49 49 48 49 53 54 54 54 53 54 55 54 45 40 40 40 38 46 60 62 63 63 63 64 65 66 65 64 56
52 52 52 51 51 51 51 51 50 50 51 51 51 51 51 52 50 53 53 53 52 51 49 52 54 49 41 40 40 39 48 59 61 63 62 61 62 63 63 65 65 60
52 51 51 51 50 50 50 51 52 52 52 52 52 53 51 52 53 54 53 52 53 53 51 52 53 53 46 39 40 40 39 54 59 59 57 57 59 60 61 63 63 64

ECMWFNIL_sfc_temp_054.txt.gz
Temp
66 70 72 73 73 75 75 76 77 76 77 77 77 77 78 78 78 77 77 77 77 77 77 77 77 77 77 77 76 76 77 75 75 75 74 72 72 72 72 73 72 69
68 71 72 74 74 74 75 76 76 77 76 77 78 79 78 78 77 78 77 76 77 77 77 77 77 77 77 77 76 75 76 76 75 76 73 73 73 73 72 72 73 70
69 70 72 72 72 73 74 76 76 76 77 78 78 78 78 78 77 77 77 77 77 77 76 76 77 77 77 77 76 76 76 75 75 76 75 75 74 74 73 73 74 73
69 70 72 72 73 73 74 74 74 76 77 77 77 78 78 77 77 77 76 77 77 76 76 76 77 78 78 77 76 77 76 76 76 76 76 76 75 76 75 75 75 74
69 70 72 73 74 74 74 74 74 75 76 77 77 77 78 77 77 77 77 77 77 77 76 76 76 77 77 77 77 76 76 76 76 76 76 75 75 75 75 75 74 73
70 72 74 74 74 74 74 75 76 76 77 76 76 78 77 77 77 77 77 77 77 77 76 77 77 76 77 77 76 76 76 76 75 76 75 75 75 76 77 76 74 74
69 70 72 75 75 76 75 75 76 77 77 77 78 77 77 77 77 78 78 77 78 77 78 77 76 76 77 77 77 76 77 77 77 77 77 76 76 74 76 76 76 76
67 70 72 75 75 75 75 76 76 76 76 77 76 77 78 78 78 77 78 78 78 78 78 78 77 78 77 77 77 75 75 76 77 78 78 77 75 76 75 75 75 76
67 69 72 73 73 74 74 76 75 75 77 76 77 77 78 78 77 77 77 78 77 77 78 77 78 78 77 77 76 76 77 76 76 77 76 75 75 76 77 76 75 75
70 71 71 72 73 74 74 75 75 75 76 76 77 77 77 76 77 78 77 77 76 77 77 77 77 77 77 78 78 77 77 77 77 76 77 76 76 77 78 76 75 74
70 72 73 74 73 74 73 73 74 75 75 76 76 76 76 76 76 78 77 77 75 77 77 77 77 77 77 76 76 76 77 77 77 78 77 77 76 76 74 76 75 75
72 72 73 73 73 72 72 73 73 74 75 75 77 75 75 76 76 77 78 78 78 79 78 78 78 77 78 77 77 76 76 76 77 77 77 78 77 77 77 76 75 76
72 72 72 72 72 72 72 73 73 73 75 75 76 75 75 75 76 76 77 78 78 78 77 77 77 77 77 76 77 77 76 76 75 76 76 76 77 78 78 77 76 77
72 71 72 72 73 73 74 73 74 74 74 75 75 74 74 75 75 75 76 77 77 77 77 77 76 77 77 77 78 77 76 76 76 75 76 76 76 77 77 77 77 76
66 69 70 71 73 73 73 73 73 73 73 73 73 73 73 74 74 75 75 76 76 76 76 76 75 76 74 71 76 76 76 75 75 76 76 76 76 77 76 77 78 77
67 67 67 67 70 70 70 70 69 69 69 70 72 73 73 72 73 74 75 75 75 76 75 73 72 66 51 43 49 71 77 78 75 76 76 76 75 76 75 76 77 77
67 68 68 67 67 67 67 67 67 66 66 66 66 67 68 68 69 70 72 74 74 72 70 66 61 54 41 39 42 44 67 74 75 75 76 75 76 75 75 75 76 78
67 67 66 64 64 64 65 66 64 60 60 61 62 63 65 66 66 65 67 69 68 67 64 61 55 43 39 40 39 40 48 69 75 75 74 75 76 76 76 76 75 75
66 66 65 63 63 63 63 64 63 61 61 61 62 64 65 65 66 66 66 65 65 64 62 60 56 41 40 40 40 40 40 51 78 75 74 75 76 76 76 76 76 76
65 65 63 62 62 62 61 61 60 59 61 63 63 64 64 64 65 65 66 65 64 64 61 59 55 43 40 39 41 39 39 45 75 73 74 75 74 74 74 74 74 75
62 63 63 62 61 60 60 60 58 60 61 62 62 62 62 62 61 62 63 65 65 65 63 58 52 39 40 40 40 39 40 45 73 71 73 74 74 73 73 73 73 73
57 58 60 61 61 61 61 61 61 61 61 61 60 60 60 61 62 64 64 64 65 65 63 60 54 39 39 40 40 41 40 66 73 73 73 73 73 73 73 74 74 74
55 54 54 55 55 54 56 58 59 59 60 62 60 60 59 59 60 60 62 62 63 64 62 60 56 44 39 40 41 38 51 72 71 74 73 72 72 72 74 73 73 73
55 55 54 53 53 52 52 54 55 56 56 57 56 56 57 58 60 60 60 60 60 60 61 60 56 46 39 40 40 38 47 68 72 72 71 71 72 71 73 74 69 54
57 57 56 54 53 53 52 50 52 53 54 56 58 58 58 59 60 60 60 60 59 58 54 58 58 50 40 40 39 40 49 66 70 72 70 69 71 71 71 72 73 64
58 57 58 58 57 56 57 56 56 56 56 57 57 59 59 60 60 60 59 59 59 59 57 57 57 54 46 39 39 41 39 57 67 66 65 65 67 68 69 71 70 71

ECMWFNIL_sfc_temp_057.txt.gz
Temp
68 69 70 72 71 68 65 66 73 76 77 78 78 78 78 77 78 78 78 79 79 79 78 78 78 77 78 78 77 77 78 75 73 75 75 74 73 73 72 73 72 70
68 68 71 73 72 71 70 73 76 77 78 78 79 79 78 78 78 79 78 78 78 78 78 78 78 78 78 78 77 76 76 75 74 77 74 73 75 74 73 73 72 73
67 67 69 71 71 72 74 76 77 77 78 78 78 78 78 78 78 79 78 78 78 78 77 78 78 78 78 78 77 77 76 73 73 77 76 76 76 74 73 73 75 75
67 66 67 68 69 74 75 76 77 78 78 77 77 79 78 78 78 78 78 78 78 77 77 77 78 78 79 79 77 76 76 77 77 77 76 75 75 76 74 74 74 74
67 66 66 67 70 75 76 76 76 77 76 76 77 78 77 77 77 78 77 77 77 77 77 77 78 78 78 78 78 77 76 75 77 77 76 76 76 76 75 73 72 71
70 67 69 68 74 75 75 76 77 76 76 77 77 78 78 78 78 78 78 78 79 78 78 77 78 78 79 78 77 77 76 77 76 77 76 75 76 77 78 76 75 73
70 68 67 73 73 76 75 76 76 76 77 77 78 77 78 78 78 79 79 79 80 79 80 78 77 77 78 78 77 76 77 77 77 77 77 77 76 75 77 77 76 76
72 71 70 75 75 76 76 76 75 75 76 77 77 78 79 79 79 79 79 79 79 80 79 79 78 79 78 78 78 77 76 78 78 78 78 78 76 76 76 77 76 76
72 72 74 74 74 75 76 76 75 76 77 77 77 77 79 79 79 79 79 80 80 79 79 79 79 79 78 78 77 77 77 77 78 78 77 76 76 76 77 77 76 75
72 72 73 74 74 75 74 74 75 75 78 78 78 78 78 78 79 79 79 79 78 79 79 79 79 78 78 79 78 78 78 78 78 77 78 77 78 79 79 76 74 75
71 72 73 73 74 75 74 74 76 77 77 79 78 78 78 78 78 79 79 79 77 79 79 79 79 79 78 78 78 78 79 78 78 79 78 78 78 78 76 78 76 74
68 70 72 73 73 73 75 75 76 76 77 78 78 78 78 78 78 79 79 79 79 80 80 80 80 79 79 78 79 78 78 78 78 78 78 79 78 79 79 78 75 74
66 66 67 71 71 70 74 76 76 76 77 77 78 77 77 77 78 78 77 78 79 79 78 78 79 79 79 78 79 79 78 78 77 77 78 78 78 79 79 78 76 74
65 64 66 68 71 71 74 74 75 75 75 76 77 76 77 78 77 77 78 79 78 79 79 79 78 79 78 78 79 79 77 77 77 76 77 77 77 79 78 78 77 75
64 64 64 64 70 72 73 73 74 74 76 77 76 76 77 78 78 78 78 78 78 78 78 78 76 70 63 61 68 76 78 76 77 77 77 77 77 77 77 78 78 76
64 65 65 65 69 72 73 73 74 75 75 75 75 76 76 77 77 77 78 77 76 77 76 71 67 62 48 42 45 60 70 77 76 76 77 77 76 77 77 77 78 77
66 66 68 68 72 73 73 74 75 74 75 75 74 73 72 74 75 76 76 77 76 72 68 65 60 53 41 39 41 40 58 72 76 76 77 76 76 76 76 76 77 77
67 67 67 66 71 71 71 71 71 72 71 70 69 68 68 69 70 71 71 69 68 67 63 60 55 44 39 41 40 39 43 59 72 76 75 76 76 76 77 76 76 75
67 66 66 65 65 65 65 65 65 65 65 64 63 64 66 66 67 67 66 67 65 63 62 59 55 41 40 40 41 39 40 49 71 76 75 76 76 77 77 77 77 76
65 66 66 65 63 62 62 60 60 59 61 63 63 64 65 65 65 65 65 64 63 62 59 56 50 42 40 40 41 39 40 43 68 73 75 76 76 76 77 76 76 76
66 66 64 62 61 61 62 60 58 59 60 62 63 63 64 65 65 64 64 63 62 60 57 53 48 40 40 40 40 40 38 44 69 72 74 74 74 74 74 74 75 74
62 61 61 62 61 61 60 59 58 58 58 60 63 64 65 66 66 65 64 63 62 61 58 56 51 39 40 40 40 40 42 64 71 72 73 74 74 74 74 75 75 75
57 57 57 57 58 58 58 57 56 58 61 63 63 62 61 60 60 61 63 63 63 62 60 57 54 43 39 40 41 39 49 70 73 73 73 73 74 74 75 75 76 76
53 54 55 55 56 55 55 56 58 59 60 62 62 60 57 58 60 60 61 62 61 61 61 57 54 45 39 40 41 40 47 64 71 73 72 72 72 73 74 75 65 55
55 55 54 54 53 54 56 56 55 56 59 62 62 62 60 60 61 59 56 59 60 59 56 59 57 50 41 40 40 40 47 62 68 70 71 69 70 72 73 73 62 52
59 59 58 58 59 60 59 57 58 58 60 61 61 61 58 60 62 62 61 60 59 59 58 58 56 52 46 39 39 41 39 53 65 65 65 66 69 69 70 73 66 56

ECMWFNIL_sfc_temp_063.txt.gz
Temp
65 64 64 64 64 65 64 63 63 62 63 63 63 63 64 65 66 68 68 68 68 68 67 67 67 67 68 68 66 67 67 66 66 66 65 64 63 63 64 64 63 63
66 66 65 64 64 64 65 64 64 63 63 63 65 65 66 66 67 69 68 67 67 67 67 67 67 67 67 67 67 66 65 66 66 68 65 64 64 64 64 64 63 63
66 66 65 64 63 64 64 64 64 64 64 65 66 66 67 68 68 68 67 67 67 67 67 67 66 66 67 66 66 66 65 65 65 66 65 65 64 65 64 64 63 63
66 66 65 64 63 64 63 63 63 63 64 64 65 68 69 69 68 68 67 68 67 67 66 67 66 67 67 66 66 65 66 65 65 65 65 64 64 65 64 64 63 63
66 65 64 63 63 63 63 63 63 63 64 65 66 68 68 67 68 67 66 66 67 66 66 67 66 66 66 66 66 65 65 64 65 65 64 64 65 65 65 65 63 63
65 63 63 63 63 63 63 64 64 65 65 65 67 67 67 68 68 67 66 66 66 66 66 66 65 66 67 66 65 65 64 65 65 65 65 65 65 65 67 65 63 62
63 62 63 64 63 63 64 65 65 66 67 67 68 67 67 68 68 67 66 67 67 67 67 65 65 64 64 65 64 64 64 64 65 65 65 64 64 64 67 65 64 63
62 62 62 64 63 62 64 65 67 68 68 69 68 68 68 68 68 67 66 67 67 67 65 66 65 64 65 65 65 63 62 66 65 64 63 64 63 64 65 66 65 64
62 62 62 62 63 63 65 65 67 68 69 69 69 68 68 68 67 66 66 66 65 65 65 66 64 65 63 64 63 63 62 64 64 63 63 62 62 63 64 64 63 61
62 62 62 61 62 63 64 64 66 67 69 69 69 68 67 67 67 67 66 66 65 66 66 64 64 64 63 66 66 64 62 63 62 62 63 64 63 63 63 64 63 61
61 61 61 61 61 62 64 65 65 68 68 69 67 66 67 68 67 65 65 66 66 66 65 64 65 64 64 63 62 62 62 63 62 63 63 61 62 63 65 63 63 62
61 61 61 60 60 61 64 65 67 68 68 68 67 67 67 67 66 65 66 66 66 67 64 64 64 63 62 63 63 63 62 63 61 62 62 62 62 63 64 63 62 63
61 60 60 60 61 62 64 66 67 67 68 67 67 68 67 66 66 65 63 64 63 62 60 59 58 58 58 59 61 61 61 61 62 61 61 63 63 63 64 62 62 62
60 60 60 60 61 62 63 65 65 65 66 67 68 67 65 65 64 63 62 62 61 59 57 55 54 53 52 54 58 59 60 60 60 61 60 61 63 64 63 62 62 62
59 60 60 60 61 61 61 61 63 65 65 67 66 65 65 64 63 63 61 59 58 56 55 53 51 49 47 46 52 56 59 60 60 62 61 61 62 62 61 61 60 60
60 60 60 60 60 60 61 61 60 60 63 64 64 63 62 62 62 61 60 58 55 53 52 51 49 47 45 43 44 49 54 60 59 59 60 61 60 60 60 61 61 60
60 60 60 60 59 59 61 61 61 61 61 62 62 62 61 60 60 58 56 55 53 52 50 48 46 45 42 40 41 43 53 57 58 58 58 59 60 61 59 59 58 59
59 60 60 59 60 60 60 60 60 60 60 61 60 59 59 58 57 55 54 53 51 50 48 48 45 43 40 41 41 40 45 54 56 58 59 58 59 61 61 59 59 58
58 59 59 58 59 59 59 59 59 59 59 59 58 58 57 56 54 54 52 51 50 49 47 46 45 42 41 41 41 41 40 49 58 57 60 60 61 61 60 58 58 59
57 57 57 57 58 58 58 57 58 58 58 58 58 57 56 54 53 52 51 51 50 48 47 46 44 42 41 41 42 42 41 46 59 58 59 59 60 61 61 60 58 58
55 56 55 56 56 56 55 55 55 55 55 55 54 54 54 53 53 51 51 50 50 49 48 46 44 41 41 41 42 43 46 53 60 61 61 60 58 57 57 58 58 56
54 54 54 54 54 54 53 53 53 53 53 53 53 53 54 54 54 53 51 50 49 48 47 46 45 40 41 41 42 43 50 59 61 61 61 59 55 53 53 54 55 53
51 51 51 51 51 52 52 52 52 52 52 53 54 53 53 54 54 53 53 51 50 48 46 45 44 42 41 42 43 44 52 59 59 59 59 57 52 51 50 50 52 52
50 50 50 49 50 50 50 50 50 51 51 52 53 53 53 53 53 53 53 51 49 47 47 46 44 43 42 42 43 44 50 56 56 56 56 56 52 51 49 47 49 51
50 49 49 49 49 49 49 49 50 50 50 51 50 52 52 53 53 52 51 51 50 48 50 46 45 44 42 42 43 44 50 53 53 53 53 53 53 50 50 48 47 46
50 50 50 49 49 49 49 49 49 49 50 50 50 52 53 52 52 52 51 50 49 48 47 46 46 44 43 42 43 43 45 50 50 50 50 50 52 52 49 48 48 47

ECMWFNIL_sfc_temp_066.txt.gz
Temp
64 63 63 63 63 63 62 62 61 61 62 63 63 63 63 64 64 65 65 65 65 65 65 64 65 65 66 65 65 65 65 64 64 63 63 62 61 61 62 61 61 61
65 65 64 64 63 63 63 62 61 62 62 62 63 63 64 64 65 66 66 65 66 65 65 65 65 65 65 65 65 64 64 64 63 65 63 62 61 62 62 61 61 60
65 65 65 64 63 63 63 62 62 62 62 63 63 64 64 65 65 66 66 66 66 65 65 65 65 65 65 65 64 64 64 63 63 63 63 63 61 61 61 61 60 60
65 66 65 64 63 63 63 62 62 62 62 62 63 65 66 64 63 64 66 68 65 65 65 65 65 64 65 65 64 63 63 63 63 63 63 62 62 62 61 62 61 61
63 64 64 63 62 63 62 63 62 62 62 63 64 64 65 65 64 64 65 65 65 64 64 64 64 64 64 64 64 63 62 62 62 63 62 61 61 62 62 62 61 61
64 64 63 62 62 61 61 61 63 63 63 63 64 65 65 66 66 66 66 65 65 65 64 64 63 63 64 64 63 63 63 62 62 62 62 62 61 62 63 62 61 60
61 61 61 61 61 62 61 62 63 63 64 65 66 65 64 65 66 66 66 66 66 65 65 64 63 62 63 63 63 63 62 63 63 63 63 62 62 62 63 63 62 61
60 61 61 61 61 61 61 62 63 63 64 65 65 63 64 66 67 67 67 66 66 65 65 64 64 64 62 62 63 62 62 64 63 63 63 62 62 62 62 63 62 61
61 60 61 61 60 60 62 62 62 64 65 65 63 62 64 66 67 67 67 67 66 65 64 64 64 64 62 62 62 62 61 62 63 62 62 62 61 62 62 61 61 60
60 60 60 60 60 61 62 62 62 65 65 63 63 64 64 66 67 67 66 66 65 65 64 64 64 63 62 63 63 62 61 61 60 61 61 62 61 61 61 61 61 60
60 60 60 60 60 61 62 62 62 61 62 64 63 64 66 66 66 66 65 66 65 65 64 64 63 63 62 61 61 60 61 61 61 60 61 61 61 61 63 62 60 60
60 60 60 60 60 60 61 61 61 62 62 62 63 65 66 66 66 66 66 66 64 63 61 60 59 58 58 58 59 58 59 59 61 61 61 60 60 60 62 61 61 60
59 59 59 59 59 60 61 61 61 61 62 62 62 65 65 64 63 62 62 61 60 60 58 57 56 56 56 56 57 57 58 58 58 58 59 58 58 61 61 61 60 60
59 59 59 59 60 60 61 61 61 61 62 61 63 65 63 62 61 60 59 59 57 56 55 55 54 54 53 54 56 57 57 56 57 58 58 58 59 60 61 60 59 60
59 59 59 59 60 60 60 60 61 61 61 61 61 61 61 61 60 59 57 56 55 54 53 52 50 49 48 48 53 56 56 57 57 58 59 60 60 59 58 58 57 58
59 59 59 59 59 59 59 59 59 59 59 60 60 60 59 60 59 58 56 55 53 52 51 49 48 47 47 45 46 52 55 58 57 56 57 58 59 58 56 57 57 57
59 59 59 58 58 58 58 59 59 59 58 59 59 58 58 57 56 55 54 53 52 51 49 47 46 45 42 40 41 46 54 55 57 55 55 57 58 58 57 57 55 56
59 58 58 58 58 59 59 59 58 58 57 58 57 56 55 54 53 52 51 51 50 49 48 47 45 43 40 41 42 42 50 55 56 57 57 57 57 57 58 57 55 55
59 58 58 57 58 58 58 58 57 56 55 55 55 55 54 52 51 51 50 50 49 48 46 46 44 42 40 41 42 42 46 54 57 57 57 55 55 56 56 55 54 54
58 58 57 57 57 57 57 56 55 53 53 52 51 52 51 50 50 50 49 48 48 47 46 45 45 43 41 42 43 45 47 52 56 55 54 55 55 55 55 54 53 51
55 56 56 56 56 56 55 54 53 52 52 51 50 50 50 50 50 48 48 47 47 47 47 46 44 41 41 42 44 48 49 51 55 54 52 52 52 52 52 52 51 49
51 52 53 53 54 54 54 53 52 52 51 50 49 48 50 50 49 49 47 47 46 47 47 46 44 41 42 44 46 48 50 56 55 53 51 50 50 50 51 51 51 50
49 50 50 51 52 52 52 51 51 51 50 51 50 50 49 49 48 48 48 47 47 47 46 45 44 42 42 44 45 48 51 56 54 53 51 49 48 48 49 50 50 51
49 49 49 49 49 49 49 49 49 49 49 51 49 50 49 49 48 48 47 47 46 46 46 45 45 43 42 43 44 46 50 54 54 52 50 49 49 48 48 47 49 50
49 49 49 48 48 48 48 49 49 48 49 49 50 50 49 49 49 47 47 47 48 48 49 47 46 45 42 42 43 45 50 53 53 52 50 49 48 48 47 47 47 46
49 49 49 49 48 48 48 48 49 48 48 48 48 48 47 48 49 48 47 47 47 47 47 47 46 44 43 41 42 43 46 52 52 51 49 48 49 48 47 46 47 47

ECMWFNIL_sfc_temp_069.txt.gz
Temp
62 63 64 64 64 63 62 61 61 61 61 62 62 62 62 63 63 63 63 63 63 63 63 63 63 63 64 64 63 63 63 63 63 62 62 61 61 61 61 60 59 60
63 63 64 62 61 60 61 62 61 61 61 61 62 63 62 62 62 63 63 63 63 63 63 63 63 63 63 63 63 63 62 62 62 63 61 61 60 60 61 60 60 59
63 63 63 62 61 60 61 61 61 62 61 62 62 62 62 63 62 62 63 63 63 63 63 63 63 63 64 63 63 63 62 62 62 62 61 61 60 60 60 60 59 59
62 62 62 62 61 61 62 61 60 61 61 61 61 62 63 63 62 62 62 65 63 63 62 62 63 63 64 64 63 62 62 62 62 62 61 60 60 61 60 60 59 59
62 61 62 62 63 62 62 61 60 61 61 62 62 61 62 62 62 62 62 62 62 62 62 62 63 63 63 63 63 62 62 61 61 62 61 60 60 60 60 60 59 59
61 61 62 62 62 61 61 62 62 61 61 61 61 61 62 62 62 62 62 61 62 62 62 62 62 63 63 63 62 62 61 61 61 61 61 60 59 60 61 60 59 59
60 60 61 62 62 62 62 62 62 61 61 61 61 61 61 62 62 62 62 62 62 62 62 62 62 62 62 62 62 61 61 62 61 62 61 60 60 59 60 60 60 60
61 61 62 62 61 61 61 61 61 61 61 61 60 61 62 63 62 62 62 63 63 63 63 62 62 62 62 62 62 61 61 62 61 61 61 60 59 60 59 61 60 60
62 61 61 61 60 60 60 60 60 60 61 61 61 61 62 62 62 62 62 63 63 63 62 62 62 62 61 62 62 62 61 61 61 61 61 60 59 60 60 60 59 59
61 61 61 60 60 59 59 60 60 61 62 61 61 61 61 62 62 63 62 62 61 61 62 61 61 61 61 62 62 62 61 61 60 60 61 60 61 60 60 60 60 59
60 61 60 60 60 59 59 60 60 61 61 61 60 60 61 61 61 62 61 61 61 62 62 61 61 61 61 61 61 61 62 61 60 60 60 60 60 61 62 60 60 60
59 59 59 60 60 59 60 60 61 61 61 61 61 61 61 61 61 60 61 62 62 61 61 60 60 60 60 60 60 60 60 60 60 60 60 59 59 59 61 60 60 60
59 59 59 60 60 60 61 60 60 60 61 61 61 61 60 60 60 61 60 60 59 59 58 57 57 57 57 57 58 58 58 58 58 58 58 57 57 59 59 59 59 59
58 58 59 60 60 60 61 61 60 60 61 61 60 60 59 60 60 59 57 57 57 56 54 55 56 55 54 54 55 57 57 57 58 58 57 56 56 56 57 58 58 58
58 58 59 59 59 60 60 60 60 60 60 60 60 58 58 59 59 57 56 55 54 54 53 53 52 51 50 51 55 55 56 56 56 57 57 57 55 56 56 56 56 56
58 58 59 59 59 59 60 60 60 59 58 59 59 58 56 56 56 56 56 54 53 52 51 50 48 48 48 47 50 55 55 57 56 57 57 57 57 56 54 55 54 53
58 58 58 58 58 59 59 58 58 58 57 57 56 56 55 55 54 54 54 54 53 52 50 48 46 47 43 43 44 51 55 57 58 57 56 56 57 57 55 54 52 53
58 58 58 58 58 57 58 58 57 57 56 55 53 53 53 53 52 52 52 52 51 51 49 48 46 43 41 43 44 48 52 56 57 58 57 56 54 55 54 53 52 51
56 57 57 56 57 57 57 57 56 55 53 53 52 52 51 51 51 50 50 51 51 50 48 48 46 42 41 43 44 46 48 53 55 55 55 54 54 54 53 52 51 50
52 56 56 56 56 56 55 54 53 52 51 50 49 50 49 49 50 50 50 50 50 49 48 47 46 43 43 44 44 44 46 50 54 54 53 53 53 52 51 49 49 48
50 52 55 54 54 54 53 51 50 49 49 48 47 47 48 49 50 49 49 49 49 49 48 46 45 42 43 43 44 45 45 48 53 52 51 50 49 49 49 48 48 48
49 49 52 53 53 52 51 50 49 48 47 47 46 45 46 48 48 49 48 48 48 48 48 46 45 42 43 43 44 45 47 52 51 51 50 49 49 49 49 49 49 49
49 49 49 50 51 50 50 49 48 47 47 47 45 44 44 45 46 47 47 47 47 47 46 45 45 43 42 44 44 45 48 51 51 50 49 48 48 49 49 49 49 49
49 49 48 48 48 48 48 48 48 47 47 46 44 43 43 43 45 45 46 47 46 46 46 45 44 43 42 43 45 46 49 51 51 50 49 48 48 48 48 48 48 50
49 49 48 48 48 47 47 47 47 46 46 45 44 44 43 44 44 45 45 46 46 46 48 45 44 44 42 42 44 46 50 52 52 50 49 48 48 47 48 47 47 45
48 49 48 48 48 48 48 47 47 46 45 44 44 44 43 44 44 46 45 45 45 45 45 44 43 43 42 41 43 44 46 52 52 51 49 48 48 48 47 46 46 45

ECMWFNIL_sfc_temp_072.txt.gz
Temp
62 62 62 62 62 63 63 62 61 61 62 61 61 61 62 62 63 63 63 63 63 62 63 63 63 63 64 63 63 63 63 63 63 63 63 63 62 62 61 62 61 62
62 62 62 61 60 61 62 62 62 61 61 61 61 61 62 62 62 63 62 62 63 63 63 63 63 63 63 63 63 62 62 63 62 64 62 62 62 62 62 62 62 61
61 62 62 62 61 61 61 62 61 61 61 61 61 62 62 63 62 62 62 62 62 62 63 63 63 63 62 62 62 62 63 62 62 63 63 63 62 62 62 62 62 61
61 62 62 62 62 62 61 61 61 61 61 61 61 62 62 63 63 62 62 64 62 62 62 62 63 62 63 63 62 61 62 62 63 63 62 62 61 62 61 61 61 61
61 61 62 62 62 62 61 61 61 61 61 61 62 62 62 62 62 62 62 62 62 62 62 62 62 62 62 62 62 61 62 62 62 62 62 61 61 61 61 61 60 60
61 61 61 62 62 61 61 61 61 62 61 61 61 62 62 62 62 62 62 62 62 62 62 62 62 62 62 62 62 62 62 62 62 62 61 61 60 61 61 61 61 60
61 60 60 61 61 61 61 61 61 61 61 62 62 61 61 61 62 62 62 62 62 62 62 62 62 62 62 61 61 61 61 62 62 62 62 61 61 60 61 61 61 61
61 61 61 61 61 61 61 61 61 61 61 61 61 61 62 62 62 62 62 62 62 62 62 62 62 62 61 61 61 61 61 62 62 62 62 61 61 60 61 61 61 61
62 61 61 61 61 61 61 62 61 61 61 61 61 61 62 62 62 62 62 62 62 62 62 61 61 62 61 61 61 62 61 61 62 62 62 61 60 61 60 61 60 61
60 61 61 61 60 61 61 61 61 61 62 62 62 61 61 61 62 62 62 62 62 62 62 61 61 61 61 62 62 62 61 61 62 62 62 62 61 61 61 61 61 60
59 60 60 60 60 60 60 61 61 61 62 62 61 60 61 61 61 61 61 61 61 61 61 61 62 61 61 61 62 62 61 61 62 62 62 62 62 62 62 61 61 61
59 60 59 59 60 60 60 60 61 61 62 62 62 61 61 61 61 60 61 61 61 61 61 61 61 61 61 61 62 62 61 62 62 62 62 62 62 61 62 62 62 61
59 59 59 59 59 59 60 61 61 61 62 62 62 61 61 60 60 60 60 61 61 61 61 61 61 61 61 61 62 61 61 61 61 61 61 61 61 61 62 62 62 62
58 59 60 60 60 59 59 60 61 61 61 62 61 61 60 60 60 60 60 60 60 60 60 60 60 60 60 61 61 61 60 61 61 60 60 60 60 60 61 61 61 61
55 58 60 60 60 60 60 60 60 61 61 61 61 61 60 60 61 60 58 57 57 56 57 58 58 59 59 59 59 59 60 60 60 60 60 59 58 58 58 58 58 58
53 55 58 59 59 59 60 60 61 60 60 60 60 60 60 59 58 57 57 56 55 55 55 55 55 54 54 53 56 60 59 60 59 59 60 59 58 57 56 56 56 57
52 53 56 58 59 59 59 60 60 60 60 59 59 59 58 57 56 56 55 55 55 54 54 53 51 51 46 44 48 52 59 59 59 58 58 58 58 57 55 54 54 54
51 52 54 57 58 58 59 59 59 59 58 57 56 55 55 54 54 54 54 54 54 54 52 51 50 47 43 44 46 47 53 59 59 58 57 57 57 56 55 54 53 52
51 51 53 56 57 57 58 57 57 56 55 54 54 53 53 53 52 51 52 52 53 52 50 50 49 43 43 44 45 46 48 54 58 57 57 56 56 55 54 53 52 52
50 50 52 53 54 54 54 53 52 51 50 50 50 50 50 49 50 49 50 51 52 51 50 49 49 45 43 43 43 44 46 50 56 55 55 54 54 53 52 52 52 53
49 49 50 52 51 51 50 49 49 48 47 47 47 47 47 47 46 47 49 49 50 50 50 49 47 42 41 42 43 44 45 48 53 53 52 51 50 50 50 50 50 50
48 49 49 49 49 49 48 47 46 46 45 45 45 44 44 45 44 46 46 47 48 49 49 47 45 41 41 42 44 44 47 52 52 51 50 50 50 50 50 50 50 50
47 48 48 48 48 47 46 46 45 45 45 45 43 43 43 43 43 44 45 45 47 47 48 46 46 42 41 43 44 45 48 52 51 50 49 48 48 49 50 50 50 50
46 48 48 47 46 45 45 44 44 44 44 44 43 43 43 43 44 44 44 45 45 46 47 47 45 43 41 42 44 45 49 51 50 49 48 48 48 48 48 48 49 50
46 47 47 47 46 45 45 44 44 43 44 44 44 43 43 44 44 43 44 44 44 45 48 46 45 44 42 42 44 45 49 52 51 50 48 48 48 47 47 47 47 45
45 45 46 47 46 46 45 45 45 44 44 44 44 44 43 43 43 43 42 42 43 44 44 44 44 44 42 41 42 44 46 52 52 51 48 47 48 48 47 47 47 46

ECMWFNIL_sfc_temp_075.txt.gz
Temp
66 66 67 68 68 68 67 67 67 67 67 68 66 67 66 66 67 66 65 65 65 65 65 65 67 69 68 68 67 66 67 67 67 67 67 66 66 68 69 69 69 71
67 67 68 68 68 68 67 67 68 68 68 68 68 68 67 67 66 67 67 66 65 65 65 65 66 67 67 66 66 66 66 67 66 68 67 67 66 67 68 69 70 71
66 66 67 67 67 67 67 68 68 68 68 69 69 68 68 68 67 67 67 67 67 66 64 65 65 66 65 66 66 66 67 67 66 67 67 67 66 67 68 69 71 71
65 66 66 67 67 67 68 68 68 66 66 67 69 70 69 68 68 67 67 67 67 66 65 65 65 65 66 67 67 66 67 67 68 67 66 65 66 67 67 68 69 71
64 65 67 68 68 67 67 68 67 67 68 68 69 69 68 67 67 67 66 67 67 66 65 65 65 65 65 66 67 66 67 67 67 67 65 64 65 65 67 65 66 68
64 67 68 68 67 66 66 66 67 68 68 66 67 68 67 66 67 67 67 67 67 66 65 65 64 64 66 65 65 66 67 66 66 67 65 65 65 66 67 66 67 67
62 65 65 66 65 65 65 66 67 68 69 69 68 66 65 65 67 68 69 69 69 68 68 66 65 65 66 66 66 66 67 66 66 67 67 65 65 65 66 65 68 69
61 64 65 65 64 63 64 67 68 68 68 69 67 66 66 66 67 68 68 69 69 69 69 69 68 68 67 66 66 66 66 66 66 67 66 66 64 64 64 66 67 69
60 62 64 64 63 63 64 66 67 68 69 67 66 66 67 67 67 67 67 68 68 68 70 69 68 68 67 66 66 66 66 65 66 67 67 65 64 64 65 67 68 70
61 61 62 62 63 63 63 64 65 67 68 66 66 67 67 67 67 67 67 67 67 68 69 69 68 67 67 67 67 67 67 66 67 67 67 66 65 66 67 68 70 70
59 60 61 61 62 62 62 63 64 65 66 66 66 66 67 67 66 67 67 67 66 67 68 68 68 67 66 66 67 68 68 67 66 67 67 66 65 65 66 67 71 70
59 59 59 60 61 62 63 65 66 66 66 66 66 66 67 66 66 66 67 68 68 69 70 70 69 68 68 67 68 68 67 66 66 65 65 64 63 63 66 68 71 71
58 59 59 60 61 62 64 65 67 66 66 66 67 67 66 66 66 66 66 68 69 69 70 70 70 70 69 68 68 68 66 65 66 66 65 64 63 64 65 71 72 72
56 58 59 60 61 63 64 64 64 65 65 66 66 65 65 66 66 66 66 67 68 69 70 70 69 69 70 69 69 69 67 66 65 65 67 65 63 63 65 66 69 70
56 56 57 59 60 61 63 64 64 64 64 65 65 65 65 66 66 66 66 65 67 68 69 68 68 68 69 68 68 68 67 65 64 66 67 66 64 63 64 66 69 69
55 56 57 58 58 60 62 64 65 65 64 65 65 66 65 65 65 65 66 66 65 67 68 67 67 68 63 57 59 67 65 64 64 64 64 63 63 63 65 64 65 67
55 55 56 56 58 59 62 64 65 65 64 65 64 64 63 63 63 63 64 65 66 66 66 65 65 65 52 48 50 53 63 63 64 65 64 62 63 64 63 64 66 69
54 55 55 55 56 56 58 60 61 62 62 63 63 62 62 61 60 61 62 63 64 66 65 63 64 54 46 47 47 49 55 65 65 65 64 64 65 66 66 65 65 64
53 54 54 54 54 54 53 53 54 56 55 55 56 58 59 58 59 59 60 61 62 62 62 59 58 45 44 46 45 47 50 59 68 67 65 65 66 66 65 65 64 64
52 53 53 53 53 52 51 51 51 50 50 50 51 53 54 54 54 55 56 56 57 57 57 57 56 45 42 44 44 45 47 56 67 66 65 65 65 64 63 64 64 64
51 52 51 52 53 52 50 50 48 48 48 48 48 47 48 48 49 49 50 51 51 52 52 52 50 42 41 42 43 45 47 53 63 62 62 61 61 62 63 63 64 65
49 51 51 52 52 51 50 48 48 47 46 47 47 47 47 47 47 47 47 48 49 49 49 48 46 41 41 43 44 45 49 61 61 60 59 59 59 60 60 61 62 64
49 50 50 50 51 51 50 49 48 46 46 47 46 46 46 45 45 45 46 46 47 47 46 45 46 42 41 43 45 47 52 61 61 62 60 59 59 59 60 60 61 63
50 50 49 49 49 50 49 49 49 50 48 47 45 45 45 45 45 45 45 45 45 45 45 45 46 43 40 41 44 48 53 60 62 61 59 58 58 58 59 58 56 50
51 50 49 48 48 48 49 49 49 48 48 47 46 45 44 45 45 43 43 43 44 44 46 44 44 43 40 40 42 46 55 60 61 60 58 57 57 55 56 56 55 51
51 50 49 49 49 48 49 49 50 48 47 46 45 45 44 44 44 43 42 42 43 43 43 43 43 43 42 39 41 42 47 59 60 59 56 55 56 56 55 54 55 54

ECMWFNIL_sfc_temp_078.txt.gz
Temp
72 74 73 73 73 73 73 73 73 73 74 74 73 73 73 73 73 72 71 70 69 68 69 70 72 73 73 71 68 66 67 68 69 71 71 70 69 71 73 74 73 75
70 71 73 73 73 73 72 72 72 73 74 74 74 74 74 74 73 73 72 70 69 69 70 70 71 72 72 71 67 66 66 67 68 71 70 70 72 72 72 73 72 73
68 68 69 70 70 71 71 72 72 72 72 74 75 75 74 74 74 74 72 72 70 69 69 70 70 70 70 71 70 68 68 68 70 73 71 71 71 72 73 73 72 71
67 67 68 69 70 71 73 73 72 72 72 73 74 75 74 74 73 72 72 72 72 71 70 70 71 70 70 71 70 68 68 68 70 71 71 71 71 71 71 72 73 73
66 66 67 68 69 71 71 72 72 72 72 73 73 73 73 72 72 73 73 72 72 71 71 70 70 70 70 70 69 66 67 67 68 68 68 69 68 71 72 72 73 73
67 68 69 69 69 68 70 72 73 73 73 72 71 69 71 74 73 73 74 74 73 71 70 70 70 70 71 70 68 67 67 67 67 66 66 67 69 72 72 72 72 72
65 67 68 69 68 69 70 71 72 72 71 70 69 66 68 71 73 74 75 75 74 72 72 70 70 69 70 70 69 68 67 67 68 68 68 67 71 70 72 71 71 73
66 67 69 70 69 69 69 71 72 71 68 67 68 68 68 70 74 74 74 74 73 73 72 71 70 70 70 69 69 68 66 67 68 68 69 71 71 71 71 71 70 72
65 67 67 67 68 69 69 69 69 70 71 69 68 67 70 72 72 72 72 73 73 72 72 72 70 70 69 69 70 69 68 67 68 69 68 69 69 69 69 71 70 70
64 65 65 65 66 68 68 69 70 70 71 70 69 68 69 71 71 72 71 71 71 72 73 73 72 71 70 70 70 70 69 68 68 69 69 70 69 70 70 71 71 71
62 62 62 63 63 65 67 69 70 70 71 71 70 68 69 70 71 71 70 71 70 71 74 74 72 71 69 70 70 71 71 70 70 70 69 68 69 72 70 71 72 71
61 62 62 62 62 63 64 66 68 70 70 69 71 71 71 70 71 71 70 70 71 72 74 74 72 71 73 72 72 72 72 72 71 71 69 69 72 73 73 72 72 72
60 61 61 61 62 63 64 66 68 69 70 70 70 70 70 70 71 71 71 70 71 72 73 73 73 73 74 74 74 74 73 73 72 69 67 67 72 72 72 72 73 73
60 61 61 62 63 64 64 66 68 69 69 70 69 69 69 69 70 71 71 71 71 71 72 72 71 70 74 74 74 74 73 72 71 69 70 71 71 71 71 71 72 73
60 61 62 63 64 64 63 63 64 66 67 69 69 69 69 70 70 70 70 70 70 70 71 70 68 66 68 70 73 72 72 71 70 70 71 70 69 69 69 69 71 72
61 61 63 63 63 63 64 63 63 63 63 64 64 65 68 69 71 70 70 69 68 69 70 68 66 68 67 59 61 70 70 72 71 71 71 70 68 67 66 68 69 70
61 62 62 62 63 63 64 63 63 62 62 61 61 62 64 66 67 68 69 69 69 69 68 68 67 67 56 51 51 53 65 71 70 69 69 68 67 66 65 66 67 69
61 61 61 61 62 63 62 63 62 62 62 62 62 61 61 62 63 64 66 67 67 68 68 67 66 58 50 49 50 49 57 71 71 70 69 67 66 67 68 67 67 66
62 61 61 61 62 62 62 62 61 59 59 59 59 59 59 58 58 58 58 59 61 65 66 67 66 53 48 49 48 47 49 60 73 71 69 68 66 66 67 68 68 66
61 61 61 60 60 61 61 60 59 56 56 56 57 58 57 56 54 54 54 55 55 56 58 60 57 42 41 44 46 46 47 54 72 69 69 69 69 68 68 69 70 69
59 60 60 60 60 60 59 59 57 56 55 55 54 54 54 53 52 52 53 53 53 54 54 53 51 40 41 42 42 44 45 50 67 70 69 69 70 70 70 71 72 71
59 58 58 59 59 58 58 57 56 55 54 54 53 52 53 53 53 53 52 53 52 52 51 50 49 39 39 41 42 42 43 60 66 67 66 68 68 70 71 72 72 71
58 58 57 57 57 56 56 55 54 54 53 53 51 51 50 49 50 50 51 52 51 50 49 47 48 42 39 40 41 40 47 61 62 63 64 65 66 67 68 68 69 70
58 57 56 56 56 55 55 55 55 54 53 53 51 49 48 48 48 48 48 49 49 48 47 45 45 43 39 40 40 39 45 58 60 62 63 62 62 65 65 64 58 48
58 57 56 56 55 55 54 54 53 51 51 53 52 52 51 51 49 47 46 47 47 47 46 45 44 43 40 40 41 41 46 56 58 60 62 61 60 60 64 64 60 54
58 57 56 55 56 55 55 54 53 51 50 51 52 52 52 52 50 49 47 46 46 45 44 45 44 43 41 40 41 41 42 53 57 57 56 57 59 61 61 60 60 58

ECMWFNIL_sfc_temp_081.txt.gz
Temp
72 72 73 74 74 75 74 71 68 68 68 70 70 70 73 77 77 75 76 75 74 74 74 73 74 74 74 73 72 71 71 71 72 73 72 71 70 70 69 69 69 68
70 70 71 72 74 75 74 74 72 71 70 70 72 72 72 72 71 68 72 74 74 74 75 74 74 74 73 73 72 70 71 71 71 74 72 72 70 69 69 69 68 67
69 69 69 70 70 72 73 75 75 74 74 73 73 73 71 71 70 70 68 69 73 74 73 74 74 74 74 73 72 70 70 71 71 73 73 72 71 67 69 68 67 66
69 69 69 69 70 71 73 73 74 75 75 73 72 72 71 70 69 68 68 69 71 73 74 74 74 75 74 73 71 69 70 71 73 73 72 72 72 70 68 67 66 66
68 69 70 70 70 70 71 72 73 74 71 70 72 70 69 68 68 67 67 67 69 70 71 74 75 74 74 73 72 69 69 68 70 71 71 70 71 70 70 67 66 66
68 69 70 69 70 69 69 71 73 73 73 69 68 72 71 69 67 66 66 69 69 68 69 71 74 74 74 73 72 71 70 69 69 70 70 70 70 70 71 70 70 70
67 67 67 69 69 70 69 71 72 73 74 73 72 72 73 71 69 69 69 69 68 67 67 68 72 75 74 73 72 71 71 71 71 71 71 71 71 71 72 71 71 71
67 67 68 68 67 67 68 70 72 73 73 74 73 74 74 73 73 72 71 69 67 66 65 66 68 74 75 74 72 71 71 71 71 70 70 70 71 71 70 70 69 69
67 67 67 66 66 66 66 67 68 70 74 73 73 73 75 73 73 73 71 69 67 65 66 67 69 70 75 74 73 72 72 72 71 70 69 70 69 69 71 71 68 67
66 66 66 65 64 65 65 65 66 68 70 72 73 73 73 74 74 73 71 69 67 66 66 67 68 72 75 75 74 73 73 72 72 71 70 70 70 70 71 70 70 68
64 64 64 64 64 65 64 65 66 67 69 71 73 73 74 74 73 74 71 68 67 67 67 69 69 68 73 74 73 73 73 72 71 71 70 72 71 71 69 70 71 71
64 63 63 64 64 65 65 66 66 66 66 68 70 72 73 73 73 74 74 72 69 68 68 69 71 69 70 71 72 73 73 72 72 71 71 70 70 68 71 71 70 71
64 63 63 64 64 64 65 66 67 66 66 66 67 69 71 72 73 74 74 72 73 72 71 69 68 66 67 71 74 75 74 73 71 68 67 66 70 73 73 71 70 71
64 64 64 65 65 66 65 66 66 67 66 67 66 65 67 69 70 71 72 74 72 71 73 70 67 66 68 69 72 73 73 71 69 68 67 66 68 71 70 70 70 69
65 65 66 66 66 67 66 66 66 66 66 66 66 66 66 66 67 68 70 71 72 71 71 70 67 66 68 69 71 72 71 68 68 68 66 66 65 68 69 69 69 69
66 66 66 66 66 66 66 66 66 66 65 65 64 65 64 64 65 67 68 67 67 69 72 70 68 66 64 58 57 66 70 68 67 65 66 65 64 66 65 66 67 70
65 65 66 66 65 66 65 66 66 65 64 63 62 62 62 63 63 63 64 63 64 65 65 66 67 67 53 51 50 48 59 65 65 65 64 63 63 64 63 65 69 69
65 65 65 64 65 65 64 65 64 64 62 61 60 59 59 60 60 60 60 61 61 62 62 63 63 49 40 42 45 47 50 61 64 63 63 63 63 65 64 67 67 68
64 64 64 63 63 63 63 63 62 62 60 59 58 58 58 57 58 58 58 59 59 59 59 61 62 46 40 41 42 42 44 52 65 64 62 63 63 65 68 66 65 66
63 62 62 62 61 61 61 61 60 59 59 58 57 57 56 56 56 56 56 57 57 57 57 58 58 46 40 40 42 41 41 44 63 64 64 64 64 67 67 66 67 69
61 60 60 61 61 60 60 59 58 57 57 57 57 55 55 54 54 54 54 55 55 54 54 54 55 43 40 38 39 42 42 43 58 64 63 62 63 66 66 65 67 69
60 60 59 60 60 59 58 58 57 56 55 56 56 56 55 54 54 54 53 53 52 51 50 51 54 44 40 39 38 41 42 52 57 61 62 62 64 65 65 65 67 67
59 58 58 59 60 59 59 58 57 56 56 56 55 55 54 54 53 52 52 50 49 50 48 49 51 46 40 39 40 38 45 55 56 60 62 63 64 63 63 63 62 65
59 59 58 58 59 58 58 59 59 58 56 56 54 53 53 54 54 54 52 50 49 48 48 46 48 47 41 39 40 39 45 56 58 60 60 59 60 62 59 55 53 49
59 58 58 57 57 57 57 57 58 58 58 57 56 55 53 54 55 54 52 50 49 48 47 46 45 46 41 39 40 41 48 59 59 59 57 56 57 57 58 57 54 50
59 58 57 57 57 58 58 57 58 58 58 57 56 56 54 53 52 53 51 50 49 48 47 46 43 44 43 38 39 41 42 52 54 53 52 51 50 50 51 51 51 50

ECMWFNIL_sfc_temp_084.txt.gz
Temp
68 68 67 67 68 69 69 69 70 69 67 66 67 67 66 67 68 67 67 67 67 68 69 69 70 70 71 70 67 67 65 65 67 67 68 68 67 67 67 67 67 67
67 68 67 67 67 68 69 69 70 69 69 67 67 67 67 68 68 69 67 66 66 66 67 68 67 68 68 69 68 66 65 67 66 69 67 66 67 68 67 68 67 68
67 66 67 67 67 68 68 69 69 70 69 69 68 68 68 69 68 69 69 68 66 66 67 67 67 67 67 68 67 65 65 66 67 68 68 67 65 67 68 68 67 67
66 66 66 67 67 67 68 68 69 70 70 70 69 70 69 68 67 67 69 69 68 67 67 67 67 67 68 69 68 65 66 66 68 69 67 67 67 66 66 67 66 66
66 66 66 66 67 67 66 67 68 69 70 70 71 70 69 69 67 67 68 69 68 67 67 67 66 65 66 67 68 65 66 65 66 66 66 66 67 68 66 65 67 66
66 67 67 67 66 65 65 66 67 67 68 68 69 70 69 69 69 68 68 68 68 67 67 67 67 66 66 66 66 66 66 65 65 66 66 67 66 66 67 67 66 65
64 65 64 66 65 65 65 65 65 65 66 67 68 69 70 69 69 69 69 69 69 68 68 67 67 66 66 65 65 65 65 65 65 66 66 66 66 65 65 66 65 65
64 64 64 64 64 64 64 65 65 65 66 67 67 68 70 70 70 69 68 67 68 70 69 68 66 66 66 65 64 64 64 64 64 64 65 65 65 65 65 64 64 64
64 64 63 63 63 63 64 65 65 66 67 65 66 67 69 70 69 69 68 69 67 65 68 69 68 66 65 64 64 64 64 64 64 64 65 65 65 64 65 66 65 64
64 64 63 63 63 63 63 64 65 65 66 66 66 67 67 68 69 70 70 69 68 65 65 67 68 67 66 65 65 65 64 64 64 65 64 64 65 66 65 64 65 64
63 63 63 63 63 63 63 64 64 65 65 66 66 66 66 66 67 69 68 68 67 67 67 65 64 65 66 66 66 65 65 65 65 65 64 64 65 66 65 64 63 63
63 63 63 64 64 64 64 64 65 65 65 65 65 65 65 65 65 66 66 66 68 68 68 66 66 65 65 66 67 66 64 64 64 64 64 64 65 65 64 64 64 64
63 62 63 63 63 64 64 64 65 64 64 64 63 63 63 62 63 63 64 65 66 67 65 64 65 65 64 65 66 66 65 65 64 64 64 63 64 64 65 65 65 66
62 63 63 63 64 64 64 63 64 63 63 62 62 60 60 60 61 61 62 63 63 63 64 63 63 64 63 59 57 60 61 63 63 63 63 63 64 64 65 65 65 64
62 63 63 63 63 63 63 62 62 62 62 61 60 59 59 59 59 60 59 60 60 61 62 62 62 59 50 49 49 50 52 57 62 63 63 63 62 63 64 65 65 65
62 61 62 62 61 61 61 61 61 61 60 59 59 59 58 58 58 58 58 57 57 58 59 59 60 54 49 45 46 47 47 52 57 61 62 62 63 63 63 65 65 64
61 60 61 60 60 60 60 60 60 59 59 58 58 58 57 57 57 56 56 56 55 55 55 56 58 51 45 42 42 43 45 48 52 56 61 62 62 62 63 63 64 65
60 60 59 59 60 59 59 59 59 58 57 57 57 56 56 56 55 55 54 54 54 53 53 53 55 47 42 42 42 41 42 44 48 53 58 61 63 63 63 63 63 63
59 59 59 59 59 59 59 59 58 57 56 56 55 56 56 55 55 54 53 53 52 51 51 52 53 47 43 42 41 40 39 41 47 53 56 59 61 62 63 63 63 61
59 58 58 58 59 59 59 59 57 56 56 56 55 55 55 55 54 53 52 52 51 50 50 50 51 46 42 41 40 39 39 39 44 50 55 58 61 62 62 63 63 62
58 58 57 57 58 58 58 58 57 56 56 55 55 54 54 53 54 53 52 51 50 50 49 48 49 44 41 40 39 39 39 39 46 52 56 58 60 62 63 63 63 62
57 56 56 57 57 57 57 56 56 56 55 55 55 55 54 54 54 54 52 50 50 49 48 47 47 43 41 40 39 39 39 46 52 55 56 58 59 61 62 62 62 62
56 55 55 55 56 56 56 55 55 55 55 56 54 54 52 52 52 52 52 50 49 48 47 46 47 44 41 39 39 39 42 49 54 55 57 58 60 61 60 59 59 61
56 55 54 54 55 55 55 55 55 56 55 55 54 53 52 52 52 52 51 50 48 47 47 46 46 45 41 40 39 39 42 50 54 55 54 53 52 51 51 51 50 49
56 56 55 54 54 54 55 54 54 54 55 55 55 54 53 53 52 51 50 50 49 48 48 46 46 45 42 40 40 39 41 48 51 50 48 48 48 49 49 48 48 47
57 56 55 55 54 54 55 54 55 54 54 53 53 54 53 52 52 51 49 48 48 47 46 46 45 45 44 40 40 40 40 44 48 47 46 45 46 45 46 46 46 45

ECMWFNIL_sfc_temp_087.txt.gz
Temp
63 63 63 63 63 63 64 64 64 65 65 65 63 63 62 63 64 63 64 64 64 64 64 64 65 65 65 64 64 63 64 64 63 64 65 64 63 64 63 63 64 63
63 63 63 64 64 64 63 63 63 63 64 64 65 64 63 63 64 64 64 64 64 64 64 64 64 63 63 63 64 64 64 64 63 65 63 62 63 63 63 63 63 64
63 62 62 62 62 62 62 61 62 62 62 63 64 65 65 65 64 63 64 64 64 64 64 64 64 64 63 62 63 63 63 63 63 64 63 63 63 63 63 63 63 63
61 61 62 63 63 62 62 60 61 61 61 61 63 65 66 66 66 64 63 65 64 65 64 64 64 64 63 64 63 63 62 63 64 64 64 64 64 64 63 63 63 63
61 61 61 61 62 63 63 62 61 61 61 61 62 64 65 66 66 66 65 65 65 64 64 63 63 63 62 63 63 62 62 62 63 63 62 62 63 63 63 63 63 63
60 62 62 60 60 61 62 62 63 62 62 62 62 63 64 66 66 65 65 66 65 64 64 64 63 63 62 63 62 62 62 62 63 63 62 62 62 63 63 63 63 62
56 57 57 57 57 58 59 61 62 63 63 64 64 63 64 65 65 65 66 65 65 64 63 63 64 63 62 61 61 62 62 62 62 63 63 62 62 62 62 63 62 63
57 58 58 57 57 58 58 59 61 62 63 64 63 64 65 64 65 65 65 64 63 64 64 63 62 62 63 62 61 61 61 62 62 62 61 62 63 63 64 64 62 62
57 58 59 58 59 59 60 61 62 62 63 62 62 62 63 63 62 63 63 64 64 63 64 63 63 62 62 63 63 62 62 62 62 62 61 61 61 62 63 63 61 61
58 58 59 60 60 60 60 61 61 61 61 60 59 59 59 60 60 61 62 61 61 62 62 62 62 62 60 59 59 59 61 62 63 62 62 62 62 62 63 62 61 61
57 58 58 58 58 58 58 60 60 59 59 58 57 57 57 57 58 58 58 58 58 59 60 60 60 54 53 53 53 54 53 54 57 61 63 63 63 63 64 63 62 62
58 58 57 57 57 58 59 59 59 58 57 57 57 57 57 57 57 57 57 56 56 56 57 57 57 52 51 51 51 51 51 51 53 55 59 62 63 62 62 62 62 62
56 57 57 57 57 57 59 59 58 58 58 57 58 57 56 56 56 56 56 55 55 55 54 55 55 51 50 49 48 48 48 49 50 52 55 59 62 63 63 63 63 62
56 56 57 58 58 58 58 58 57 57 57 58 58 57 56 56 55 55 55 55 54 54 54 54 54 50 49 47 47 47 46 46 47 49 52 55 59 62 63 63 63 63
57 57 58 58 58 57 56 56 56 56 57 57 57 56 56 56 56 55 54 53 53 53 53 53 52 49 48 46 45 44 45 44 45 47 49 52 55 59 62 63 62 62
57 57 58 58 57 56 54 54 54 55 56 56 56 56 56 56 55 54 53 52 51 51 51 51 51 49 48 45 44 43 43 43 44 45 47 50 52 55 59 61 62 62
57 56 57 56 57 57 56 55 54 54 54 55 55 55 54 55 54 53 52 51 50 50 49 49 49 49 44 41 41 41 42 42 42 43 45 47 50 54 57 60 61 62
56 56 56 55 56 56 56 55 54 53 52 53 53 53 53 54 53 52 51 50 49 49 48 48 48 47 42 41 41 40 41 42 42 42 44 47 49 53 56 59 61 62
55 55 55 55 55 55 56 55 54 53 52 51 51 52 52 51 52 51 50 50 49 48 48 48 48 45 41 41 40 40 40 41 42 43 44 45 48 51 54 57 60 61
54 54 53 54 55 55 55 54 53 53 53 52 51 51 50 50 51 50 49 48 48 47 47 47 47 44 41 41 40 40 39 40 46 46 45 47 49 51 54 57 59 60
53 53 53 53 54 53 53 52 52 52 52 52 51 50 50 49 49 48 48 48 47 47 46 46 46 43 41 40 40 40 39 42 51 53 53 53 53 54 56 57 58 60
51 51 50 50 51 50 50 49 50 50 50 51 51 51 51 50 50 49 47 47 47 46 45 45 46 42 41 40 40 40 40 46 50 51 50 49 50 50 50 51 52 53
49 49 48 48 49 48 48 47 47 48 48 50 49 50 49 49 48 48 48 47 46 46 45 44 45 44 41 40 40 40 42 45 46 48 48 47 47 48 48 49 49 50
48 47 47 46 47 47 47 47 47 48 48 49 48 48 48 49 49 48 48 47 46 45 45 44 44 44 41 40 40 40 42 44 44 45 46 45 46 47 47 46 47 48
47 47 47 46 46 46 47 46 46 46 47 48 48 48 48 49 49 48 47 47 47 46 47 44 43 43 42 40 40 40 42 44 43 43 43 44 44 44 45 45 45 46
47 47 46 47 45 45 46 46 45 45 45 45 46 46 46 47 48 47 46 46 46 46 45 44 43 43 43 40 40 40 40 43 42 41 41 42 43 43 43 44 44 44

ECMWFNIL_sfc_temp_090.txt.gz
Temp
60 59 60 59 60 60 61 61 61 61 61 61 61 61 62 63 65 64 64 63 62 62 63 63 64 64 64 63 63 63 63 63 63 63 63 63 62 62 62 62 62 62
59 59 59 58 58 59 59 59 60 61 61 61 62 62 63 64 64 64 64 63 63 63 64 64 63 63 63 62 62 61 62 63 62 64 63 62 62 62 62 62 62 62
56 56 56 56 56 56 57 57 58 59 59 60 62 62 63 64 64 64 64 65 64 64 64 63 63 62 62 63 62 61 61 61 62 64 63 62 62 61 62 62 62 62
55 55 56 56 56 57 57 57 57 58 58 58 59 61 63 64 64 63 63 64 63 64 64 64 63 63 63 63 63 62 61 61 62 62 62 62 62 62 62 62 62 62
55 55 56 56 56 57 56 57 58 58 58 58 59 60 61 62 62 62 62 62 62 62 63 63 63 63 63 63 63 61 61 61 62 62 62 62 63 62 62 62 62 61
56 56 56 56 57 57 58 59 59 59 58 57 57 58 58 59 59 60 61 60 61 61 62 62 62 61 59 59 61 61 61 61 61 61 61 62 62 62 62 62 61 61
55 56 56 58 59 59 59 59 58 57 57 57 57 56 56 56 56 57 58 58 59 59 60 60 56 55 55 55 54 54 55 56 59 61 62 62 62 62 62 62 62 62
55 56 56 57 57 57 57 57 56 56 56 56 55 55 56 55 55 55 56 56 55 56 57 57 54 54 53 53 52 52 53 54 54 54 57 60 62 62 62 62 62 62
55 55 55 54 54 55 55 56 57 57 58 56 56 56 56 56 55 55 54 54 54 54 54 55 53 52 51 51 50 50 50 51 51 52 53 55 58 61 62 62 62 62
54 54 54 54 55 56 55 56 57 57 58 57 56 56 55 56 56 55 55 54 53 52 52 53 51 51 49 49 48 48 48 48 49 50 51 53 55 57 61 62 62 62
52 52 53 53 54 54 53 55 56 57 57 57 56 56 55 55 55 55 54 53 52 52 52 53 50 50 48 47 47 47 46 47 47 48 49 50 52 54 58 60 62 62
52 53 52 52 53 52 52 53 55 56 56 56 56 55 55 54 54 54 53 52 52 52 52 52 51 49 48 47 46 46 45 45 46 46 47 48 50 52 55 57 60 62
55 55 54 52 52 51 52 52 53 55 55 55 56 55 54 53 53 52 52 52 52 51 51 51 51 49 48 46 45 44 44 44 44 45 46 47 48 50 52 54 57 61
55 55 55 55 53 52 52 51 52 53 54 54 54 54 54 53 51 51 51 51 51 50 50 50 50 48 47 46 44 44 43 43 43 44 44 45 46 48 50 52 54 58
54 55 55 54 54 53 52 51 51 51 52 52 52 52 53 52 50 50 49 49 50 50 50 50 48 47 47 45 43 43 43 42 43 43 44 44 45 47 48 50 52 54
54 54 54 54 54 53 53 51 50 51 51 50 50 50 50 50 49 49 49 49 49 49 49 48 48 47 47 44 43 43 42 42 43 44 44 45 45 46 47 50 51 53
52 52 53 52 52 53 53 52 52 52 51 50 49 49 49 49 48 47 47 47 47 47 47 47 47 47 43 40 41 42 43 43 43 44 46 47 46 46 47 49 51 53
50 50 50 50 50 50 50 50 50 50 50 49 48 47 48 47 46 46 46 46 46 46 46 47 47 45 40 41 40 40 43 44 45 46 49 50 49 48 48 49 50 52
49 49 48 48 48 48 48 48 48 47 48 48 47 48 47 45 45 45 44 45 44 44 44 45 45 44 40 40 40 40 40 44 47 48 49 49 49 49 50 50 51 51
48 48 47 47 47 47 47 46 46 45 46 46 47 47 46 45 45 44 44 44 44 43 43 43 44 43 40 40 40 39 39 42 46 47 48 48 48 48 48 48 48 48
46 46 46 46 46 46 45 45 45 44 45 45 45 45 45 45 44 43 44 44 43 43 42 42 43 42 40 40 40 39 39 43 45 46 47 47 48 48 48 47 47 47
45 45 45 45 45 44 44 44 43 43 43 44 44 44 45 44 44 44 43 43 43 43 42 41 42 42 40 40 40 39 40 44 44 45 45 45 46 47 47 47 47 47
44 44 44 43 43 43 43 42 42 42 43 44 42 42 42 43 43 43 43 43 42 42 42 41 41 42 40 40 39 39 40 42 43 43 44 44 45 46 46 47 46 48
44 43 43 42 42 42 41 41 41 42 41 42 41 40 41 41 42 42 42 42 42 41 43 41 40 42 41 40 39 39 40 41 42 42 42 43 44 45 45 45 46 48
43 43 42 42 42 41 41 41 41 41 41 41 40 40 40 40 42 40 41 41 41 42 45 42 40 42 41 39 39 39 40 41 41 41 40 41 42 43 44 44 44 45
42 43 42 42 41 41 41 40 40 40 40 40 40 39 39 39 39 40 39 40 40 41 41 41 40 40 41 40 40 40 39 40 41 39 38 39 41 42 41 42 42 42

ECMWFNIL_sfc_temp_093.txt.gz
Temp
56 57 57 56 57 59 59 59 60 60 60 60 59 60 60 61 63 62 62 62 62 62 62 62 62 62 63 64 64 63 63 63 63 63 62 62 62 62 62 62 62 62
55 56 57 56 56 56 56 57 58 58 58 58 59 59 60 61 61 62 61 61 61 62 62 62 62 61 62 62 63 62 62 62 62 63 62 62 62 62 62 62 62 62
54 54 54 54 53 54 54 55 55 55 55 55 57 58 58 59 59 60 60 60 60 60 61 59 57 57 57 58 59 60 61 61 61 62 62 62 62 62 62 62 62 62
55 54 54 54 55 54 55 54 54 54 53 53 53 55 56 56 57 57 57 59 58 59 59 56 56 55 55 55 55 54 55 57 59 60 61 62 62 62 62 62 62 62
54 54 54 54 54 54 54 53 53 53 52 52 53 54 54 53 54 55 55 56 56 56 57 55 55 54 54 53 54 52 53 53 54 54 55 58 61 62 62 62 62 61
54 54 55 54 54 53 53 53 54 54 53 53 53 54 53 53 52 52 53 53 54 54 55 54 53 52 52 51 51 51 51 51 52 52 52 53 55 59 62 62 62 61
52 52 53 54 53 54 54 54 56 56 55 55 55 53 53 53 53 52 53 53 53 53 54 52 51 50 50 49 48 48 48 49 50 51 51 51 53 54 58 60 62 62
52 52 52 52 52 53 55 56 56 56 56 55 54 54 55 54 54 54 53 52 52 52 53 52 51 49 49 48 47 46 46 47 47 48 48 49 50 51 54 56 58 60
51 51 52 51 51 51 54 55 56 56 57 55 54 53 54 54 54 54 53 53 52 52 52 51 50 49 49 47 46 46 45 45 46 46 47 47 48 49 51 53 54 56
50 50 50 50 50 50 52 54 55 55 56 55 54 53 51 52 53 53 53 52 51 51 51 51 50 49 48 47 46 45 44 44 45 46 46 47 47 48 48 50 51 53
49 49 49 49 50 50 50 51 52 53 53 53 53 51 50 49 50 51 51 51 50 50 50 50 49 48 47 47 46 46 45 45 45 45 46 46 47 47 49 49 49 50
51 50 50 49 49 49 50 50 51 51 50 51 52 51 49 48 48 49 50 50 50 50 50 49 49 48 47 46 45 45 45 45 45 45 45 46 47 47 48 49 49 49
50 50 49 48 49 49 49 50 50 49 49 49 50 49 48 48 49 49 50 50 50 50 49 49 48 47 46 45 44 44 44 44 44 44 45 46 47 48 48 49 49 50
50 50 50 50 49 49 48 48 49 49 48 49 49 47 47 47 47 47 48 49 49 49 49 49 48 46 45 44 43 43 43 44 44 45 45 46 47 48 49 49 50 50
50 50 50 49 49 48 48 47 47 47 47 47 47 47 47 46 46 46 46 46 47 48 47 47 46 45 44 43 42 42 43 43 44 45 46 46 47 49 51 50 50 51
48 48 48 48 48 47 47 47 46 47 47 46 46 46 45 46 45 45 45 44 44 44 45 45 45 44 45 43 43 42 42 43 44 45 47 47 48 49 49 50 50 51
47 46 46 46 46 46 46 46 46 46 45 45 45 45 45 45 45 43 43 43 43 43 43 43 43 45 42 40 40 41 42 43 43 45 47 47 48 48 47 48 49 49
46 45 45 45 45 45 45 45 45 45 44 44 44 44 44 44 43 43 43 43 43 42 42 43 43 44 40 40 40 40 41 42 44 45 46 46 47 47 47 47 47 48
44 44 44 43 43 43 44 44 43 43 43 43 43 44 43 42 42 42 42 42 42 41 41 42 42 43 40 40 40 39 39 41 43 44 45 45 46 46 46 47 47 46
43 43 42 42 42 42 42 42 42 41 41 42 42 42 42 42 41 41 41 41 42 41 40 41 41 42 40 40 40 39 39 40 42 43 44 45 45 46 46 46 46 46
42 41 41 41 41 41 41 41 40 40 41 41 40 40 40 40 40 40 41 41 40 40 40 40 41 42 40 40 39 39 39 41 41 42 43 44 45 45 45 45 46 46
40 40 40 40 40 40 40 40 39 39 39 40 40 39 39 39 40 40 39 39 40 40 40 39 40 41 40 40 39 39 40 41 41 41 41 42 43 44 45 45 45 45
39 39 39 39 39 39 38 38 38 38 38 40 38 38 38 38 38 38 39 38 39 39 39 39 39 41 40 40 39 39 40 40 40 41 41 41 41 43 44 44 44 45
39 38 38 38 37 37 37 37 37 38 38 39 36 36 37 37 38 38 38 38 38 38 40 39 38 41 41 40 39 39 40 39 40 40 40 40 40 42 43 43 44 46
38 38 37 37 37 36 37 37 37 37 37 37 37 36 37 36 40 37 37 37 38 38 43 39 38 40 41 39 40 39 40 40 39 39 38 38 39 40 43 42 42 43
40 39 38 37 36 36 36 37 37 36 37 37 37 36 37 36 37 37 36 37 37 37 38 38 38 39 41 40 40 40 39 40 39 37 36 37 38 40 40 40 41 41

ECMWFNIL_sfc_temp_096.txt.gz
Temp
54 55 54 54 54 54 53 53 54 53 54 54 54 55 55 56 58 57 58 59 59 57 57 56 56 56 56 56 56 57 57 58 60 61 60 62 62 62 62 62 62 62
54 55 55 54 53 53 53 53 52 52 52 52 54 54 55 55 55 56 56 57 58 57 56 55 55 55 55 54 55 54 55 55 55 57 56 57 59 61 62 63 62 63
53 53 53 52 52 52 52 53 52 52 52 52 53 53 53 54 53 54 55 55 56 56 55 55 54 53 53 52 52 53 52 53 54 54 54 54 55 57 59 61 62 62
52 53 52 52 52 52 53 52 52 53 52 52 52 53 53 53 53 52 53 54 54 55 54 53 52 52 51 51 50 49 49 50 51 52 52 53 54 54 55 57 60 62
51 52 52 52 52 52 52 53 53 53 52 52 52 53 53 52 52 52 52 52 53 53 53 52 51 50 50 49 49 47 47 47 48 49 49 50 51 52 53 55 56 57
51 51 52 51 52 52 52 53 55 55 54 52 52 53 54 54 53 53 53 52 52 53 52 51 50 49 49 48 47 47 46 46 48 48 48 48 49 51 52 52 53 54
50 50 50 51 51 52 53 54 55 56 54 52 52 50 52 53 53 53 53 52 52 52 52 50 49 48 49 48 47 46 46 46 47 47 47 48 49 50 51 51 51 51
50 50 50 50 50 51 52 52 53 53 54 52 49 49 50 50 52 52 52 52 51 51 50 50 49 49 48 48 46 46 45 46 46 46 46 47 48 48 49 50 50 50
49 49 49 49 49 49 49 50 50 51 53 50 49 49 50 50 51 51 51 51 50 50 49 49 49 48 48 47 46 45 45 45 46 46 46 46 46 47 48 49 49 50
49 49 49 48 48 48 48 49 49 49 51 50 49 49 49 50 51 51 51 50 50 49 49 49 48 47 46 46 45 45 44 44 45 46 46 46 46 47 48 49 49 49
48 48 48 48 48 48 48 48 48 49 49 49 48 47 48 48 50 51 50 50 48 49 49 48 47 46 45 45 44 45 45 44 45 45 46 47 47 47 49 49 49 49
48 48 48 48 48 47 48 48 48 48 48 48 48 46 47 47 47 48 49 48 48 48 48 47 46 46 45 44 44 44 44 44 45 45 46 47 48 49 49 50 50 50
47 47 47 47 47 47 47 48 47 47 47 47 48 47 46 45 46 46 46 46 46 46 46 46 45 45 44 43 43 43 43 43 44 45 46 46 48 49 50 50 51 51
46 47 47 47 47 47 46 46 47 47 47 47 47 46 46 45 45 45 45 46 45 45 46 46 45 44 44 43 43 43 43 43 43 44 45 47 48 49 50 51 51 51
46 46 46 46 46 46 46 46 46 46 46 46 46 46 46 46 45 45 44 44 45 44 44 45 44 44 44 43 42 42 42 42 43 44 45 46 47 48 49 49 50 50
45 46 45 45 45 45 45 45 45 45 45 45 45 45 45 45 44 45 44 43 43 43 44 44 43 44 44 42 42 42 42 42 43 44 45 46 46 46 47 48 49 49
44 44 44 44 44 44 44 44 44 44 44 44 44 44 44 44 44 43 43 43 43 42 42 43 43 44 42 40 40 41 42 42 42 43 45 45 45 45 45 46 47 48
43 43 43 43 43 43 43 43 43 43 42 42 42 42 43 43 42 42 42 42 42 42 42 42 43 44 40 40 40 40 41 42 42 42 43 44 45 45 45 46 46 46
43 43 42 42 42 42 42 42 42 41 41 41 41 42 42 41 41 41 41 41 41 41 41 42 42 42 40 40 40 39 39 41 42 42 42 43 43 44 45 45 45 45
42 42 41 41 41 41 41 41 40 40 40 41 41 41 40 40 40 40 41 40 41 41 40 41 42 42 40 40 40 39 39 40 42 42 42 43 43 43 44 44 45 44
41 40 40 40 40 40 40 40 40 39 40 40 39 39 39 39 39 39 40 40 40 40 40 40 41 41 40 40 39 39 39 40 41 42 42 42 42 43 43 44 45 44
39 39 39 39 39 39 39 39 39 38 38 39 40 39 39 39 39 39 39 38 39 40 40 40 41 40 40 40 39 39 39 41 41 41 41 41 41 42 43 44 45 44
39 39 39 38 38 39 39 38 38 38 38 39 38 38 38 38 38 38 39 38 39 39 39 40 40 41 40 40 39 39 40 41 41 41 41 40 40 41 43 44 44 45
38 38 38 38 38 38 37 37 37 38 38 39 36 37 38 37 39 38 38 38 39 38 41 39 39 41 40 40 39 39 40 40 40 40 39 39 40 41 42 43 44 45
37 37 37 37 38 37 37 37 37 38 37 37 37 36 37 37 40 37 38 38 39 39 42 39 39 41 41 39 39 39 40 41 40 39 38 38 39 40 42 42 42 43
39 40 38 37 36 36 37 37 38 36 36 36 37 36 37 37 37 37 36 38 38 38 39 39 39 40 42 39 40 39 39 40 40 38 37 37 39 40 39 40 41 41

ECMWFNIL_sfc_temp_099.txt.gz
Temp
61 61 61 60 60 60 60 60 60 59 59 60 59 60 59 60 61 61 61 61 60 60 60 59 59 58 58 59 59 59 59 57 58 59 59 59 59 59 59 60 60 61
60 61 61 61 61 61 60 60 59 59 58 58 59 59 59 59 59 60 60 60 60 59 59 58 57 57 57 56 56 56 57 56 56 57 56 56 57 58 58 58 59 60
60 60 60 59 59 59 59 60 59 59 58 58 59 58 58 58 58 59 59 59 58 58 58 58 57 57 57 56 55 55 54 53 53 55 55 56 56 56 57 57 57 57
59 59 59 59 59 59 59 59 59 59 59 58 57 57 57 57 57 57 57 57 57 57 57 57 57 57 56 56 55 54 53 53 53 54 54 56 56 55 56 56 57 57
59 59 60 60 60 60 59 58 57 57 57 56 57 57 56 56 56 56 56 56 56 56 56 56 56 56 56 55 56 54 53 53 53 53 53 54 55 55 56 56 56 56
59 60 60 59 59 58 58 58 57 56 56 55 55 57 56 56 55 55 55 55 55 55 55 55 55 55 55 55 55 54 53 52 52 53 53 54 54 56 56 56 56 56
57 57 57 58 58 58 57 56 55 55 55 55 56 54 56 55 54 54 55 54 55 55 55 54 54 53 54 54 54 54 53 52 52 52 53 54 54 55 56 56 55 56
56 57 57 57 56 56 55 56 55 54 55 56 54 55 56 55 55 54 54 54 55 55 54 55 54 54 53 53 53 52 53 53 51 52 52 52 53 54 55 55 54 55
56 56 56 55 54 55 55 55 55 54 55 54 54 55 55 55 54 55 55 55 55 54 54 54 54 53 53 53 52 53 52 53 53 52 51 51 51 52 53 54 54 54
55 55 55 54 54 54 53 53 54 54 55 54 54 54 54 54 55 55 55 54 53 54 54 54 53 53 53 53 52 52 52 52 54 53 52 51 51 52 52 53 53 53
55 56 55 54 54 53 53 54 54 54 54 54 54 53 54 54 54 55 54 54 52 53 53 53 53 53 52 52 52 52 52 52 53 52 52 52 52 53 52 53 53 53
55 54 54 54 54 53 53 53 54 54 54 54 54 53 54 53 53 53 54 53 53 53 53 53 53 52 52 52 52 52 52 52 53 52 52 52 52 53 54 54 53 53
54 54 54 54 53 53 53 54 53 53 54 53 54 53 53 53 53 53 53 53 53 53 53 53 52 51 50 50 51 51 51 52 52 52 52 52 53 54 55 54 54 54
54 54 54 54 54 54 54 53 53 53 53 53 53 53 52 52 52 52 53 53 52 53 53 53 52 51 49 49 50 50 50 51 51 50 50 52 53 54 54 54 54 54
53 54 54 54 54 53 53 53 52 53 53 53 53 52 52 52 52 52 52 52 52 52 53 53 51 49 48 46 46 48 50 50 50 50 50 50 52 53 53 53 54 54
54 54 54 53 53 52 52 52 52 52 52 52 52 52 52 52 52 52 52 52 51 52 52 51 49 48 45 42 42 45 48 50 51 51 50 50 50 51 51 52 52 53
54 53 53 52 52 52 52 53 52 52 52 52 51 51 51 51 51 51 51 51 51 51 51 51 49 47 41 40 40 40 45 49 51 52 51 51 51 50 49 49 50 52
53 53 53 52 52 53 53 53 52 52 51 51 51 50 51 51 50 50 50 51 51 52 51 50 49 43 40 40 40 40 41 48 52 51 51 51 50 49 49 48 48 49
53 53 53 52 52 52 52 53 52 52 51 51 50 50 50 50 50 50 50 51 51 51 51 51 49 42 40 40 40 39 39 44 52 52 51 51 50 49 48 47 47 47
53 53 52 52 52 52 52 53 52 51 51 51 51 50 49 49 49 49 50 50 50 50 50 51 48 43 40 40 40 39 39 43 52 52 51 51 49 48 47 47 47 46
53 53 52 52 53 52 52 52 51 51 51 51 51 50 49 49 48 48 49 50 50 50 50 50 48 41 40 39 39 39 39 44 51 51 51 50 49 48 48 48 47 46
53 53 52 53 53 52 52 51 50 50 50 51 51 50 50 50 50 50 49 49 50 49 48 48 49 41 40 40 39 39 40 50 50 50 49 48 48 48 49 49 49 48
53 53 52 52 52 52 51 50 50 50 50 51 50 50 49 49 49 49 50 49 49 48 47 48 49 44 40 40 39 39 44 50 49 50 49 47 47 48 49 49 49 49
53 54 53 52 52 51 50 50 51 51 50 50 50 49 49 49 50 49 50 50 49 48 47 47 49 46 40 40 39 39 43 48 49 48 47 46 47 48 49 50 50 47
53 54 53 52 51 51 50 50 50 50 51 52 51 51 50 51 50 49 49 49 49 49 46 47 49 47 42 40 39 39 43 49 48 48 45 44 45 47 48 49 49 48
53 53 52 52 52 51 51 50 51 51 51 51 51 52 51 50 50 49 48 49 49 49 49 49 48 49 46 39 40 40 39 47 49 45 43 43 45 46 46 47 48 48

ECMWFNIL_sfc_temp_102.txt.gz
Temp
67 67 66 66 66 66 65 65 65 64 64 65 63 63 62 62 63 63 63 62 63 63 65 64 65 64 64 65 64 66 66 65 65 65 64 64 65 64 64 64 63 64
64 65 65 65 64 64 64 64 64 64 62 62 62 62 61 61 61 62 61 62 64 64 64 64 64 64 64 64 63 63 63 64 63 63 62 63 63 63 62 62 63 64
63 63 62 62 61 61 63 64 64 63 62 62 61 61 60 61 61 62 63 64 64 63 63 63 63 63 63 63 63 63 62 62 61 62 62 63 63 62 62 63 63 62
63 63 62 62 62 61 63 63 63 63 63 61 61 61 61 61 62 62 63 63 63 63 63 63 63 63 63 63 63 63 62 62 62 61 62 64 63 63 62 63 63 63
62 62 62 62 62 62 62 62 62 61 60 61 61 61 61 61 61 63 63 63 63 63 62 63 63 62 62 62 62 62 62 62 62 62 62 63 63 62 62 62 62 62
63 64 63 62 62 61 61 62 62 62 61 60 60 61 61 62 63 62 63 63 63 63 62 62 63 62 62 62 62 61 61 61 62 62 61 62 62 62 62 61 61 61
61 61 60 62 62 62 62 62 62 62 61 61 62 62 63 62 62 63 63 63 63 63 63 62 62 61 61 61 61 61 61 61 61 62 61 61 62 61 62 61 60 60
60 61 61 62 62 62 62 64 64 63 63 63 61 61 62 63 63 62 63 63 62 63 62 62 62 61 61 61 60 59 60 60 60 60 60 61 60 60 61 60 59 59
60 60 61 61 61 62 62 62 61 61 62 61 62 62 63 62 62 62 62 63 62 61 62 61 61 61 60 60 59 59 60 60 60 60 59 59 59 59 61 61 60 59
60 60 60 60 61 61 60 60 61 61 62 61 61 62 62 62 62 63 62 61 61 61 61 61 60 60 60 60 60 59 59 59 60 60 60 60 59 60 61 61 61 59
58 59 59 60 60 60 59 60 60 61 61 62 61 61 62 62 62 63 62 61 60 61 61 60 59 59 58 59 59 59 59 59 60 60 59 60 60 61 60 61 60 60
59 59 59 60 59 59 59 60 60 61 61 61 62 61 61 61 61 61 61 61 61 61 60 60 59 58 57 57 58 58 59 59 59 59 59 60 61 61 62 61 59 60
59 59 59 59 59 59 60 60 60 60 61 61 61 61 61 60 61 60 60 60 60 60 59 58 57 56 55 55 56 57 57 59 58 59 59 59 60 61 61 61 60 60
59 60 60 60 60 60 60 60 60 60 60 60 60 59 59 60 60 59 60 60 60 60 58 58 56 54 53 52 54 54 56 58 59 58 58 59 60 61 60 59 59 59
60 60 61 60 60 60 59 59 59 59 60 60 60 59 58 60 60 60 60 60 60 59 59 57 54 51 50 48 49 51 54 57 58 58 58 59 58 59 59 58 58 57
60 60 60 60 60 59 59 59 59 59 59 59 59 59 59 59 59 59 60 59 59 59 58 55 53 50 45 42 42 47 52 57 58 59 58 59 57 57 56 56 56 56
61 60 61 60 59 59 59 59 59 58 58 58 58 58 57 58 58 58 58 58 58 58 56 55 52 48 41 40 40 40 47 54 57 58 58 58 57 56 54 54 55 56
60 60 60 59 59 59 59 59 59 59 58 58 57 56 57 57 56 57 57 58 58 58 56 54 52 43 40 40 40 39 42 50 58 57 57 58 57 56 55 55 54 54
58 58 57 57 57 58 58 59 59 58 58 57 56 57 57 56 56 56 56 57 57 57 55 54 52 42 40 40 40 39 40 44 59 57 57 57 57 55 54 54 53 53
56 57 57 57 57 58 58 58 58 57 57 57 57 57 56 55 55 55 56 56 56 56 56 54 51 43 40 39 40 38 39 41 59 57 57 57 56 55 54 53 53 52
59 59 58 58 59 58 58 57 57 57 57 58 57 56 56 56 55 55 54 55 55 56 56 54 49 40 40 39 40 39 38 44 58 57 57 56 56 56 55 54 54 51
60 59 59 59 58 58 57 57 56 56 56 57 57 57 57 57 56 56 55 55 55 55 55 54 51 40 40 40 39 39 39 56 57 57 56 57 57 56 57 56 55 52
60 60 59 59 58 57 57 56 56 56 57 59 57 57 56 56 56 56 56 55 54 54 55 55 53 44 40 40 39 39 44 57 57 57 56 56 57 56 56 56 55 53
61 61 59 58 58 57 56 56 57 58 57 58 57 57 56 57 58 57 56 56 54 53 54 54 54 46 40 40 39 39 43 54 56 55 55 56 57 57 57 56 55 50
61 60 59 58 57 57 57 57 57 57 58 59 59 59 58 59 59 57 56 56 55 54 50 52 54 49 42 40 39 40 44 54 55 54 54 55 57 56 57 56 55 54
60 59 59 58 58 57 58 58 58 58 58 58 59 60 59 59 58 58 56 56 56 56 54 53 53 53 48 39 40 40 39 49 55 51 52 54 56 55 54 55 55 56

ECMWFNIL_sfc_temp_105.txt.gz
Temp
68 68 68 67 66 67 66 66 65 65 65 65 64 64 63 63 63 64 65 67 67 67 68 67 67 67 67 68 67 68 68 66 66 66 66 67 67 66 65 65 64 65
66 67 67 66 65 66 66 66 64 64 63 63 63 63 63 63 64 66 67 67 68 67 67 67 67 67 66 66 66 66 66 66 65 66 65 66 67 66 65 64 65 65
64 64 64 63 63 64 65 65 64 63 63 63 63 63 63 65 65 67 67 67 66 66 66 66 66 66 66 66 66 66 65 65 64 65 65 66 66 65 65 65 65 64
63 63 63 63 64 65 65 64 63 63 64 63 63 65 65 65 67 67 66 66 66 66 66 66 65 66 66 66 66 65 65 66 65 65 65 65 65 65 64 64 64 64
63 63 63 63 64 65 65 63 63 63 63 63 64 65 66 66 66 66 66 66 66 66 66 66 65 65 65 65 66 64 65 65 65 65 65 64 64 64 64 64 63 63
64 65 65 65 65 64 64 65 64 63 64 65 65 66 65 66 66 66 66 66 66 66 65 65 65 64 65 65 64 64 64 63 64 64 64 63 63 64 64 64 63 63
62 63 64 65 65 65 64 64 64 65 66 65 66 65 66 65 65 66 66 66 66 65 66 65 64 63 64 64 64 63 63 63 64 64 63 63 63 63 65 64 64 64
63 64 65 65 64 64 64 66 66 65 64 65 64 65 66 66 66 65 66 65 65 65 65 65 64 64 63 64 63 62 62 63 62 63 62 63 62 63 63 63 63 63
63 63 63 63 64 64 64 64 64 65 66 65 65 64 65 65 65 65 65 66 65 64 64 64 63 63 62 62 62 62 62 62 62 62 61 61 61 62 63 63 62 62
63 63 64 64 62 63 63 64 64 64 65 64 65 65 65 64 65 66 65 65 64 64 63 62 62 61 61 62 62 61 62 62 62 62 62 62 62 62 62 62 62 61
62 63 63 62 62 62 62 63 64 64 65 65 64 64 65 65 65 66 65 64 62 63 62 61 60 60 60 60 60 61 61 62 62 62 61 62 61 62 61 61 61 60
63 62 62 62 62 62 62 63 64 64 64 64 65 64 64 64 63 64 64 64 63 63 62 61 60 59 58 57 59 59 60 62 62 62 62 62 62 62 62 61 60 59
63 62 62 62 62 62 63 63 63 63 64 64 64 64 64 63 63 63 63 63 62 61 60 59 58 56 55 54 56 57 59 62 61 61 61 62 62 62 62 61 61 60
62 63 63 63 63 63 63 63 63 63 63 63 63 63 63 63 63 63 63 63 62 61 59 58 56 55 53 52 53 55 57 61 61 61 61 61 60 61 61 61 61 60
62 63 63 63 63 63 62 62 62 62 63 63 62 62 62 63 64 64 63 62 62 60 59 57 54 52 49 48 49 52 54 59 61 61 60 60 60 60 60 60 60 60
63 63 63 63 63 62 62 62 62 62 62 62 62 62 62 62 62 63 63 62 60 60 58 55 53 51 45 42 42 47 52 55 59 60 60 60 59 58 59 59 59 59
64 63 63 63 62 62 62 62 61 61 60 59 59 59 59 60 61 61 61 61 60 58 57 55 53 48 41 40 40 40 47 53 57 60 60 59 59 58 57 58 58 58
64 64 63 62 62 61 60 60 59 58 58 58 58 58 59 60 59 60 60 60 59 59 56 54 53 43 40 40 40 40 42 48 57 60 59 59 59 58 58 57 56 56
63 63 61 60 59 58 57 57 56 57 57 58 58 58 59 58 58 58 59 60 59 58 55 54 52 42 40 40 41 40 40 44 59 59 59 59 59 59 58 57 56 55
62 61 60 59 58 58 59 59 59 58 59 59 59 59 58 57 57 57 58 58 59 58 56 53 51 43 40 40 41 39 40 41 60 59 59 59 59 59 59 57 56 54
63 62 61 62 61 61 61 60 60 59 60 60 60 59 59 58 58 57 57 58 59 59 56 53 49 41 41 40 40 40 40 44 60 59 59 59 59 60 60 58 57 55
63 62 62 62 62 61 60 60 59 59 59 60 60 60 60 59 59 58 57 57 58 59 56 53 50 40 40 41 41 40 41 57 59 59 59 59 59 59 60 60 59 56
63 62 61 62 62 61 60 59 59 60 60 61 60 60 59 59 58 57 57 57 56 57 56 53 51 44 40 41 41 40 45 58 58 59 59 59 59 59 60 61 57 57
64 63 62 61 61 60 60 59 60 61 61 62 60 59 59 59 59 58 58 57 56 55 56 54 52 46 41 41 41 40 45 55 58 57 57 58 59 59 60 60 54 49
64 63 62 61 61 60 60 60 60 60 62 62 61 61 60 61 61 59 58 58 57 55 53 55 54 50 42 41 41 41 46 55 56 56 55 55 58 58 60 59 59 55
63 62 62 61 61 60 61 61 61 61 61 62 62 63 62 62 61 59 58 58 58 58 56 56 55 54 49 41 41 42 41 50 56 53 53 53 56 58 58 59 57 57

ECMWFNIL_sfc_temp_108.txt.gz
Temp
66 66 65 65 64 64 63 63 63 62 62 62 61 60 61 62 64 64 64 63 63 62 63 62 63 62 63 63 63 63 63 61 61 61 61 62 61 61 61 60 60 60
65 65 65 65 64 63 63 63 62 62 61 61 61 62 63 63 63 63 63 63 63 62 63 62 62 63 62 62 62 61 61 61 60 63 61 61 60 60 60 60 60 60
63 63 63 63 62 62 62 62 62 61 61 61 62 62 63 64 63 63 63 62 62 62 62 62 62 62 62 62 62 61 60 60 59 61 61 60 60 60 59 59 59 59
62 62 63 63 63 62 62 62 62 62 62 62 62 63 64 63 63 62 62 63 62 62 61 61 61 61 62 61 61 60 60 60 60 60 60 60 60 60 59 59 59 59
62 62 63 63 63 63 62 62 61 61 62 62 63 63 63 62 62 62 62 62 61 61 61 61 61 60 61 60 60 59 59 59 60 60 59 58 59 59 60 59 59 58
63 64 64 63 63 62 62 62 63 63 63 62 61 63 62 63 63 62 62 61 62 61 61 61 60 60 60 60 59 59 59 58 59 60 59 58 59 60 60 59 58 58
62 62 62 63 63 63 63 63 63 63 62 62 63 62 62 62 62 62 62 61 61 61 61 60 59 58 59 59 58 59 59 59 59 60 59 58 59 58 59 59 58 58
62 63 63 63 63 63 62 62 62 62 62 62 61 62 62 62 63 62 62 61 60 60 59 59 59 59 58 58 58 58 58 59 58 58 58 58 57 57 57 58 57 57
62 62 62 62 62 61 61 62 62 62 63 61 61 61 62 62 61 61 61 61 60 59 58 58 57 57 56 57 57 57 58 58 58 57 57 57 57 57 57 57 56 55
61 61 61 61 60 61 60 61 61 61 62 62 62 61 61 61 62 62 61 60 59 58 57 56 55 55 55 56 57 57 58 58 58 57 58 57 57 57 56 56 55 54
61 61 60 60 60 60 60 61 61 61 61 62 61 61 62 61 61 61 60 59 57 57 56 55 54 53 52 53 55 56 57 58 58 58 57 57 57 56 58 56 55 54
60 60 60 60 60 60 60 61 61 61 61 61 62 61 60 60 60 60 60 58 57 56 55 54 53 51 50 51 52 54 54 57 57 57 57 57 57 57 57 56 55 55
60 60 60 59 59 60 60 61 61 61 61 61 62 61 60 60 60 59 58 58 57 55 54 52 51 49 48 48 50 52 52 54 57 56 57 56 56 57 57 56 56 55
60 60 60 60 60 60 60 60 60 60 60 60 61 60 60 60 60 59 58 58 56 55 53 52 50 48 46 46 48 49 51 52 56 56 56 56 55 56 56 56 55 55
59 60 60 60 60 60 59 59 60 59 60 60 59 59 60 61 60 59 58 57 56 55 53 51 49 46 45 43 44 46 48 51 52 55 55 55 55 55 55 55 55 54
61 60 60 60 60 59 59 59 59 59 59 58 58 59 59 59 59 58 57 56 54 54 52 50 47 46 44 42 43 43 46 49 50 54 55 54 54 53 54 54 54 53
61 60 60 59 59 59 58 58 58 57 57 57 57 57 57 58 58 58 56 55 54 52 51 49 47 45 42 40 41 41 44 47 49 54 55 54 54 53 52 53 52 53
61 61 60 59 59 58 58 57 57 56 56 56 56 56 56 57 56 57 56 55 53 52 50 49 47 43 41 41 41 41 42 44 49 54 55 54 54 53 53 52 51 52
60 59 58 57 57 56 56 57 57 56 56 55 55 56 56 55 56 56 56 55 53 51 49 48 47 43 41 41 42 41 41 43 51 55 54 54 54 54 53 52 51 51
59 58 57 56 57 57 57 57 57 56 56 56 56 56 54 54 55 55 55 55 53 51 49 48 47 43 41 42 42 41 41 42 52 55 54 55 54 54 53 52 51 51
59 58 58 58 58 58 58 57 57 56 57 56 56 56 55 54 54 53 54 55 53 51 49 48 47 42 42 41 42 41 42 45 55 56 55 54 54 54 53 52 52 51
60 59 58 58 58 58 57 57 56 56 56 56 56 55 55 55 54 54 53 54 54 51 49 48 47 41 42 42 42 41 43 52 54 54 54 54 53 54 54 52 52 50
60 59 58 58 58 57 57 56 56 56 56 57 55 55 54 54 53 53 53 53 53 52 49 48 47 43 41 42 42 41 44 51 53 53 53 53 53 54 53 52 51 51
60 60 59 58 58 57 56 56 56 56 56 57 55 55 54 54 54 53 53 52 52 51 52 50 47 44 42 42 42 41 44 49 52 51 51 51 51 53 53 49 50 53
60 60 59 58 57 57 57 56 56 56 56 57 56 56 55 56 56 54 53 53 52 52 54 52 49 47 42 41 41 41 44 48 51 49 48 48 49 51 53 53 52 51
60 59 58 58 57 57 57 57 57 57 57 57 57 58 57 56 56 55 54 53 53 53 53 52 51 48 47 42 41 42 42 46 50 48 46 47 48 50 51 52 51 52

ECMWFNIL_sfc_temp_111.txt.gz
Temp
63 63 62 61 61 61 60 60 60 59 58 58 56 57 55 57 59 57 57 57 57 56 56 56 56 56 57 57 57 56 57 56 56 56 56 56 55 55 55 54 54 53
62 62 62 61 60 60 60 60 60 59 58 57 57 55 55 57 57 56 55 56 56 56 56 56 56 56 56 56 55 55 54 55 55 58 55 54 54 54 54 54 53 54
61 61 60 59 59 59 60 60 60 59 59 58 57 56 58 56 55 55 55 55 55 55 55 55 55 55 55 55 55 54 54 53 53 54 54 54 53 54 54 54 54 54
60 60 60 59 59 59 60 60 60 58 56 56 56 58 58 58 55 55 55 57 54 54 54 55 54 54 54 54 54 53 54 53 53 53 54 54 54 54 53 54 53 53
59 59 60 60 60 60 60 59 58 56 55 55 57 57 57 55 55 55 55 55 54 54 54 54 54 53 54 53 52 52 53 52 53 53 53 52 53 54 54 53 52 51
60 61 61 59 59 59 58 57 56 57 57 56 56 56 55 56 55 55 54 54 54 53 53 53 53 52 52 52 52 52 52 53 53 53 53 52 53 54 54 52 51 50
59 59 59 59 57 57 57 57 57 57 55 55 56 55 55 54 55 54 54 53 53 53 52 51 51 51 51 51 51 51 52 52 52 53 53 52 52 52 53 52 51 50
57 57 58 58 57 57 57 57 56 55 56 55 54 55 55 55 54 53 53 52 52 51 50 50 50 50 50 50 51 50 51 53 52 52 51 51 51 50 50 51 50 49
57 56 57 57 57 56 56 56 56 56 56 54 54 54 55 54 54 53 52 52 51 50 49 48 48 48 48 49 49 49 49 51 51 51 51 50 50 50 50 50 49 48
56 56 56 56 55 54 54 54 54 55 56 55 55 55 54 54 54 53 52 50 49 48 47 47 46 46 46 47 48 48 48 50 51 51 50 50 50 50 50 49 48 47
55 55 55 54 53 53 53 54 54 55 55 54 53 53 53 53 53 52 51 50 48 47 46 46 45 45 45 45 47 47 48 48 50 51 50 49 50 51 52 49 48 47
55 55 54 53 54 53 54 54 54 54 54 54 54 54 53 53 52 51 51 49 48 47 46 45 44 43 43 44 45 46 47 48 48 49 50 50 50 50 50 49 48 47
54 53 53 53 52 52 53 53 53 53 54 54 54 53 53 52 51 50 50 49 48 47 45 44 43 43 42 42 43 44 45 47 47 48 49 49 50 50 50 49 48 47
53 53 53 53 53 53 53 53 53 52 52 52 53 53 52 52 51 50 49 49 47 46 45 44 43 42 41 41 42 43 44 45 46 47 48 48 48 49 48 48 47 47
53 53 53 53 53 53 53 53 52 52 52 53 53 53 53 52 51 50 49 48 47 46 45 44 42 42 42 41 41 42 42 44 45 45 48 46 47 48 47 47 46 46
54 53 53 53 53 52 51 51 51 51 52 51 52 52 52 51 50 49 48 46 45 45 44 43 42 42 44 43 43 41 41 43 44 45 47 46 47 46 45 46 47 47
53 53 52 51 51 51 51 51 51 51 50 50 50 50 50 51 49 47 46 46 44 43 42 43 42 43 42 41 41 43 43 41 43 45 47 46 45 46 45 47 46 46
52 52 51 51 51 51 51 50 50 49 49 49 49 49 50 49 48 47 46 45 44 43 41 42 42 43 41 42 41 41 43 42 42 45 47 48 46 46 46 46 45 45
51 51 50 50 50 50 50 49 49 48 48 49 48 48 48 48 47 47 45 44 43 42 41 41 40 42 41 42 41 41 42 44 44 45 46 47 47 46 45 45 45 45
51 50 50 50 50 49 49 49 49 48 47 48 48 48 46 46 47 46 45 44 43 42 40 40 41 43 42 42 42 41 42 44 47 47 47 47 47 46 45 44 43 43
51 50 50 50 49 49 50 49 49 48 48 48 47 46 46 46 46 45 45 44 43 42 42 41 42 42 42 42 41 42 43 45 46 47 47 46 46 44 45 43 43 44
51 50 50 49 49 49 49 48 47 47 47 47 47 45 45 45 45 46 44 43 42 41 41 40 41 42 42 42 42 41 43 46 45 45 45 45 45 44 44 44 43 43
51 50 49 49 49 49 48 48 47 47 47 48 46 45 44 44 43 44 44 43 42 41 40 39 39 42 42 42 42 41 43 43 44 44 43 43 43 45 44 44 45 45
51 51 50 49 49 48 48 47 47 47 48 48 46 45 44 44 44 43 42 42 42 41 41 40 39 42 42 42 42 41 43 41 42 42 42 42 43 44 45 42 44 53
51 50 49 49 48 47 47 47 47 48 48 48 47 47 46 45 46 44 43 42 42 44 48 43 40 42 42 41 41 41 42 41 42 41 41 41 41 43 44 43 42 47
51 50 49 49 48 47 48 48 48 48 48 48 46 47 46 44 44 44 43 42 43 44 45 42 41 41 41 42 41 41 41 41 41 39 40 40 40 43 43 42 43 44

ECMWFNIL_sfc_temp_114.txt.gz
Temp
60 60 59 58 58 58 57 57 57 57 57 57 56 54 54 54 55 54 54 54 55 53 53 53 54 54 54 53 53 53 53 53 53 52 52 53 52 51 50 50 50 49
59 59 59 58 58 59 59 59 58 57 57 57 55 53 54 54 54 54 53 53 53 52 53 53 53 53 53 52 52 52 52 52 52 54 52 51 51 51 50 49 49 49
59 58 57 57 57 58 59 59 59 59 58 56 55 54 55 54 53 53 53 53 52 52 52 52 52 52 52 52 52 51 51 51 51 52 52 51 50 50 49 49 49 48
59 59 59 59 59 59 59 59 59 58 57 56 54 55 55 54 53 52 52 53 51 51 51 51 50 51 51 51 51 51 51 51 51 51 51 51 51 50 49 49 48 48
58 58 59 59 59 60 60 59 57 56 55 53 54 54 53 52 52 51 51 50 50 50 50 50 50 49 50 50 51 51 51 50 50 50 50 49 49 50 49 48 47 46
59 59 59 59 59 58 58 57 56 55 54 54 53 53 52 52 51 50 50 49 49 49 48 48 48 48 49 48 49 49 50 50 50 50 49 48 48 49 49 47 46 45
56 56 57 57 56 56 56 55 55 55 54 53 53 52 52 50 50 49 48 48 47 48 47 47 47 47 47 48 48 48 49 49 49 49 48 48 48 47 47 47 46 45
55 55 55 55 55 55 54 55 54 53 54 53 52 51 51 50 49 48 47 47 46 46 45 46 46 46 46 47 47 47 48 50 48 48 47 47 46 45 45 46 44 44
55 54 54 54 53 53 54 53 53 53 54 52 51 50 50 49 48 47 46 46 45 44 44 44 44 44 45 46 46 46 46 47 48 48 47 46 45 45 45 44 44 44
53 54 54 53 52 53 52 52 52 52 53 51 50 50 49 48 47 46 45 44 44 43 43 43 43 43 44 44 45 45 45 46 47 47 47 46 46 44 44 44 43 42
52 53 52 52 51 51 51 52 52 52 52 51 49 48 48 47 47 46 44 44 43 43 42 42 42 42 43 43 44 44 45 46 47 47 46 46 45 45 48 43 43 42
52 52 51 51 51 51 51 51 52 52 51 50 50 48 47 47 45 45 45 43 43 42 42 42 41 41 41 42 42 43 44 45 46 46 46 45 44 44 44 44 42 42
52 51 51 51 51 51 51 52 52 51 51 49 50 48 47 46 45 44 44 43 42 42 42 41 41 41 40 40 41 42 43 44 44 45 45 45 44 44 44 43 43 44
51 50 50 50 50 51 51 51 51 51 50 50 49 47 46 46 45 44 44 43 42 42 42 41 41 41 40 40 40 40 41 42 42 44 44 43 44 43 44 43 43 44
50 50 50 51 51 50 50 50 50 50 50 49 49 48 47 45 45 44 43 42 42 41 41 41 41 41 41 40 39 39 39 41 41 42 44 43 42 42 42 43 43 43
50 50 50 50 50 49 49 49 49 49 49 48 47 46 45 45 44 44 42 42 41 40 41 41 41 41 44 43 43 41 40 40 42 42 43 43 43 42 41 42 43 41
50 49 49 49 48 48 48 49 49 49 48 47 46 45 44 45 43 42 41 41 40 40 40 40 41 42 42 40 40 43 42 40 41 41 43 42 42 41 41 43 42 41
49 49 48 48 48 48 48 48 49 48 47 46 45 44 44 43 42 41 40 40 40 40 39 40 40 43 40 41 42 42 45 43 41 41 43 43 42 41 42 42 42 41
48 48 48 48 48 47 47 48 47 47 46 45 44 44 43 42 41 41 40 40 40 40 39 39 38 42 41 42 42 42 43 45 44 43 43 42 41 41 40 41 42 43
49 48 48 47 47 47 47 47 47 46 45 45 45 44 42 42 41 41 40 40 40 39 38 38 39 42 41 42 42 42 42 43 42 43 42 41 41 41 41 40 42 42
48 48 47 47 47 47 46 46 46 45 45 45 44 43 42 41 41 40 41 40 39 38 39 39 40 41 41 41 41 41 42 42 41 43 42 40 40 40 40 39 40 42
48 48 47 47 46 46 46 45 45 45 44 44 43 42 42 41 40 41 39 38 38 37 38 37 38 41 41 41 41 41 42 42 40 41 40 39 40 39 39 39 40 40
48 48 47 46 46 46 45 44 44 43 43 44 43 42 41 41 40 40 40 38 38 38 37 35 37 40 40 40 40 40 41 40 38 40 38 38 38 40 40 39 39 41
48 48 47 46 46 45 44 44 43 43 43 44 43 42 41 41 41 40 39 39 38 37 37 37 38 41 41 40 40 40 41 37 38 39 37 37 37 39 40 38 40 50
48 48 47 46 46 45 45 44 44 44 43 43 42 42 42 41 42 40 38 37 37 37 47 39 37 41 41 40 40 40 39 36 38 38 38 36 37 39 38 40 40 44
48 48 47 47 46 45 45 45 44 44 43 43 42 42 42 40 41 41 39 39 39 39 41 38 37 38 39 40 41 40 41 37 37 38 38 35 35 39 40 39 39 40

ECMWFNIL_sfc_temp_117.txt.gz
Temp
60 60 59 58 58 57 56 55 55 55 54 54 53 52 52 52 53 52 52 53 53 52 52 52 52 52 53 52 52 52 52 50 50 49 49 48 47 47 46 46 45 45
59 60 59 58 58 57 56 56 56 55 54 53 53 53 52 52 51 52 51 51 51 51 51 52 52 52 52 52 51 51 50 50 49 50 48 47 47 47 46 45 45 45
59 58 58 58 57 57 56 56 57 57 55 54 54 52 52 52 51 51 51 50 50 50 50 51 51 51 51 51 51 50 49 48 48 48 48 46 47 46 45 45 45 44
58 59 58 58 58 58 58 57 57 56 56 54 52 52 51 51 50 50 50 51 49 49 49 49 49 50 50 50 50 49 48 48 48 48 47 47 47 46 45 45 45 44
58 58 59 59 59 59 58 58 56 55 54 53 52 51 51 50 49 49 49 48 48 48 48 48 48 48 49 49 49 48 48 47 47 47 46 45 45 46 45 45 43 43
59 59 59 59 59 58 58 56 55 54 53 51 50 50 49 49 48 48 48 47 47 47 47 47 47 47 48 48 48 47 47 47 47 46 45 44 44 45 45 44 43 43
58 58 58 58 58 57 56 55 54 53 51 50 49 48 48 47 47 46 46 46 46 47 46 45 46 46 46 47 47 47 47 46 46 46 45 44 44 43 44 44 43 43
56 56 56 56 56 56 55 54 53 51 50 49 47 47 47 46 46 45 45 45 45 44 44 45 45 45 45 47 47 46 46 47 45 45 44 43 43 42 42 43 42 41
55 55 55 55 54 54 53 52 51 49 49 47 46 46 46 45 45 44 44 44 44 43 44 44 44 44 44 45 46 46 45 45 45 44 44 43 42 42 42 41 41 41
53 53 53 52 51 51 50 50 49 48 48 47 46 45 44 44 44 44 44 43 43 43 43 43 43 43 44 44 45 46 45 44 44 44 43 42 42 42 41 41 40 40
51 51 50 50 49 49 49 48 48 47 48 46 45 44 44 44 44 43 43 43 42 42 42 42 42 43 44 44 44 45 45 44 44 43 43 43 42 42 45 40 41 39
50 50 50 49 49 49 48 48 48 47 46 46 45 44 43 43 42 42 43 41 41 41 41 41 41 41 42 43 43 44 44 44 44 43 43 42 41 41 41 41 40 40
50 50 49 49 49 48 48 48 47 46 46 45 45 44 43 42 42 41 42 41 41 41 41 41 40 40 41 41 42 42 43 43 43 42 42 41 41 41 41 40 41 42
49 49 49 49 49 49 48 47 47 46 45 45 45 43 42 42 41 41 41 41 41 41 41 41 40 40 39 40 40 41 43 42 42 42 41 40 40 41 41 41 40 40
48 49 49 50 49 48 47 47 46 45 45 45 44 43 43 41 41 41 40 40 39 40 39 40 41 40 40 40 40 40 40 42 41 41 41 40 39 40 39 39 39 39
49 49 48 48 48 47 47 46 46 45 44 43 42 42 41 41 40 40 40 40 40 39 39 40 40 40 44 45 45 41 39 41 42 40 40 40 40 40 40 40 39 37
49 48 48 48 47 47 46 46 45 44 43 42 41 41 40 41 40 39 39 39 39 39 39 39 39 41 42 40 42 44 42 41 42 41 40 40 39 39 41 42 39 37
49 48 48 47 47 46 46 45 44 43 42 41 40 40 40 39 39 38 38 38 39 39 38 39 39 43 41 42 42 43 45 42 42 42 41 40 39 39 41 40 38 38
48 47 47 46 46 46 46 45 44 42 41 41 40 40 39 38 37 38 37 37 39 39 38 38 37 42 41 42 42 41 42 43 42 42 42 40 39 39 38 39 38 40
48 47 46 46 46 46 45 44 43 42 41 41 41 40 38 38 37 37 37 37 38 38 37 37 37 42 41 41 41 41 41 42 40 41 40 39 39 39 38 37 37 38
47 47 46 46 46 45 45 44 43 41 41 41 40 39 38 38 37 37 37 38 37 37 38 37 38 41 40 41 41 41 41 41 40 41 39 38 37 37 36 37 36 38
47 46 46 46 45 45 44 43 42 42 41 40 40 38 37 37 36 37 37 36 36 37 38 36 36 40 40 40 40 40 42 41 39 39 37 37 38 37 37 36 37 37
47 46 45 45 45 44 43 42 42 41 40 41 39 38 37 37 36 36 36 36 36 37 37 34 35 39 39 40 40 40 40 39 38 39 37 36 37 37 36 37 37 38
47 47 46 45 45 44 43 42 42 41 41 42 40 38 37 36 36 36 35 36 36 35 36 36 35 39 40 40 39 39 40 37 37 37 34 35 35 35 35 35 37 48
48 47 47 45 45 43 43 42 42 42 41 41 40 39 38 37 39 36 34 35 35 37 47 38 35 39 40 39 39 40 38 34 37 37 36 33 32 35 36 36 37 41
47 47 46 45 44 42 42 42 42 42 40 40 39 39 38 37 37 37 35 35 37 38 38 35 35 36 38 39 39 40 40 36 35 36 36 35 32 37 38 36 36 37

ECMWFNIL_sfc_temp_120.txt.gz
Temp
59 59 58 59 59 58 58 57 57 56 55 55 53 52 52 52 53 52 53 53 53 52 53 53 53 52 52 51 51 50 50 49 48 48 48 47 47 46 45 45 45 45
59 59 59 59 58 58 58 57 56 56 54 54 53 52 52 52 52 52 52 51 52 52 52 52 52 52 51 50 50 49 49 48 48 49 47 46 46 46 45 45 45 45
59 58 58 58 57 57 57 57 56 55 54 54 53 53 52 52 51 51 51 51 51 51 51 51 51 51 51 50 50 49 48 47 47 48 47 46 46 45 45 45 45 44
59 59 58 58 57 57 57 56 56 55 54 53 53 52 52 51 51 50 51 52 50 50 50 50 50 50 50 50 49 48 48 47 47 47 47 47 46 46 45 45 45 44
58 58 58 58 58 58 57 56 55 54 53 53 52 52 51 50 49 49 49 49 50 50 50 50 50 49 49 49 49 48 48 47 47 47 46 45 46 46 45 45 44 43
58 59 59 58 58 57 56 55 54 53 53 52 51 51 49 49 49 49 49 48 49 49 49 49 49 49 49 48 48 47 47 46 46 46 45 45 45 45 45 44 44 43
57 57 57 57 56 56 55 54 54 53 52 51 51 49 49 48 48 48 48 48 48 49 48 48 48 48 48 48 47 46 46 46 46 46 45 45 45 44 45 44 44 43
56 57 57 56 55 55 54 53 52 51 51 51 48 47 48 47 47 47 47 47 47 47 47 48 48 48 48 48 47 46 46 46 45 45 44 44 44 43 44 44 44 43
56 55 55 54 54 53 52 52 51 50 51 49 47 46 46 46 46 46 46 47 46 46 47 47 47 47 47 47 47 46 46 45 45 45 44 44 43 43 43 43 43 43
55 54 54 53 52 52 51 50 50 49 49 47 46 45 45 45 45 46 46 46 46 46 46 46 46 47 47 47 47 46 46 45 45 44 44 44 44 43 43 44 44 43
53 53 53 52 51 51 49 49 48 48 48 46 45 44 44 45 45 45 45 46 45 45 45 46 46 47 46 46 46 46 46 45 44 44 44 44 44 45 46 44 44 44
52 52 51 50 50 49 48 48 47 46 46 45 45 44 43 44 44 44 45 44 44 44 45 45 46 46 46 46 46 45 45 45 45 44 44 44 44 43 44 44 44 44
51 50 49 49 48 47 47 46 46 45 45 44 45 44 43 43 43 43 44 43 43 44 44 45 45 45 45 45 44 44 44 44 44 43 43 44 43 43 43 43 44 44
49 49 48 47 47 47 46 45 45 44 44 44 44 43 43 43 43 43 43 43 43 43 43 44 44 44 43 43 44 44 44 44 44 44 43 43 43 43 44 44 44 44
48 48 48 48 47 46 45 44 44 44 44 44 44 43 43 42 42 42 42 42 42 43 43 44 44 44 43 43 43 43 43 44 44 44 44 44 43 44 44 44 44 44
48 48 47 47 46 45 44 44 44 44 43 42 42 42 42 42 42 42 42 42 42 42 42 43 43 44 46 45 45 44 43 43 43 43 44 44 45 44 44 44 43 43
48 47 47 46 45 45 44 44 43 43 42 41 41 41 41 43 41 41 41 42 42 42 42 42 42 44 44 42 42 44 44 44 44 43 43 43 44 44 44 46 44 44
48 47 46 45 45 45 44 43 43 42 42 41 41 40 41 41 40 40 40 41 41 41 41 42 42 44 40 42 42 42 45 44 44 44 44 44 43 43 44 43 44 44
48 47 46 45 45 44 43 43 42 42 41 41 40 40 40 39 39 39 39 40 41 41 41 42 42 42 41 42 42 42 43 44 44 44 45 44 43 42 41 41 42 44
49 48 46 45 44 43 42 41 41 40 40 41 41 40 38 38 38 39 39 39 40 40 40 40 41 42 40 41 41 41 41 43 44 44 44 42 42 41 42 42 41 42
48 48 46 45 44 43 42 42 41 40 41 40 39 39 38 38 38 38 40 40 39 39 40 40 41 41 40 40 40 40 41 42 43 43 42 41 40 40 41 42 41 41
48 46 45 44 43 42 42 41 39 40 40 41 40 39 38 38 38 39 39 38 38 39 39 38 39 40 40 40 40 40 42 44 43 43 42 42 42 41 41 41 41 41
47 46 45 44 43 42 41 40 39 39 39 41 39 38 38 38 38 38 38 38 39 39 39 37 38 40 39 40 40 40 41 42 42 42 41 41 41 41 40 40 41 43
47 47 45 44 43 43 42 41 42 41 41 41 40 39 38 37 38 37 37 38 38 37 39 38 38 40 39 39 40 40 42 42 42 41 40 41 40 39 39 40 40 46
47 46 46 44 44 43 43 42 41 41 41 41 40 40 39 38 39 37 37 37 37 39 45 39 38 40 39 39 39 40 40 40 41 41 41 38 37 39 40 39 39 41
47 47 46 45 45 44 43 43 42 41 40 40 39 40 39 38 39 38 38 38 39 40 40 38 38 38 40 39 39 39 39 40 40 42 42 40 38 43 42 40 40 40

ECMWFNIL_sfc_temp_123.txt.gz
Temp
61 60 59 59 61 61 60 59 60 59 59 58 58 59 60 60 61 61 61 61 61 60 59 59 59 58 58 57 57 57 57 56 56 56 55 55 54 54 53 53 53 55
59 59 60 60 60 60 60 59 58 58 57 57 58 58 58 59 60 61 60 59 59 59 59 59 58 58 58 57 57 56 56 56 55 56 54 54 54 54 53 53 53 54
59 59 60 60 59 58 58 58 58 57 57 57 57 58 57 59 59 60 60 59 59 58 58 58 58 58 57 57 57 57 56 55 55 56 55 54 54 54 54 54 54 53
60 60 60 59 59 58 58 57 57 57 57 57 57 57 58 59 60 60 59 59 59 58 58 58 58 58 58 57 57 56 56 56 56 55 55 55 55 55 54 54 54 54
60 60 59 58 58 57 57 57 56 56 57 56 57 58 60 60 60 59 59 58 59 58 58 57 58 57 57 57 57 56 56 55 55 56 55 54 54 54 54 55 54 53
60 60 59 59 59 58 57 57 57 57 57 56 57 59 60 60 60 59 59 59 59 58 58 58 58 57 58 57 57 56 56 56 55 55 55 54 54 55 54 54 54 53
58 59 58 59 58 58 56 55 56 57 56 56 57 58 60 60 59 60 60 59 59 59 59 58 57 56 57 57 56 55 56 56 56 56 55 55 55 54 55 55 55 54
58 58 58 57 56 55 55 56 57 56 56 57 56 58 60 60 60 59 60 59 60 59 59 59 58 58 57 57 56 55 54 55 55 56 55 55 54 54 54 54 54 55
58 57 56 55 55 55 56 56 55 55 56 55 56 57 59 60 59 59 59 60 59 58 59 58 58 58 57 57 56 56 55 55 55 56 55 54 54 55 55 56 55 55
56 55 55 54 54 54 53 54 55 54 55 55 57 58 58 58 59 59 59 59 58 58 58 58 58 57 57 58 57 57 56 56 56 56 56 55 55 56 56 56 56 55
54 54 53 53 53 53 52 53 53 53 54 56 57 57 57 57 58 59 59 59 57 58 58 58 58 58 57 57 57 57 57 56 56 56 55 56 55 55 55 56 56 55
54 53 53 53 52 52 52 53 53 53 54 56 58 57 57 57 57 58 59 59 59 59 59 59 59 58 58 58 58 57 56 56 56 56 56 56 56 56 56 56 56 56
54 53 53 52 52 52 53 53 53 54 56 57 57 57 57 57 57 57 58 59 59 59 59 58 58 58 58 58 58 58 57 56 55 55 55 55 56 56 57 56 57 56
53 53 53 53 52 53 53 52 53 55 56 56 57 56 56 57 57 57 57 58 58 59 59 58 58 58 58 58 58 57 57 56 56 55 55 55 55 56 56 57 57 57
53 53 53 53 53 53 53 53 54 55 55 56 56 56 55 57 57 57 56 57 58 57 58 58 57 56 57 57 57 57 57 56 56 56 56 55 56 56 56 57 57 57
54 53 53 53 54 54 54 54 54 54 54 54 55 55 55 55 56 56 57 56 56 57 57 56 56 56 53 49 52 57 57 56 56 56 56 56 56 55 56 56 56 57
55 54 55 54 55 54 54 54 54 53 54 54 53 53 53 54 55 55 56 57 57 56 56 55 55 55 45 43 44 47 55 56 56 56 56 56 56 55 55 56 57 57
55 56 56 55 55 55 54 54 53 53 53 53 52 52 52 53 53 54 54 55 56 57 56 55 56 48 41 42 42 43 49 57 57 56 56 56 56 56 56 56 56 56
57 56 55 55 54 54 53 53 53 52 51 51 50 50 50 50 51 50 52 54 55 56 56 56 56 43 41 41 42 42 43 52 58 57 56 56 56 56 56 56 56 56
57 56 54 53 52 51 51 52 51 51 49 48 47 47 47 46 47 49 51 53 55 56 55 56 56 44 40 41 42 41 41 47 58 57 57 56 56 55 56 56 55 56
56 55 53 51 50 50 51 51 49 46 45 45 45 45 45 45 45 48 50 52 54 55 55 54 54 42 40 40 41 41 40 46 57 56 56 56 55 55 55 55 56 55
55 54 52 51 50 50 47 46 44 44 43 43 43 44 46 46 46 49 50 51 52 54 54 54 52 39 40 40 40 41 41 55 57 56 56 56 55 55 56 57 56 56
54 53 52 51 50 47 44 43 43 43 44 45 45 45 43 45 48 49 50 51 51 53 54 53 52 43 39 39 40 40 45 57 56 57 56 55 55 55 57 56 56 56
53 52 49 49 48 45 43 43 44 45 45 46 46 46 47 48 49 49 50 51 51 52 54 53 52 45 38 40 40 41 49 57 57 57 55 56 55 55 57 56 53 46
53 51 49 49 49 48 47 46 47 47 48 48 49 50 51 51 51 51 50 51 52 53 49 52 52 46 39 39 40 40 49 57 57 57 55 55 56 56 56 57 54 50
53 51 49 48 49 49 49 50 50 50 49 50 50 52 52 52 52 53 51 51 51 52 51 52 52 51 46 38 40 40 43 56 58 56 55 54 55 57 56 57 56 56

ECMWFNIL_sfc_temp_126.txt.gz
Temp
69 68 66 66 65 63 62 64 65 65 65 65 64 65 66 67 69 68 68 68 67 66 66 65 65 65 65 65 65 65 64 63 63 63 62 62 62 61 60 61 61 62
68 67 67 66 65 63 64 64 65 65 64 64 64 65 66 67 68 68 67 65 65 65 65 65 65 65 65 65 64 64 63 63 62 63 61 61 61 61 60 60 61 62
68 66 65 63 62 62 62 63 63 63 63 63 63 65 65 66 66 66 65 65 65 64 65 65 65 65 65 65 64 64 63 62 62 63 62 62 62 61 61 62 61 61
66 65 65 65 64 63 63 63 63 63 63 62 63 65 66 66 67 66 66 66 66 65 65 65 65 65 65 65 64 63 63 63 63 63 62 62 62 62 61 62 61 61
66 66 67 67 66 64 65 65 63 63 62 63 64 66 67 67 67 67 66 66 65 65 65 65 65 64 64 64 64 62 62 62 63 63 62 61 61 61 62 62 61 60
67 69 68 66 65 65 64 63 62 62 62 63 65 68 68 67 67 67 66 66 66 65 65 65 65 65 65 64 64 63 63 63 62 63 62 61 61 62 62 62 61 60
66 66 65 64 63 64 62 62 63 62 62 63 66 67 68 67 67 67 68 67 66 66 66 65 64 64 64 64 64 63 63 63 63 64 63 62 62 61 62 62 62 61
68 67 65 64 62 62 64 64 60 61 62 65 66 67 68 68 68 67 67 67 67 67 66 66 65 65 65 65 64 62 61 62 62 62 62 62 61 61 61 61 61 61
66 63 63 62 61 61 60 60 61 62 65 65 67 68 69 68 67 67 67 68 67 66 67 66 65 65 64 64 63 62 62 62 62 62 61 61 61 61 62 62 61 61
64 63 63 62 60 60 59 60 62 63 64 65 67 68 68 67 68 68 67 67 66 66 66 65 65 64 64 65 64 63 63 62 63 62 62 62 62 62 62 62 62 61
62 62 60 59 59 59 59 60 61 62 63 67 67 67 67 67 67 68 67 67 65 66 66 65 65 65 64 64 63 63 63 63 63 63 62 62 61 61 61 62 61 61
60 61 60 58 58 58 58 59 60 61 63 66 68 67 67 67 67 67 68 67 67 67 66 66 66 65 65 65 64 63 63 63 62 62 62 62 62 62 62 62 61 62
59 60 58 57 57 57 58 59 60 61 64 67 68 67 66 66 67 67 67 67 67 67 66 65 65 65 64 64 64 64 63 62 61 61 61 61 62 62 63 62 63 62
59 58 57 57 58 58 59 59 60 62 65 67 67 66 66 67 67 66 66 67 67 67 66 66 65 64 65 65 65 63 62 62 62 61 61 61 61 62 62 62 62 62
57 57 56 57 58 58 59 59 61 63 65 66 66 66 66 67 67 67 66 66 66 65 65 65 64 63 64 64 64 63 63 62 61 61 61 61 61 61 62 62 62 61
57 56 57 58 58 58 59 61 62 64 65 65 65 66 66 66 66 66 66 65 65 65 65 63 63 63 58 54 56 63 63 62 61 61 61 61 61 60 61 62 62 61
58 59 58 57 58 59 60 61 63 64 64 65 64 64 64 65 65 65 65 65 65 64 63 62 62 61 47 46 45 51 61 62 62 61 62 61 61 61 60 61 62 62
59 59 59 59 60 61 61 64 64 64 64 64 63 62 63 64 63 64 64 64 63 64 62 61 61 50 43 44 46 46 51 61 62 62 61 62 62 62 62 62 61 61
62 61 61 60 61 62 63 64 64 64 63 62 61 62 63 62 63 63 63 63 62 62 60 60 58 45 43 43 44 44 43 51 64 62 61 62 61 62 62 62 62 61
63 63 62 62 63 64 64 64 64 63 62 62 61 61 61 61 61 61 61 62 62 61 59 59 57 45 42 42 43 41 43 46 64 61 61 61 61 61 61 61 61 62
64 64 64 64 64 64 64 64 63 61 61 61 60 60 60 58 57 57 58 59 59 57 58 57 57 43 42 41 42 41 41 44 63 61 61 61 61 61 61 61 61 60
64 64 64 64 64 64 63 62 61 60 60 59 58 56 55 54 53 54 54 55 56 56 57 57 55 41 41 41 41 41 40 56 62 61 61 61 61 61 62 62 62 61
64 63 62 62 63 62 62 60 59 57 57 58 56 55 54 54 55 55 57 57 57 58 58 59 56 44 40 40 41 40 45 60 61 62 62 60 61 61 62 61 61 62
62 61 60 60 61 61 60 59 58 58 57 57 57 55 55 56 57 58 58 59 59 59 60 60 59 48 39 41 40 39 48 59 62 62 61 61 61 61 63 62 58 48
59 59 59 59 60 60 59 58 57 57 57 57 57 57 57 58 58 57 58 59 60 61 57 59 60 50 39 40 40 40 47 60 63 63 61 60 61 60 62 62 60 55
59 59 59 59 59 58 58 58 59 58 57 57 58 59 59 59 59 60 59 60 61 61 59 60 60 58 49 39 40 40 41 57 64 63 61 60 61 62 61 62 62 60